ECMWFNIL_con_mucape_000.txt.gz
CAPE
0 0 0 0 0 0 0 0 0 0 0 0 0 0 0 0 0 0 0 0 0 0 0 0 0 0 0 0 0 0 0 0 0 0 0 0 0 0 0 0 0 0
0 0 0 0 0 0 0 0 0 0 0 0 0 0 0 0 0 0 0 0 0 0 0 0 0 0 0 0 0 0 0 0 0 0 0 0 0 0 0 0 0 0
0 0 0 0 0 0 0 0 0 0 0 0 0 0 0 0 0 0 0 0 0 0 0 0 0 0 0 0 0 0 0 0 0 0 0 0 0 0 0 0 0 0
0 0 0 0 0 0 0 0 0 0 0 0 0 0 0 0 0 0 0 0 0 0 0 0 0 0 0 0 0 0 0 0 0 0 0 0 0 0 0 0 0 0
0 0 0 0 0 0 0 0 0 0 0 0 0 0 0 0 0 0 0 0 0 0 0 0 0 0 0 0 0 0 0 0 0 0 0 0 0 0 0 0 0 0
0 0 0 0 0 0 0 0 0 0 0 0 0 0 0 0 0 0 0 0 0 0 0 0 0 0 0 0 0 0 0 0 0 0 0 0 0 0 0 0 0 0
0 0 0 0 0 0 0 0 0 0 0 0 0 0 0 0 0 0 0 0 0 0 0 0 0 0 0 0 0 0 0 0 0 0 0 0 0 0 0 0 0 0
104 0 0 0 0 0 0 0 0 0 0 0 0 0 0 0 0 0 0 0 0 0 0 0 0 0 0 0 0 0 0 0 0 0 0 0 0 0 0 0 0 0
189 87 187 169 0 0 0 0 0 0 0 0 0 0 0 0 0 0 0 0 0 0 0 0 0 0 0 0 0 0 0 0 0 0 0 0 0 0 0 0 0 0
22 217 241 175 222 0 0 0 0 0 0 0 0 0 0 0 0 0 0 0 0 0 0 0 0 0 0 0 0 0 0 0 0 0 0 0 0 0 0 0 0 0
90 324 279 275 277 67 0 0 0 0 0 0 0 0 0 0 0 0 0 0 0 0 0 0 0 0 0 0 0 0 0 0 0 0 0 0 0 0 0 0 0 0
453 390 334 366 338 328 267 166 0 0 0 0 0 0 0 0 0 0 0 0 0 0 0 0 0 0 0 0 0 0 0 0 0 0 0 0 0 0 0 0 0 0
546 396 350 358 345 346 327 259 59 0 0 0 0 0 0 0 0 0 0 0 0 0 0 0 0 0 0 0 0 0 0 0 0 0 0 0 0 0 0 0 0 0
571 495 383 307 379 340 298 180 186 97 0 0 0 0 0 0 0 0 0 0 0 0 0 0 0 0 0 0 0 0 0 0 0 0 0 0 0 0 0 0 0 0
607 514 395 136 107 288 236 95 0 0 0 0 0 0 0 0 0 0 0 0 0 0 0 0 0 0 0 0 0 0 0 0 0 0 0 0 0 0 0 0 0 0
571 593 553 454 330 256 8 0 0 0 0 0 0 0 0 0 0 0 0 0 0 0 0 0 0 0 0 0 0 0 0 0 0 0 0 0 0 0 0 0 0 0
662 556 521 472 439 338 228 0 0 0 0 0 0 0 0 0 0 0 0 0 0 0 0 0 0 0 0 0 0 0 0 0 0 0 0 0 0 0 0 0 0 0
764 731 628 559 492 446 336 21 0 0 0 0 0 0 0 0 0 0 0 0 0 0 0 0 0 0 0 0 0 0 0 0 0 0 0 0 0 0 0 0 0 0
810 861 817 711 608 486 381 2 0 0 0 0 0 0 0 0 1 4 7 0 0 0 0 0 0 0 0 0 0 0 0 0 0 0 0 0 0 0 0 0 0 0
632 804 901 876 773 630 482 201 48 0 0 0 0 1 0 0 0 0 0 0 0 0 1 0 0 0 0 0 0 0 0 0 0 0 0 0 0 0 0 0 0 0
422 613 737 773 782 673 525 385 203 98 0 3 0 0 0 0 0 0 0 0 0 1 0 0 0 0 0 0 0 0 0 0 0 0 0 0 0 0 0 0 0 0
266 410 499 566 587 560 516 468 295 2 9 2 0 0 0 0 0 0 0 0 0 0 0 0 0 0 0 0 0 0 0 0 0 0 0 0 0 0 0 0 0 0
91 287 346 406 429 431 454 376 5 109 0 0 0 0 0 0 0 0 0 0 0 0 0 0 0 0 0 0 0 0 0 0 0 0 0 0 0 0 0 0 0 0
0 132 261 283 301 337 339 178 0 0 0 4 0 0 0 0 0 0 0 0 0 0 0 0 0 0 0 0 0 0 0 0 0 0 0 0 0 0 0 0 0 0
0 0 230 240 251 259 238 0 0 0 0 0 0 0 0 1 6 2 0 0 0 0 0 0 0 0 0 0 0 0 0 0 0 0 0 0 0 0 0 0 0 0
0 160 222 241 127 8 7 0 0 0 0 0 0 0 2 0 0 0 0 0 0 0 0 0 0 0 0 0 0 0 0 0 0 0 0 0 0 0 0 0 0 0

ECMWFNIL_con_mucape_003.txt.gz
CAPE
106 84 106 36 28 20 27 11 4 19 38 47 21 40 7 18 0 0 0 0 0 0 0 0 0 0 0 0 0 0 0 0 0 0 0 0 0 0 0 0 0 0
82 78 47 45 26 7 6 18 18 8 19 34 52 50 26 2 0 0 0 0 0 0 0 0 0 0 0 0 0 0 0 0 0 0 0 0 0 0 0 0 0 0
63 53 56 43 37 31 15 2 3 2 12 27 74 32 5 6 0 0 0 0 0 0 0 0 0 0 0 0 0 0 0 0 0 0 0 0 0 0 0 0 0 0
4 51 52 52 43 32 21 0 0 0 0 0 0 2 6 0 0 0 0 0 0 0 0 0 0 0 0 0 0 0 0 0 0 0 0 0 0 0 0 0 0 0
30 30 41 44 36 14 5 0 0 0 0 0 2 0 0 0 0 0 0 0 0 0 0 0 0 0 0 0 0 0 0 0 0 0 0 0 0 0 0 0 0 0
30 19 20 19 18 2 0 0 0 0 0 0 0 0 0 0 0 0 0 0 0 0 0 0 0 0 0 0 0 0 0 0 0 0 0 0 0 0 0 0 0 0
148 55 24 13 12 0 0 0 0 0 0 0 0 0 0 0 0 0 0 0 0 0 0 0 0 0 0 0 0 0 0 0 0 0 0 0 0 0 0 0 0 0
151 102 49 28 44 27 0 0 0 0 0 0 0 0 0 0 0 0 0 0 0 0 0 0 0 0 0 0 0 0 0 0 0 0 0 0 0 0 0 0 0 0
157 117 100 62 85 89 43 8 3 0 0 0 0 0 0 0 0 0 0 0 0 0 0 0 0 0 0 0 0 0 0 0 0 0 0 0 0 0 0 0 0 0
359 177 115 40 108 116 102 85 51 4 0 0 0 0 0 0 0 0 0 0 0 0 0 0 0 0 0 0 0 0 0 0 0 0 0 0 0 0 0 0 0 0
436 308 277 208 135 20 167 151 102 29 0 0 0 0 0 0 0 0 0 0 0 0 0 0 0 0 0 0 0 0 0 0 0 0 0 0 0 0 0 0 0 0
463 477 410 354 293 232 36 129 185 23 0 0 0 0 0 0 0 0 0 0 0 0 0 0 0 0 0 0 0 0 0 0 0 0 0 0 0 0 0 0 0 0
501 524 524 517 466 401 314 101 39 152 245 259 186 0 0 0 0 0 0 0 0 0 0 0 0 0 0 0 0 0 0 0 0 0 0 0 0 0 0 0 0 0
515 544 586 573 581 572 515 424 344 310 315 296 266 228 0 0 0 0 0 0 0 0 0 0 0 0 0 0 0 0 0 0 0 0 0 0 0 0 0 0 0 0
486 521 520 525 570 605 632 625 578 509 437 330 310 273 175 2 0 0 0 0 0 0 0 0 0 0 0 0 0 0 0 0 0 0 0 0 0 0 0 0 0 0
347 468 542 550 529 520 550 561 540 496 444 355 308 269 0 0 0 0 0 0 0 0 0 0 0 0 0 0 0 0 0 0 0 0 0 0 0 0 0 0 0 0
285 341 449 511 547 550 489 428 396 416 400 225 144 0 20 0 0 3 0 0 0 0 0 0 0 0 0 0 0 0 0 0 0 0 0 0 0 0 0 0 0 0
193 310 271 390 502 543 541 462 358 337 335 209 121 127 104 107 64 34 1 0 0 0 0 0 0 0 0 0 0 0 0 0 0 0 0 0 0 0 0 0 0 0
26 242 293 256 335 368 474 478 509 390 318 267 236 154 17 90 92 25 5 0 0 0 0 0 0 0 0 0 0 0 0 0 0 0 0 0 0 0 0 0 0 0
0 62 276 266 226 277 319 362 472 524 448 331 242 0 0 0 0 2 0 0 0 0 0 0 0 0 0 0 0 0 0 0 0 0 0 0 0 0 0 0 0 0
0 5 126 202 149 81 196 268 406 470 391 336 311 151 0 0 0 0 0 0 1 0 4 0 0 0 0 0 0 0 0 0 0 0 0 0 0 0 0 0 0 0
0 1 33 127 101 20 93 141 285 312 339 305 284 0 0 0 0 0 1 0 7 4 0 0 0 0 0 0 0 0 0 0 0 0 0 0 0 0 0 0 0 0
0 0 2 66 62 12 29 33 146 230 251 259 135 0 48 0 26 60 18 32 18 0 0 0 0 0 0 0 0 0 0 0 0 0 0 0 0 0 0 0 0 0
0 0 1 23 20 2 38 94 0 0 26 30 210 0 0 28 0 10 17 22 0 0 0 0 0 0 0 0 0 0 0 0 0 0 0 0 0 0 0 0 0 0
0 0 2 31 38 9 8 57 119 107 4 178 129 118 0 0 2 6 9 0 0 0 0 0 0 0 0 0 0 0 0 0 0 0 0 0 0 0 0 0 0 0
0 0 3 44 61 61 5 14 46 120 160 232 166 66 0 0 0 0 0 0 0 0 0 0 0 0 0 0 0 0 0 0 0 0 0 0 0 0 0 0 0 0

ECMWFNIL_con_mucape_009.txt.gz
CAPE
224 206 104 87 67 78 85 64 33 14 0 4 4 5 0 0 0 0 0 0 0 0 0 0 0 0 0 0 0 0 0 0 0 0 0 0 0 0 0 0 0 0
422 285 240 150 47 112 99 101 111 42 2 10 8 15 10 0 0 0 0 0 0 0 0 0 0 0 0 0 0 0 0 0 0 0 0 0 0 0 0 0 0 0
594 469 366 283 144 164 327 168 209 130 6 8 39 66 53 17 0 7 7 0 0 0 0 0 0 0 0 0 0 0 0 0 0 0 0 0 0 0 0 0 0 0
762 732 688 446 251 174 380 286 268 200 29 31 30 71 127 70 2 12 24 4 7 0 0 0 0 0 0 0 0 0 0 0 0 0 0 0 0 0 0 0 0 0
997 937 897 896 662 330 396 466 409 262 117 82 63 71 192 132 21 25 39 13 38 5 0 0 0 0 0 0 0 0 0 0 0 0 0 0 0 0 0 0 0 0
1207 1024 817 689 699 702 778 560 352 153 228 222 117 93 284 193 62 33 26 22 50 15 7 0 0 0 0 0 0 0 0 0 0 0 0 0 0 0 0 0 0 0
948 1045 864 306 209 446 760 736 400 164 225 318 235 249 311 276 93 87 40 29 59 41 23 0 0 0 0 0 0 0 0 0 0 0 0 0 0 0 0 0 0 0
1332 1392 1079 748 663 500 737 1016 647 658 143 208 115 253 274 264 136 143 100 55 39 53 36 2 0 0 0 0 0 0 0 0 0 0 0 0 0 0 0 0 0 0
924 798 780 1001 924 840 705 710 840 792 658 454 168 132 212 281 202 191 145 99 61 69 46 26 2 0 0 0 0 0 0 0 0 0 0 0 0 0 0 0 0 0
1191 1068 978 630 498 723 642 348 786 834 768 610 707 389 242 166 109 137 198 135 104 90 88 54 29 5 1 0 0 0 0 0 0 0 0 0 0 0 0 0 0 0
1198 1222 1326 1307 995 1021 722 634 456 685 502 787 538 763 249 250 188 69 167 200 189 143 114 104 77 25 7 0 0 0 0 0 0 0 0 0 0 0 0 0 0 0
1156 1231 1146 1195 938 751 660 839 997 930 1003 832 656 782 399 591 404 188 224 246 220 220 192 159 119 42 10 0 0 0 0 0 0 0 0 0 0 0 0 0 0 0
994 966 909 1081 1163 758 908 955 919 882 844 790 831 718 680 604 632 420 174 140 199 266 235 225 164 59 26 5 0 0 0 0 0 0 0 0 0 0 0 0 0 0
224 239 447 578 1024 1157 1133 1256 1338 1197 1148 954 832 702 670 458 325 484 135 164 83 13 308 268 184 82 45 18 3 0 0 0 0 0 0 0 0 0 0 0 0 0
64 168 54 534 1064 742 911 978 1025 1173 1309 1176 1149 738 905 859 342 380 418 411 383 246 372 282 179 121 50 20 29 28 13 18 12 0 0 0 0 0 0 0 0 0
0 0 41 178 221 340 554 797 870 988 1041 1082 1062 1096 980 760 848 618 178 326 711 491 438 347 21 142 47 0 0 16 52 9 0 0 0 0 0 0 0 0 0 0
0 0 0 0 5 172 339 358 426 589 740 773 827 922 1020 943 782 704 566 606 490 343 125 119 78 41 1 20 25 71 120 69 13 0 0 0 0 0 0 0 0 0
0 0 0 0 0 0 37 186 347 504 513 597 671 718 808 919 812 788 843 690 572 132 87 170 89 76 142 12 53 96 71 33 27 17 40 24 0 0 0 0 0 0
0 0 0 0 0 0 4 67 81 208 380 439 501 588 654 802 819 803 721 523 360 302 180 83 31 224 196 124 159 62 79 21 12 40 55 1 0 0 0 0 0 0
0 0 0 0 0 0 0 18 140 106 192 343 378 484 538 508 537 622 567 490 298 246 162 8 134 230 209 130 110 66 63 47 42 2 0 0 0 0 0 0 0 0
0 0 0 0 0 0 0 0 2 97 178 280 250 253 357 392 474 419 412 448 403 261 178 0 0 0 132 35 0 7 21 75 30 0 0 0 0 0 0 0 0 0
0 0 0 0 0 0 0 0 0 22 249 296 284 250 280 329 368 455 470 490 320 293 57 0 0 0 0 13 0 0 6 16 1 0 0 4 0 0 0 0 0 0
0 0 0 0 0 0 0 0 0 0 101 195 230 273 265 240 278 394 450 481 340 211 86 0 0 0 0 11 0 0 8 11 0 4 17 3 0 0 0 0 0 0
0 0 0 0 0 0 0 0 0 0 28 133 212 203 232 286 261 274 387 407 316 181 1 0 0 0 0 0 0 4 0 0 3 9 0 0 0 0 0 0 0 0
0 0 0 0 0 0 0 0 0 0 28 111 137 212 219 222 164 238 347 398 162 63 0 0 0 1 74 22 0 2 9 8 2 0 0 0 0 0 0 0 0 0
0 0 0 0 2 0 0 1 1 0 20 122 155 148 131 171 157 234 280 163 44 0 0 0 0 2 2 0 2 1 0 0 1 1 0 0 0 0 0 0 0 0

ECMWFNIL_con_mucape_012.txt.gz
CAPE
647 417 380 590 383 382 334 371 268 353 254 95 24 2 0 0 0 2 2 0 0 0 0 0 0 0 0 0 0 0 0 0 0 0 0 0 0 0 0 0 0 0
587 539 314 459 526 456 434 734 373 326 425 296 185 101 10 0 0 24 0 0 0 0 0 0 0 0 0 0 0 0 0 0 0 0 0 0 0 0 0 0 0 0
602 636 421 402 496 633 501 821 736 326 424 427 464 245 130 9 4 59 12 0 0 0 0 0 0 0 0 0 0 0 0 0 0 0 0 0 0 0 0 0 0 0
721 920 594 659 560 1028 572 622 1032 388 583 502 608 392 183 47 20 166 55 11 3 0 0 0 0 0 0 0 0 0 0 0 0 0 0 0 0 0 0 0 0 0
1072 1028 1022 985 707 1118 737 563 845 566 489 446 627 462 256 89 50 144 158 19 61 0 0 0 0 0 0 0 0 0 0 0 0 0 0 0 0 0 0 0 0 0
1208 1104 1070 914 980 1144 960 721 777 801 668 450 728 460 443 201 60 127 163 53 104 11 1 0 0 0 0 0 0 0 0 0 0 0 0 0 0 0 0 0 0 0
1445 1366 1169 909 1000 513 818 1145 859 600 558 766 632 485 586 320 104 157 132 84 118 57 13 0 0 0 0 0 0 0 0 0 0 0 0 0 0 0 0 0 0 0
1012 916 851 719 1022 873 821 1135 775 955 948 852 743 607 641 500 232 185 185 143 105 114 68 2 0 0 0 0 0 0 0 0 0 0 0 0 0 0 0 0 0 0
1214 907 1283 1364 1395 1321 1532 1564 1122 1000 1026 925 1064 709 584 631 395 234 230 161 136 153 122 54 11 2 0 0 0 0 0 0 0 0 0 0 0 0 0 0 0 0
603 618 734 1180 1360 1473 1664 1274 1256 1056 915 1186 766 826 895 591 589 427 287 213 144 138 151 115 52 31 9 5 0 0 0 0 0 0 0 0 0 0 0 0 0 0
290 130 725 1246 1659 1605 1277 879 887 844 791 445 199 297 288 220 594 502 366 278 265 186 135 127 89 45 11 8 0 2 0 0 0 0 0 0 0 0 0 0 0 0
857 1061 1167 1394 1567 1400 1164 701 561 471 483 632 657 189 47 25 234 477 362 318 302 268 166 157 126 55 24 6 0 3 0 0 0 0 0 0 0 0 0 0 0 0
934 990 1112 1377 1277 1231 1041 704 494 458 612 696 444 245 425 518 610 591 451 84 174 250 243 218 180 110 56 16 0 3 2 0 0 0 0 0 0 0 0 0 0 0
695 736 1064 1272 1351 1338 1029 705 479 478 520 612 514 315 341 375 353 20 286 43 352 231 214 175 224 199 106 59 13 52 10 0 0 0 0 0 0 0 0 0 0 0
12 23 23 91 321 549 995 1016 741 652 723 605 503 445 394 362 380 455 383 325 349 397 545 322 43 48 86 65 183 188 18 1 0 0 0 0 0 0 0 0 0 0
174 318 149 178 498 797 772 753 1003 1238 1091 813 803 797 862 782 710 568 453 378 331 510 303 115 61 45 69 71 104 135 136 135 0 0 29 26 4 0 0 6 19 4
0 1 2 32 207 466 590 615 728 844 990 975 982 973 1022 853 884 775 765 606 531 418 298 248 274 87 10 0 7 6 20 5 13 41 37 36 22 22 24 12 11 0
0 0 0 0 0 0 8 74 277 411 518 678 931 1030 1241 1179 1252 1051 835 749 809 530 455 344 209 36 0 0 20 0 0 0 88 6 12 35 58 53 22 0 0 0
0 0 0 0 0 0 4 20 45 73 98 344 537 890 800 862 854 956 1022 1084 863 734 613 517 291 0 0 0 0 0 133 164 0 2 36 19 36 50 0 32 11 0
0 0 0 0 0 0 0 0 2 47 259 341 405 521 688 604 722 775 883 914 739 566 493 405 386 350 242 186 0 0 0 30 0 0 7 1 2 0 6 9 0 0
0 0 0 0 0 0 0 0 2 15 71 160 275 392 374 568 676 574 589 610 734 484 380 292 348 361 307 213 32 0 0 0 2 0 3 0 0 0 0 0 0 0
0 0 0 0 0 0 0 0 0 4 33 153 248 306 314 291 337 502 611 514 529 556 311 244 267 296 234 181 159 88 1 0 0 1 0 0 0 0 0 1 1 0
0 0 0 0 0 0 0 0 0 4 21 32 85 272 300 314 274 314 328 446 509 534 263 196 225 298 244 185 148 127 0 0 6 1 0 0 3 1 2 2 5 2
0 0 0 0 0 0 0 0 0 0 0 5 33 102 223 247 292 208 236 252 352 321 206 169 190 203 202 188 150 158 5 12 16 2 1 0 0 0 0 2 7 12
0 0 0 0 0 0 19 12 10 16 13 14 41 98 138 193 106 120 136 96 154 0 82 226 233 235 209 185 156 133 72 19 27 0 0 0 0 0 1 6 11 12
0 0 0 0 0 22 55 68 58 17 31 20 23 36 72 110 138 100 94 7 0 0 8 211 249 252 224 186 154 92 26 1 5 41 2 0 0 0 0 2 9 2

ECMWFNIL_con_mucape_015.txt.gz
CAPE
0 0 0 0 0 0 0 0 0 0 0 0 0 0 0 0 0 0 0 0 0 0 0 0 0 0 0 0 0 0 0 0 0 0 0 0 0 0 0 0 0 0
0 1 8 0 0 2 0 2 1 0 0 0 0 0 0 0 0 0 0 0 0 0 0 0 0 0 0 0 0 0 0 0 0 0 0 0 0 0 0 0 0 0
0 3 10 3 2 5 6 5 7 0 0 0 0 0 0 0 0 0 0 0 0 0 0 0 0 0 0 0 0 0 0 0 0 0 0 0 0 0 0 0 0 0
21 0 8 11 9 15 60 24 65 17 2 0 0 0 0 0 0 0 0 0 0 0 0 0 0 0 0 0 0 0 0 0 0 0 0 0 0 0 0 0 0 0
60 1 11 19 38 10 286 123 89 120 100 6 0 0 0 0 0 0 0 0 0 0 0 0 0 0 0 0 0 0 0 0 0 0 0 0 0 0 0 0 0 0
232 14 7 2 196 13 206 222 120 134 160 36 1 0 0 0 0 0 0 0 0 0 0 0 0 0 0 0 0 0 0 0 0 0 0 0 0 0 0 0 0 0
4 90 222 108 508 45 35 343 250 163 172 106 23 0 0 0 0 0 0 0 0 0 0 0 0 0 0 0 0 0 0 0 0 0 0 0 0 0 0 0 0 0
231 0 0 27 413 502 338 444 304 220 186 200 145 119 0 0 0 0 1 0 0 0 0 0 0 0 0 0 0 0 0 0 0 0 0 0 0 0 0 0 0 0
266 21 89 82 596 706 722 490 482 525 554 331 290 201 191 188 185 179 173 178 170 68 0 0 0 0 0 0 0 0 0 0 0 0 0 0 0 0 0 0 0 0
25 29 301 564 573 563 756 702 496 520 580 553 518 444 351 240 230 260 281 270 245 211 160 21 0 0 0 0 0 0 0 0 0 0 0 0 0 0 0 0 0 0
129 108 88 216 30 244 679 842 649 480 498 420 485 469 448 463 433 394 388 368 362 334 290 240 198 159 43 0 0 0 1 0 0 0 0 0 0 0 0 0 0 0
381 333 357 187 227 247 558 853 662 550 470 430 351 393 359 331 355 366 365 363 352 347 283 242 203 173 166 0 0 0 0 20 20 0 0 0 0 0 0 0 0 0
348 242 329 309 676 722 752 855 633 484 474 512 518 461 351 329 257 102 20 211 313 332 310 211 3 0 0 203 221 193 168 157 147 131 0 0 0 0 0 0 0 0
548 525 836 1088 1116 1006 768 599 529 381 28 357 369 364 320 260 268 318 299 211 221 60 26 11 6 13 36 187 179 189 187 209 216 210 179 41 0 0 0 0 0 4
911 832 936 996 867 867 722 632 626 582 527 481 484 418 317 156 156 272 315 316 292 144 66 30 6 9 18 185 173 147 141 170 19 135 180 142 4 0 0 0 8 16
408 274 459 616 719 966 936 769 561 420 366 380 468 475 435 373 314 305 301 314 313 286 267 254 0 10 54 198 216 200 140 136 140 142 148 138 124 117 0 2 26 0
0 0 0 0 0 26 518 732 600 496 423 425 529 691 754 750 685 632 546 484 498 427 384 368 330 307 280 264 236 183 202 168 6 102 130 124 109 98 0 33 44 2
0 0 0 0 56 140 270 452 492 619 704 678 752 809 791 757 746 766 731 647 556 600 620 582 484 410 335 276 260 261 201 2 0 0 114 123 126 27 71 25 0 0
0 0 0 0 0 0 0 0 66 146 204 166 577 876 864 806 783 802 761 686 723 726 688 643 632 623 596 540 440 354 262 208 11 0 120 100 99 27 0 0 0 0
0 0 0 0 0 0 0 0 0 0 7 60 134 288 310 633 752 648 554 491 541 641 699 739 740 746 730 652 636 533 333 211 117 12 0 49 26 1 0 1 1 4
0 0 0 0 0 0 0 0 0 0 0 0 31 126 128 204 276 294 344 471 700 763 787 767 720 602 495 434 457 481 395 252 36 0 0 0 0 4 1 0 0 0
0 0 0 0 0 0 0 0 0 0 0 0 0 1 27 82 83 195 319 377 441 562 574 570 508 444 383 346 388 426 428 226 224 215 101 0 1 3 0 4 0 3
0 0 0 0 0 0 0 0 0 0 0 0 0 0 0 4 4 18 94 254 335 419 440 455 441 393 348 309 285 285 337 308 205 107 0 0 0 1 0 0 4 1
0 0 0 0 0 0 0 0 0 0 0 0 0 0 0 0 0 0 0 0 84 348 412 443 458 438 401 352 312 283 276 223 170 145 0 0 0 0 1 0 0 0
0 0 0 0 0 0 0 0 0 0 0 0 0 0 0 0 0 0 0 0 0 40 324 430 484 472 403 354 312 296 291 273 192 183 11 0 3 0 0 0 0 0
0 0 0 0 0 0 0 0 0 0 0 0 0 0 0 0 0 0 0 0 0 8 185 312 391 390 345 306 293 295 287 292 208 138 62 0 0 13 0 0 0 0

ECMWFNIL_con_mucape_018.txt.gz
CAPE
0 0 0 0 0 0 0 0 0 0 0 0 0 0 0 0 0 0 0 0 0 0 0 0 0 0 0 0 0 0 0 0 0 0 0 0 0 0 0 0 0 0
0 0 0 0 0 0 0 0 0 0 0 0 0 0 0 0 0 0 0 0 0 0 0 0 0 0 0 0 0 0 0 0 0 0 0 0 0 0 0 0 0 0
0 0 0 0 0 0 0 0 0 0 0 0 0 0 0 0 0 0 0 0 0 0 0 0 0 0 0 0 0 0 0 0 0 0 0 0 0 0 0 0 0 0
0 0 0 0 0 0 0 0 0 0 0 0 0 0 0 0 0 0 0 0 0 0 0 0 0 0 0 0 0 0 0 0 0 0 0 0 0 0 0 0 0 0
13 1 0 0 0 0 0 0 0 0 0 0 0 0 0 0 0 0 0 0 0 0 0 0 0 0 0 0 0 0 0 0 0 0 0 0 0 0 0 0 0 0
19 2 0 0 0 0 0 2 0 0 0 0 0 0 0 0 0 0 0 0 0 0 0 0 0 0 0 0 0 0 0 0 0 0 0 0 0 0 0 0 0 0
48 23 28 33 35 4 4 0 0 162 0 2 0 0 0 0 0 0 0 0 0 0 0 0 0 0 0 0 0 0 0 0 0 0 0 0 0 0 0 0 0 0
76 52 34 10 104 90 15 0 4 171 117 0 21 20 0 0 0 0 0 0 0 0 0 0 0 0 0 0 0 0 0 0 0 0 0 0 0 0 0 0 0 0
46 53 30 14 27 156 87 63 0 165 195 215 213 94 31 27 15 5 4 1 0 0 0 0 0 0 0 0 0 0 0 0 0 0 0 0 0 0 0 0 0 0
73 81 31 46 483 482 311 31 20 346 236 262 312 290 201 48 55 68 68 70 52 34 16 1 0 0 0 0 0 0 0 0 0 0 0 0 0 0 0 0 0 0
509 71 36 50 40 512 450 195 223 484 353 330 369 403 382 209 197 143 154 67 145 250 233 126 46 0 0 0 0 0 0 0 0 0 0 0 0 0 0 0 0 0
606 80 45 32 14 207 466 139 156 518 586 379 408 340 371 377 220 245 243 261 291 332 304 283 236 189 185 168 0 0 0 0 0 0 0 0 0 0 0 0 0 0
399 100 111 73 428 71 82 60 316 484 467 436 441 300 327 364 316 299 321 353 384 373 325 304 266 232 221 182 0 0 0 0 0 0 0 81 94 0 0 0 0 0
428 262 116 421 584 607 480 58 605 722 686 494 348 0 452 497 523 488 477 459 448 410 371 344 327 281 228 177 105 0 16 118 0 0 137 118 124 136 105 19 0 0
371 274 371 397 372 397 346 441 504 629 794 743 463 86 289 354 411 398 343 326 338 301 325 369 368 327 225 0 1 0 0 159 23 0 91 120 119 59 0 0 0 0
475 430 378 792 894 928 950 890 743 648 669 680 637 514 428 198 433 398 341 0 0 0 140 280 288 287 152 0 0 0 0 0 0 0 179 179 155 132 98 44 0 0
930 879 941 1086 1176 1145 996 823 700 694 631 615 566 428 416 483 477 429 530 552 498 444 378 340 353 359 349 326 274 48 0 0 0 218 222 221 212 200 203 167 112 21
766 871 966 991 952 875 805 798 809 746 632 479 405 368 387 495 649 698 729 755 753 738 685 616 555 618 640 604 524 434 369 321 327 335 320 290 273 263 241 212 148 0
0 0 0 0 0 24 121 207 493 582 581 533 486 474 545 644 760 767 755 730 764 766 716 726 720 703 692 675 674 668 616 561 518 486 435 381 322 274 244 236 188 10
0 0 0 0 0 0 0 0 131 209 232 162 192 280 404 564 717 755 705 664 679 671 598 537 581 621 686 740 741 735 719 680 660 504 396 352 325 208 140 140 143 72
0 0 0 0 0 0 0 0 0 0 42 73 22 126 352 551 580 579 563 564 532 525 492 521 520 567 655 708 669 602 499 444 532 434 319 246 231 256 167 2 10 5
0 0 0 0 0 0 0 0 0 0 0 0 0 0 0 0 48 212 284 341 360 398 548 602 597 610 632 577 481 375 284 351 424 447 373 243 183 197 169 78 24 18
0 0 0 0 0 0 0 0 0 0 0 0 0 0 0 0 0 0 0 0 54 248 470 544 562 493 453 408 350 279 245 248 286 281 257 223 194 167 0 0 8 0
0 0 0 0 0 0 0 0 0 0 0 0 0 0 0 0 0 0 0 0 0 39 260 408 439 429 406 380 341 303 236 208 205 194 187 171 176 61 0 81 0 35
0 0 0 0 0 0 0 0 0 0 0 0 0 0 0 0 0 0 0 0 0 0 193 332 390 370 383 382 381 350 290 234 204 195 197 184 57 0 0 0 0 0
0 0 0 0 0 0 0 0 0 0 0 0 0 0 0 0 0 0 0 0 0 0 133 229 290 296 343 379 398 362 308 264 231 205 183 191 176 171 0 0 29 15

ECMWFNIL_con_mucape_021.txt.gz
CAPE
0 0 0 0 0 0 0 0 0 0 0 0 0 0 0 0 0 0 0 0 0 0 0 0 0 0 0 0 0 0 0 0 0 0 0 0 0 0 0 0 0 0
20 0 0 0 0 0 0 0 0 0 0 0 0 0 0 0 0 0 0 0 0 0 0 0 0 0 0 0 0 0 0 0 0 0 0 0 0 0 0 0 0 0
89 0 0 0 0 0 0 0 0 0 0 0 0 0 0 0 0 0 0 0 0 0 0 0 0 0 0 0 0 0 0 0 0 0 0 0 0 0 0 0 0 0
72 18 0 0 0 0 0 0 0 0 0 0 0 0 0 0 0 0 0 0 0 0 0 0 0 0 0 0 0 0 0 0 0 0 0 0 0 0 0 0 0 0
26 30 10 0 0 0 0 0 0 0 0 0 0 0 0 0 0 0 0 0 0 0 0 0 0 0 0 0 0 0 0 0 0 0 0 0 0 0 0 0 0 0
49 38 7 2 3 0 0 0 0 0 0 0 0 0 0 0 0 0 0 0 0 0 0 0 0 0 0 0 0 0 0 0 0 0 0 0 0 0 0 0 0 0
96 84 38 10 7 0 0 0 0 0 0 0 0 0 0 0 0 0 0 0 0 0 0 0 0 0 0 0 0 0 0 0 0 0 0 0 0 0 0 0 0 0
104 63 48 32 8 0 0 0 0 0 0 0 0 0 0 0 0 0 0 0 0 0 0 0 0 0 0 0 0 0 0 0 0 0 0 0 0 0 0 0 0 0
228 146 93 32 2 1 0 0 0 0 0 0 0 0 0 0 0 0 0 0 0 0 0 0 1 2 0 0 0 0 0 0 0 0 0 0 0 0 0 0 0 0
166 269 178 73 26 0 0 0 0 0 0 0 0 0 0 0 4 6 4 7 7 6 8 11 7 1 0 0 0 0 0 0 0 0 0 0 0 0 0 0 0 0
324 114 136 87 26 3 13 10 0 0 0 0 0 0 0 2 4 1 1 8 15 17 10 10 4 2 0 0 1 1 0 0 0 0 0 0 0 0 0 0 0 0
451 238 114 71 32 29 27 26 11 0 2 1 0 0 0 52 0 0 0 3 4 0 2 1 189 194 181 161 166 37 9 7 0 0 0 16 0 0 0 0 0 0
469 354 70 91 80 49 40 20 10 2 0 0 0 0 30 334 318 254 141 53 214 40 0 0 136 280 296 288 228 191 144 5 10 6 5 6 4 6 100 88 26 0
564 488 447 107 92 80 177 259 423 389 91 2 0 0 317 298 312 328 0 0 205 0 0 56 263 300 361 373 328 285 260 205 9 11 21 11 139 176 70 137 120 64
558 577 524 453 398 333 444 394 398 404 63 177 379 405 397 259 0 44 291 43 0 0 4 43 114 364 406 440 433 397 346 282 193 18 16 7 3 95 184 158 148 115
650 650 604 413 310 321 265 0 0 0 0 438 211 1 315 334 0 111 321 15 10 18 12 172 331 392 447 429 411 415 393 340 268 108 23 15 4 54 203 190 193 183
420 463 486 416 334 266 286 310 0 0 241 0 0 0 0 27 54 31 24 17 149 221 231 271 262 336 376 387 377 347 325 316 273 257 245 35 15 224 246 216 224 237
530 523 493 437 398 310 323 359 307 273 98 0 235 288 0 15 322 360 194 49 282 375 594 555 731 689 635 637 616 606 574 556 519 457 397 341 334 332 327 304 295 271
615 593 534 515 499 526 686 843 942 901 764 653 530 463 398 344 336 397 441 427 426 536 650 735 736 665 618 596 587 629 627 653 634 579 546 540 518 501 461 406 342 274
714 918 976 1000 1068 1135 1085 805 475 398 491 513 411 279 275 268 270 344 506 564 605 585 597 639 604 507 432 434 521 551 549 537 545 595 653 673 663 606 511 410 359 303
0 0 146 184 143 0 0 0 6 174 252 301 260 173 77 130 190 213 324 324 321 361 444 518 530 476 416 431 474 472 485 436 400 384 388 396 440 449 412 328 313 272
0 0 0 0 0 0 0 0 0 40 174 164 54 0 0 0 0 0 0 0 34 78 233 240 265 326 441 501 522 486 392 278 223 223 276 356 408 416 373 330 282 256
0 0 0 0 0 0 0 0 0 0 0 0 0 0 0 0 0 0 0 0 0 0 0 144 222 274 358 397 429 412 322 235 195 187 212 244 276 283 269 270 254 230
0 0 0 0 0 0 0 0 0 0 0 0 0 0 0 0 0 0 0 0 0 0 0 0 0 156 227 292 330 323 287 250 191 140 130 127 145 150 168 184 159 130
0 0 0 0 0 0 0 0 0 0 0 0 0 0 0 0 0 0 0 0 0 0 0 0 0 54 171 211 244 266 277 275 242 150 41 0 0 0 103 112 116 107
0 0 0 0 0 0 0 0 0 0 0 0 0 0 0 0 0 0 0 0 0 0 0 0 0 0 22 127 162 207 235 253 248 200 139 107 96 4 101 15 0 0

ECMWFNIL_con_mucape_024.txt.gz
CAPE
0 0 0 2 24 0 0 0 0 0 0 0 0 0 0 0 0 0 0 0 0 0 0 0 0 0 0 0 0 0 0 0 0 0 0 0 0 0 0 0 0 0
0 1 13 26 7 0 0 0 0 0 0 0 0 0 0 0 0 0 0 0 0 0 0 0 0 0 0 0 0 0 0 0 0 0 0 0 0 0 0 0 0 0
13 23 49 50 10 0 0 0 0 0 0 0 0 0 0 0 0 0 0 0 0 0 0 0 0 0 0 0 0 0 0 0 0 0 0 0 0 0 0 0 0 0
44 0 19 34 5 0 0 0 0 0 0 0 0 0 0 0 0 0 0 0 0 0 0 0 0 0 0 0 0 0 0 0 0 0 0 0 0 0 0 0 0 0
106 55 9 14 19 0 0 0 0 0 0 0 0 0 0 0 0 0 0 0 0 0 0 0 0 0 0 0 0 0 0 0 0 0 0 0 0 0 0 0 0 0
344 192 0 23 28 18 0 0 0 0 0 0 0 0 0 0 0 0 0 0 0 0 0 0 0 0 0 0 0 0 0 0 0 0 0 0 0 0 0 0 0 0
495 280 0 0 17 26 9 0 0 0 0 0 0 0 0 0 0 0 0 0 0 0 0 0 0 0 0 0 0 0 0 0 0 0 0 0 0 0 0 0 0 0
510 273 142 96 63 58 40 29 15 0 0 0 0 0 0 0 0 0 0 0 0 0 0 0 0 0 0 0 0 0 0 0 0 0 0 0 0 0 0 0 0 0
440 185 0 33 58 65 66 59 14 0 0 0 0 0 0 0 0 0 0 0 0 0 0 0 0 0 0 0 0 0 0 0 0 0 0 0 0 0 0 0 0 0
406 210 0 0 4 75 94 94 34 0 0 0 0 0 0 0 0 0 0 0 0 0 0 0 0 0 0 0 0 0 0 0 0 0 0 0 0 0 0 0 0 0
466 126 0 0 10 76 112 76 37 6 1 0 0 0 0 80 111 88 5 0 0 0 0 0 0 0 0 0 0 0 0 0 0 0 0 0 0 0 0 0 0 0
551 278 0 0 64 108 140 68 8 0 0 0 0 0 14 156 177 157 10 0 0 0 2 1 0 1 3 24 0 0 0 0 2 0 45 0 0 0 0 0 0 0
728 446 330 245 214 162 126 52 8 0 0 0 0 0 0 12 59 206 21 6 11 9 7 9 11 12 6 0 0 0 0 0 0 0 0 2 0 0 0 0 0 0
800 693 488 319 229 176 129 52 6 0 0 0 0 0 0 0 169 223 244 42 0 1 16 28 28 10 6 0 0 0 0 188 0 14 6 2 0 0 1 0 0 0
740 701 607 427 350 163 88 23 2 0 0 0 0 5 15 1 2 0 45 198 288 276 248 199 153 120 0 0 27 219 274 324 306 219 165 166 80 12 8 6 2 0
622 628 599 531 437 223 71 31 106 4 0 0 0 79 16 10 192 346 295 208 294 330 286 0 0 0 0 0 0 86 267 298 322 351 356 317 269 221 135 3 1 0
582 621 643 630 591 548 500 485 444 402 464 450 440 347 0 17 6 36 32 3 5 24 9 0 0 2 12 10 226 262 79 155 250 254 224 252 274 252 224 21 0 0
657 640 578 608 628 630 587 534 450 311 202 38 27 9 1 13 47 11 12 6 1 2 14 0 0 118 121 264 394 461 479 479 453 413 376 344 326 311 308 254 162 87
637 629 593 543 510 539 519 482 457 397 328 330 306 160 0 1 8 10 2 0 8 18 19 32 315 487 410 506 492 488 508 541 557 560 548 554 536 478 391 357 353 332
551 557 564 562 566 539 494 465 434 419 404 341 310 211 0 317 246 306 339 322 329 392 384 395 437 431 420 406 397 341 370 390 392 387 398 418 480 516 571 558 529 491
530 700 754 798 761 677 651 677 773 822 662 480 337 366 391 294 364 306 399 456 487 469 476 463 450 451 442 405 325 317 331 314 278 267 261 278 307 319 320 326 326 313
8 218 580 795 880 904 852 762 571 226 140 175 211 216 172 153 237 282 300 329 309 344 341 348 300 125 130 282 324 395 366 316 250 187 158 144 166 194 240 262 266 261
0 0 0 130 163 105 54 127 116 108 144 183 195 176 100 0 0 0 0 0 0 0 0 0 0 0 0 71 236 313 363 295 182 132 104 100 101 104 122 136 158 173
0 0 0 0 0 0 0 16 0 0 0 0 0 0 0 0 0 0 0 0 0 0 0 0 0 0 0 0 14 157 208 216 176 135 117 5 0 0 0 0 0 0
0 0 0 0 0 0 0 0 0 0 0 0 0 0 0 0 0 0 0 0 0 0 0 0 0 0 0 0 0 72 91 156 148 133 130 29 0 0 0 0 0 0
0 0 0 0 0 0 0 0 0 0 0 0 0 0 0 0 0 0 0 0 0 0 0 0 0 0 0 0 0 0 5 128 151 144 141 113 49 0 0 0 0 0

ECMWFNIL_con_mucape_027.txt.gz
CAPE
696 686 602 439 682 503 16 0 0 0 0 0 0 0 0 0 0 0 0 0 0 0 0 0 0 0 0 0 0 0 0 0 0 0 0 0 0 0 0 0 0 0
686 578 435 562 260 0 0 0 0 1 0 0 0 0 0 0 0 0 0 0 0 0 0 0 0 0 0 0 0 0 0 0 0 0 0 0 0 0 0 0 0 0
440 405 402 359 35 0 1 5 0 1 0 0 0 0 0 0 0 0 0 0 0 0 0 0 0 0 0 0 0 0 0 0 0 0 0 0 0 0 0 0 0 0
485 454 271 154 45 3 0 0 0 0 0 0 0 0 0 0 0 0 0 0 0 0 0 0 0 0 0 0 0 0 0 0 0 0 0 0 0 0 0 0 0 0
573 450 376 248 33 0 0 0 0 0 0 0 0 0 0 0 0 0 0 0 0 0 0 0 0 0 0 0 0 0 0 0 0 0 0 0 0 0 0 0 0 0
712 546 550 359 194 59 34 32 0 0 0 0 0 0 3 0 0 0 0 0 0 0 0 0 0 0 0 0 0 0 0 0 0 0 0 0 0 0 0 0 0 0
780 694 370 302 238 275 268 229 190 2 12 0 0 0 1 2 0 0 0 0 0 0 0 1 0 0 0 0 0 0 0 0 0 0 0 0 0 0 0 0 0 0
811 707 628 436 412 327 464 43 243 70 6 0 0 0 0 7 0 8 2 0 0 0 0 0 1 0 0 0 0 0 0 0 0 0 0 0 0 0 0 0 0 0
735 656 616 458 496 474 509 186 31 32 16 0 0 0 0 9 23 8 0 0 0 0 0 0 0 0 0 0 4 0 0 0 0 0 0 0 0 0 0 0 0 0
625 627 600 484 616 655 658 557 354 53 26 7 11 1 0 0 17 6 1 0 2 0 0 0 0 0 0 0 0 0 0 0 0 0 0 0 0 0 0 0 0 0
644 631 617 504 642 710 789 704 374 69 82 39 32 12 0 0 0 3 23 19 40 10 2 0 0 0 0 0 0 0 0 0 0 0 0 0 0 0 0 0 0 0
729 692 585 502 574 654 718 677 386 40 38 35 64 60 161 22 12 18 27 29 42 26 20 9 1 0 0 0 0 0 0 0 0 0 0 0 0 0 0 0 0 0
908 818 701 628 653 664 748 642 314 66 51 47 92 218 252 204 92 88 88 93 90 72 9 6 23 8 10 3 0 0 0 0 0 0 0 0 0 0 0 0 0 0
974 919 795 688 654 613 539 541 496 87 76 217 14 364 342 255 151 112 149 160 163 114 37 10 13 9 68 126 104 88 36 14 18 32 12 8 4 0 0 0 0 0
916 938 861 686 464 402 398 395 79 98 276 472 548 612 548 343 216 98 184 208 211 186 176 106 144 424 86 37 340 22 75 76 59 32 226 241 210 106 0 0 0 0
740 803 770 685 482 462 489 490 228 579 89 62 588 575 481 396 142 0 0 2 176 211 187 181 544 549 202 1 7 6 61 24 11 0 112 241 251 267 271 116 172 5
548 590 627 623 632 574 501 521 550 625 128 610 679 548 550 330 229 130 1 332 354 359 155 553 632 256 0 0 0 0 25 116 45 43 192 192 184 138 181 182 242 263
621 546 547 578 613 649 623 578 526 402 106 623 598 471 351 347 390 510 381 240 464 403 380 192 480 0 0 2 0 0 0 20 118 282 340 357 362 350 337 300 251 246
696 679 692 652 581 580 613 635 603 557 430 197 270 147 313 434 426 360 326 240 57 104 11 223 244 1 6 11 1 124 195 328 475 535 566 554 527 536 519 513 488 373
298 612 714 696 666 639 594 592 580 538 484 412 361 123 208 52 327 20 80 8 24 99 120 7 2 0 0 87 388 397 402 396 400 455 506 518 523 400 447 511 529 467
0 0 253 582 606 611 543 559 557 516 448 388 238 7 122 37 27 33 13 44 129 45 67 90 322 322 356 120 371 364 315 330 293 225 387 505 342 212 194 193 213 264
0 0 0 33 430 776 893 860 743 657 635 531 414 309 132 27 227 314 330 383 395 426 459 433 382 398 410 419 414 336 309 305 178 266 497 374 124 0 0 114 172 216
0 0 0 0 0 147 526 606 612 678 599 554 462 392 311 282 263 318 329 422 372 338 146 78 99 134 154 268 295 328 361 339 305 366 250 31 0 0 0 0 0 120
0 0 0 0 0 0 4 33 25 41 47 143 220 250 228 240 219 156 104 88 16 0 27 190 46 0 0 0 35 299 359 428 429 294 156 0 0 0 0 0 0 0
0 0 0 0 0 0 0 0 0 0 0 0 19 84 83 0 0 0 0 0 0 0 0 46 6 0 0 0 0 0 148 306 221 116 0 0 0 0 0 0 0 0
0 0 0 0 0 0 0 0 0 0 0 0 0 0 0 0 0 0 0 0 0 0 0 0 0 0 0 0 0 0 0 38 71 16 0 0 0 0 0 0 0 0

ECMWFNIL_con_mucape_030.txt.gz
CAPE
1454 1144 970 505 281 234 240 73 0 4 0 6 8 46 39 5 15 0 0 0 0 0 0 4 75 77 9 9 1 0 0 0 0 0 4 13 67 108 132 92 42 0
1412 1124 616 520 444 260 127 56 4 0 0 1 3 10 2 4 8 0 0 0 0 0 0 2 8 0 0 0 0 0 0 0 0 0 0 0 0 5 6 0 0 0
1419 1073 840 785 397 159 58 128 46 1 0 0 0 0 1 8 13 0 0 0 0 0 0 0 0 0 0 0 0 0 0 0 0 0 0 0 0 0 0 0 0 0
1503 1108 1000 554 262 234 290 260 116 1 0 0 0 1 6 16 1 0 0 0 0 0 0 0 0 0 0 0 0 0 0 0 0 0 0 0 0 0 0 0 0 0
1335 941 875 415 321 252 443 396 246 12 0 0 0 0 0 7 2 0 0 0 0 0 0 0 0 0 0 0 0 0 0 0 0 0 0 0 0 0 0 0 0 0
918 571 558 476 113 180 287 340 202 9 0 3 9 0 0 0 0 0 0 0 0 0 0 0 0 0 0 0 0 0 0 0 0 0 0 0 0 0 0 0 0 0
1083 929 609 502 324 284 267 390 213 52 1 0 0 1 0 0 0 0 0 0 0 0 0 0 0 0 0 0 0 0 0 0 0 0 0 0 0 0 0 0 0 0
859 738 713 529 388 282 382 444 36 0 72 0 2 11 4 0 0 0 0 0 0 0 0 0 0 0 0 0 0 0 0 0 0 0 0 0 0 0 0 0 0 0
944 880 893 908 893 646 603 543 218 8 134 245 75 62 14 0 0 0 0 0 0 0 0 0 0 0 0 0 0 0 0 0 0 0 0 0 0 0 0 0 0 0
1002 918 825 999 1109 850 846 657 753 448 0 79 162 83 14 23 15 0 0 0 0 0 2 13 20 35 5 0 0 0 0 0 0 0 0 0 0 0 0 0 0 0
960 971 779 943 956 511 522 856 852 873 262 0 162 311 129 144 58 2 2 0 7 0 4 8 12 10 9 7 11 10 16 27 11 6 7 0 0 0 0 0 0 0
794 817 888 899 789 672 670 660 822 819 922 436 272 372 451 330 225 125 46 32 25 16 14 15 14 19 18 16 19 31 55 97 120 135 114 76 39 32 1 0 0 0
1027 1042 924 834 772 736 736 647 667 883 893 634 534 465 565 511 440 348 273 357 347 311 250 213 175 151 202 202 181 186 204 204 242 218 233 174 173 98 43 36 41 23
1260 1245 1206 1113 948 906 887 880 855 934 1019 824 737 601 628 525 570 610 635 457 518 528 487 539 559 503 488 433 426 518 546 563 565 627 561 598 544 370 294 236 169 118
1056 961 1268 1156 1066 900 811 857 891 1027 1128 1034 1162 982 752 579 612 589 686 518 568 629 685 710 767 718 704 773 716 709 784 803 747 705 766 787 835 831 722 566 450 384
1017 901 919 1170 932 982 960 943 929 1072 1229 1196 1182 1060 1070 848 870 790 699 720 748 814 822 885 950 1075 1089 462 540 797 861 627 875 738 633 759 870 950 1060 968 780 724
947 967 832 1080 846 840 910 944 1039 1167 1214 1212 1144 1104 1135 996 972 923 867 851 923 985 1020 1070 1164 1088 0 0 0 0 341 776 749 736 675 662 826 1078 1154 1113 1079 786
833 788 858 909 863 891 1020 1126 1140 1189 1289 1344 1360 1375 1292 1048 991 944 1031 993 984 1046 1093 1080 1239 581 0 0 0 160 73 468 583 757 929 890 1108 1165 1142 1117 1044 1082
884 1017 990 1034 1004 1016 1196 1241 1072 1020 1072 1138 1179 1183 974 799 926 912 1094 1010 992 925 921 924 1091 483 0 0 0 0 0 0 495 816 884 1213 1237 1238 1229 1178 1147 1016
19 288 828 1028 1065 903 934 1071 1255 1252 1169 819 707 720 631 852 925 988 953 978 897 819 644 620 790 557 0 0 0 0 0 34 614 852 1080 1274 1231 1106 1065 1030 983 912
0 0 0 291 675 803 908 977 1136 1251 1276 1048 866 550 378 625 744 717 710 668 551 576 550 457 652 438 0 0 0 0 6 10 484 783 928 671 665 606 477 358 364 361
0 0 0 0 23 634 851 917 991 1231 1325 908 726 616 437 629 449 590 532 462 548 534 530 571 862 257 0 0 2 17 25 331 795 654 220 322 512 507 463 437 377 303
0 0 0 0 0 0 265 852 1000 1177 1544 1387 1156 980 778 743 810 647 624 711 552 578 743 860 1008 365 273 268 336 338 409 619 461 74 115 272 288 442 373 358 411 346
0 0 0 0 0 0 9 181 570 791 938 1334 1292 1364 1229 1220 1159 937 878 789 807 892 1149 1159 1157 497 450 468 424 428 312 482 68 85 166 299 374 295 137 9 0 0
0 0 0 0 0 0 15 97 270 414 500 830 841 1195 1361 958 624 498 522 748 844 995 616 1280 605 397 376 360 392 405 293 715 102 134 268 220 196 140 61 2 0 0
0 0 0 0 0 0 2 77 217 314 544 594 768 558 864 656 437 373 300 285 224 67 268 434 354 154 0 3 200 300 349 728 223 116 182 221 142 112 35 0 0 0

ECMWFNIL_con_mucape_033.txt.gz
CAPE
940 846 400 135 76 138 159 55 7 26 19 60 285 216 159 54 0 0 0 0 0 0 36 37 12 0 0 0 0 0 0 1 7 39 94 208 268 252 132 0 0 0
1031 1026 445 205 148 176 223 111 52 84 72 98 166 165 52 0 0 0 0 0 0 0 0 2 0 0 0 0 0 0 0 0 0 0 0 0 2 0 0 0 0 0
1184 1042 648 382 361 404 239 161 104 73 45 65 166 52 0 0 0 0 0 0 0 0 0 0 0 0 0 0 0 0 0 0 0 0 0 0 0 0 0 0 0 0
1229 1032 794 670 495 282 163 105 31 4 23 42 34 7 0 0 0 0 0 0 0 0 0 0 0 0 0 0 0 0 0 0 0 0 0 0 0 0 0 0 0 0
1191 1092 1012 661 301 210 314 181 6 0 0 0 7 1 0 0 0 0 0 0 0 0 0 0 0 0 0 0 0 0 0 0 0 0 0 0 0 0 0 0 0 0
1242 1123 748 325 264 389 294 127 0 0 0 4 1 0 0 0 0 0 0 0 0 0 0 0 0 0 0 0 0 0 0 0 0 0 0 0 0 0 0 0 0 0
1240 689 281 129 250 311 274 19 3 0 1 1 0 0 0 0 0 0 0 0 0 0 0 0 0 0 0 0 0 0 0 0 0 0 0 0 0 0 0 0 0 0
1058 884 270 361 397 397 193 62 0 0 0 0 0 0 0 0 0 0 0 0 0 0 0 0 0 0 0 0 0 0 0 0 0 0 0 0 0 0 0 0 0 0
1156 1041 719 549 564 418 309 258 77 0 0 0 0 0 0 0 0 0 0 0 0 0 0 0 0 0 0 0 0 0 0 0 0 0 0 0 0 0 0 0 0 0
1334 1148 807 773 675 451 370 274 196 5 0 0 0 0 0 0 0 0 0 0 0 0 0 0 0 0 0 0 0 0 0 0 0 0 0 0 0 0 0 0 0 0
1347 1126 1100 898 836 523 368 310 272 10 0 0 0 0 0 0 0 0 0 0 0 0 0 0 0 0 0 0 0 0 0 0 0 0 0 0 0 0 0 0 0 0
1146 1067 1064 846 745 616 551 443 354 384 13 8 35 0 0 5 0 0 0 0 0 0 0 2 2 1 4 5 9 17 12 5 1 1 1 0 0 0 0 0 0 0
1146 1070 1125 1101 988 864 863 916 698 643 606 0 13 77 8 2 6 0 0 0 0 0 0 0 1 1 4 10 12 55 172 118 219 166 126 129 47 14 2 1 18 9
1310 1271 1043 1070 954 868 797 983 808 758 900 580 74 17 155 88 65 41 10 3 0 0 0 0 1 3 7 23 64 106 289 348 377 442 345 352 353 237 237 182 158 150
1361 1302 1154 1364 862 1137 1164 1027 989 885 902 933 677 39 38 16 18 20 101 100 87 56 10 5 9 11 9 218 279 347 530 609 655 587 701 696 659 534 513 422 343 409
1221 1268 1211 1031 1128 971 757 790 1002 1166 1210 1043 1020 662 54 39 46 62 62 168 316 389 341 588 528 708 1738 173 563 1011 1009 942 1070 1016 894 1094 964 900 982 833 595 597
992 1197 1115 1082 1199 923 817 1004 833 1011 1195 1318 1185 967 763 514 41 51 63 59 338 572 665 1128 1050 1255 736 491 508 735 1068 1206 1213 984 980 960 1023 976 1102 1194 1280 1027
998 974 954 1048 1047 999 968 1065 1130 1179 1340 1454 1407 1382 1270 1186 920 726 641 305 277 818 973 1282 1430 1178 857 670 500 638 814 1283 1051 946 848 922 866 528 754 875 808 613
980 1041 1065 1092 1087 1086 1039 1511 1439 1482 1477 1471 1401 1383 1389 1393 1260 1152 1092 1006 790 790 1021 1231 1231 795 1035 773 170 0 364 501 895 903 725 829 610 609 737 935 639 215
91 446 897 1145 1106 1171 1098 1332 1494 1535 1552 1547 1435 1121 1101 1336 1385 1290 1245 1362 1294 1072 1095 1347 1037 672 804 558 145 0 0 9 320 554 800 971 1034 900 808 759 488 300
0 0 11 166 455 606 802 1003 1376 1508 1604 1453 1272 1322 1193 977 966 949 1129 1130 1092 1125 1252 1223 1254 858 724 589 350 0 99 57 157 468 948 1370 919 509 2 225 290 675
0 0 0 0 0 252 463 451 674 1287 1576 1614 1472 1294 1101 920 845 960 1032 996 1042 1038 1079 1095 1903 932 714 528 456 412 124 97 258 653 1060 1124 663 582 368 198 198 216
0 0 0 0 0 0 1 225 552 1025 1342 1438 1389 1224 1207 1076 1009 892 776 882 799 952 957 970 1403 763 588 470 398 22 14 12 524 602 701 418 529 408 130 10 200 278
0 0 0 0 0 0 1 28 130 267 493 1272 1412 1374 1179 1120 1069 921 912 821 747 886 877 854 1150 701 527 448 355 42 0 451 428 525 373 3 322 141 109 222 0 0
0 0 0 0 0 0 1 10 8 19 73 192 744 1174 1325 1279 1173 1093 1120 1190 1238 1229 1284 1088 1111 916 887 735 461 102 203 503 815 187 42 12 18 117 131 24 0 0
0 0 0 0 0 0 0 0 4 5 42 81 263 389 580 916 1120 1165 1278 1239 1334 1346 1365 1024 840 729 771 546 462 453 449 555 508 86 116 323 52 147 36 37 0 0

ECMWFNIL_con_mucape_036.txt.gz
CAPE
1222 1001 919 662 696 798 664 558 561 342 926 746 929 648 430 130 73 54 85 75 120 302 165 52 78 102 22 13 108 43 163 479 532 580 624 509 371 92 2 0 0 0
1299 1232 577 664 798 629 748 904 452 676 804 1004 727 504 96 26 34 50 4 5 67 108 103 116 76 22 0 0 8 13 0 23 0 69 164 9 1 10 11 5 2 2
1444 1325 708 885 863 908 739 643 668 774 464 841 572 187 36 4 0 5 20 14 28 74 124 34 0 0 0 0 0 0 10 0 0 0 0 0 1 0 0 0 4 3
1460 1380 988 1238 1019 823 718 602 459 388 753 546 326 117 13 0 12 0 0 2 0 0 0 0 2 0 0 0 0 0 0 0 0 0 0 5 1 38 97 87 14 0
1366 1309 1242 1102 809 614 502 442 249 392 409 502 282 65 6 2 0 0 0 0 0 0 0 0 0 0 0 0 0 0 0 0 0 0 0 0 0 16 42 82 22 1
1364 1151 951 673 571 589 594 357 158 158 306 346 254 37 3 0 0 0 0 0 0 0 0 0 0 0 0 0 0 0 0 0 0 0 0 0 0 0 1 10 5 15
1357 1258 850 516 604 711 496 280 116 93 311 259 18 95 0 0 0 0 0 0 0 0 0 0 0 0 0 0 0 0 0 0 0 0 0 0 0 0 0 0 0 0
1343 1054 566 590 703 580 469 281 170 164 334 49 54 7 0 0 0 0 0 0 0 0 0 0 0 0 0 0 0 0 0 0 0 0 0 0 1 0 0 0 24 0
1081 623 388 564 623 527 335 274 249 244 107 179 60 0 0 0 0 0 0 0 0 0 0 0 0 0 0 0 0 0 0 0 0 0 0 3 0 0 0 2 0 0
1119 592 362 268 266 522 383 308 265 177 27 98 4 0 0 0 0 0 0 0 0 0 0 0 0 0 0 0 0 0 0 0 0 0 0 0 0 0 0 0 0 0
1190 991 560 477 473 531 732 376 288 154 7 4 140 1 0 6 0 0 0 0 0 0 0 0 0 0 0 0 0 0 0 0 0 0 0 0 0 0 0 0 0 0
1174 822 1012 926 732 557 549 737 274 219 103 36 18 4 20 21 0 0 0 0 0 0 0 0 0 0 0 0 0 1 1 0 1 0 0 0 0 0 0 54 1 9
894 820 843 893 1005 949 894 794 309 556 130 45 102 3 100 44 0 0 0 0 0 0 0 0 0 0 0 1 0 1 4 5 122 26 59 30 4 0 0 14 20 42
694 792 894 1005 1102 1100 1029 781 792 880 282 169 58 160 53 3 3 0 0 1 0 0 0 0 18 0 0 67 49 103 210 181 230 265 67 211 166 50 40 21 92 135
778 951 1082 1083 1128 1082 956 1002 962 907 718 369 613 627 371 42 89 40 6 0 2 0 15 5 49 13 24 41 123 74 364 402 441 408 460 334 414 318 397 312 206 279
930 1117 1233 1255 1230 1231 1219 992 640 542 492 362 330 561 550 169 162 140 95 18 40 85 58 307 200 234 151 9 20 342 306 281 665 663 548 573 528 489 556 524 860 600
1035 1140 1173 1154 1177 1158 1063 732 735 629 396 389 573 764 788 982 375 297 225 127 46 166 325 377 615 734 0 0 0 13 461 626 622 795 837 811 927 947 1132 1315 581 436
708 897 1123 992 890 848 976 735 656 621 861 757 804 919 936 972 701 732 425 371 204 192 339 590 490 824 758 498 71 0 319 874 994 1076 1046 1088 950 733 475 118 182 478
689 645 573 945 889 812 905 833 686 721 720 762 705 721 776 1078 886 953 1070 1075 882 645 630 706 755 770 751 833 669 356 206 661 908 1124 1025 912 978 612 466 239 516 443
320 590 628 542 758 971 804 645 785 516 600 690 634 662 831 821 1174 1239 1244 1170 1058 938 728 839 734 657 746 745 771 737 524 437 682 881 927 1054 736 566 487 406 297 326
0 0 0 79 328 657 685 804 756 737 778 768 658 866 863 800 1035 1028 1087 1025 1014 1166 1118 820 865 702 623 680 734 809 764 615 472 487 506 605 503 356 289 335 472 344
0 0 0 0 0 34 244 320 646 1129 1111 1170 1131 1206 1198 1321 1077 978 1108 1084 1136 1211 1160 1071 953 788 700 675 704 766 846 698 438 23 74 305 688 339 317 348 235 348
0 0 0 0 0 0 7 86 376 652 888 974 827 768 999 1085 930 906 891 1012 1086 1074 1010 1213 1092 944 853 780 824 814 749 588 390 94 88 197 628 351 421 415 324 392
0 0 0 0 0 0 1 27 12 25 191 893 949 921 1054 927 1037 987 770 743 830 787 934 998 850 823 855 841 806 842 808 724 615 499 414 316 121 29 162 323 3 0
0 0 0 0 0 0 0 0 6 22 4 20 344 777 800 971 734 628 717 748 796 857 812 736 595 593 791 721 731 774 705 634 526 435 316 518 384 298 134 0 0 0
0 0 0 0 0 0 0 0 0 0 0 2 5 2 82 487 703 696 774 781 747 874 863 652 569 580 569 812 832 765 678 582 482 417 363 290 244 20 94 0 0 0

ECMWFNIL_con_mucape_039.txt.gz
CAPE
416 284 17 13 20 16 38 5 27 0 49 36 206 22 0 0 0 0 0 1 0 0 0 0 0 0 0 0 241 284 323 425 412 312 242 194 255 446 618 541 476 391
409 234 62 42 37 87 90 1 0 92 83 16 0 0 0 0 0 0 0 0 0 0 0 0 0 0 0 0 0 167 249 220 17 0 0 0 0 0 0 0 0 0
446 42 33 47 4 2 5 13 63 21 2 0 0 0 0 0 0 0 0 0 0 1 0 0 0 0 0 0 0 0 0 0 0 0 0 0 0 0 0 0 0 0
492 2 44 60 11 0 0 0 4 5 0 0 0 0 0 0 0 0 3 40 0 0 0 0 0 0 0 0 0 0 0 0 0 0 0 0 0 0 0 0 0 0
502 76 229 105 3 0 0 0 0 0 0 0 0 0 0 0 0 0 0 0 0 0 0 0 0 0 0 0 0 0 0 0 0 0 0 0 0 0 0 0 0 0
536 243 233 20 0 0 0 0 0 0 0 0 0 0 0 0 0 0 0 0 0 0 0 0 0 0 0 0 0 0 0 0 0 0 0 0 0 0 0 0 0 0
582 433 129 4 1 0 0 0 0 0 0 0 0 0 0 0 0 0 0 0 0 0 0 0 0 0 0 0 0 0 0 0 0 0 0 0 0 0 0 0 0 0
529 425 284 217 166 168 1 0 0 0 0 0 0 0 0 0 0 0 0 0 0 0 0 0 0 0 0 0 0 0 0 0 0 0 0 0 0 0 0 0 0 0
446 453 415 370 359 142 11 0 43 139 0 0 0 0 0 0 0 0 0 0 0 0 0 0 0 0 0 0 0 0 0 0 0 0 0 0 0 0 0 0 0 0
414 401 476 536 388 128 14 72 186 190 90 0 0 0 0 0 0 0 0 0 0 0 0 0 0 0 0 0 0 0 0 0 0 0 0 0 0 0 0 0 0 0
270 104 287 476 147 105 77 212 250 206 92 0 0 0 0 0 0 0 0 0 0 0 0 0 0 0 0 0 0 0 0 0 0 0 0 0 0 0 0 0 0 0
283 113 181 231 86 133 190 274 245 190 55 0 0 0 0 0 0 0 0 0 0 0 0 0 0 0 0 0 0 0 0 0 0 0 0 0 0 0 0 0 0 0
384 311 233 139 249 255 264 317 256 197 96 0 0 0 0 0 0 0 0 0 0 0 0 0 0 0 0 0 0 0 0 0 0 0 0 0 0 0 0 0 0 0
3 255 196 380 374 558 514 281 270 257 103 40 0 0 0 0 0 0 0 0 0 0 0 0 0 0 0 0 0 0 0 0 0 0 0 0 0 0 0 0 0 0
35 282 458 615 415 446 618 433 380 311 227 168 173 226 0 0 0 0 0 0 0 0 0 0 0 0 0 0 0 0 0 0 0 0 0 0 0 0 0 0 0 0
428 496 520 623 494 410 477 505 345 336 330 260 201 340 143 135 0 0 0 0 0 0 0 0 0 0 0 0 0 0 0 0 37 1 5 1 0 0 0 0 0 0
186 436 532 529 526 479 416 432 400 369 382 319 223 386 526 509 399 39 0 0 0 0 9 0 1 0 0 0 0 0 0 0 32 60 28 29 0 0 260 293 26 0
37 114 154 412 532 276 444 353 305 508 459 478 381 500 455 404 686 476 338 136 0 0 29 79 52 0 0 0 0 0 8 23 44 397 424 508 460 354 333 112 12 0
228 80 141 274 367 288 16 1 65 646 756 624 547 476 409 412 490 591 709 863 272 0 5 103 128 503 401 29 0 0 212 633 630 571 683 605 642 684 629 538 256 0
0 2 5 50 253 213 206 200 467 621 638 694 694 700 647 577 547 581 717 877 777 577 443 431 359 544 554 618 610 385 296 123 785 988 906 850 784 752 716 639 432 12
0 0 0 0 0 198 271 232 561 546 484 528 555 574 581 542 539 616 673 790 804 740 740 662 582 537 554 554 599 667 686 665 547 678 857 906 858 860 778 757 672 610
0 0 0 0 0 0 0 0 145 438 523 512 425 210 180 403 482 479 571 764 887 876 834 832 821 761 723 668 630 594 538 452 467 486 484 532 577 570 406 487 467 477
0 0 0 0 0 0 0 0 0 2 328 398 7 0 98 46 0 230 559 732 845 927 870 886 956 1000 964 888 788 686 614 556 461 479 523 508 452 403 355 334 327 149
0 0 0 0 0 0 0 0 0 0 0 22 5 238 0 250 371 416 549 595 730 764 855 923 973 1043 1065 1061 1020 950 831 743 644 601 654 661 536 380 227 192 275 5
0 0 0 0 0 0 0 0 0 0 0 0 0 0 0 241 400 391 516 754 807 792 765 839 870 896 920 942 918 880 851 841 826 741 696 662 570 459 223 120 272 67
0 0 0 0 0 0 0 0 0 0 0 0 0 0 0 0 0 274 499 595 679 731 746 685 672 708 692 668 620 528 484 544 656 716 729 716 669 550 399 289 0 0

ECMWFNIL_con_mucape_042.txt.gz
CAPE
354 326 297 0 0 212 293 329 303 0 0 10 0 0 0 0 0 0 0 0 0 0 0 114 277 258 307 341 449 560 591 492 460 499 555 463 341 344 274 300 427 453
446 422 99 0 75 342 342 300 272 268 0 223 47 0 0 0 0 0 0 0 0 0 0 0 0 0 0 180 379 483 480 511 503 454 418 405 430 480 441 199 151 238
468 368 0 0 0 0 0 26 274 270 41 237 0 0 0 0 0 0 0 0 0 0 0 0 0 0 0 106 248 249 288 304 0 0 0 0 0 0 0 135 174 288
346 294 0 0 0 0 0 119 56 260 217 239 32 0 0 0 0 0 0 4 0 0 0 0 0 0 0 0 0 0 0 0 0 0 0 0 0 0 0 0 0 0
358 373 0 0 0 0 0 0 60 260 223 217 188 50 0 0 0 0 0 0 0 0 0 0 0 0 0 0 0 0 0 0 0 0 0 0 0 0 0 0 0 0
467 433 0 0 0 0 0 0 7 29 0 200 197 10 0 0 0 0 0 0 0 0 0 0 0 0 0 0 0 0 0 0 0 0 0 0 0 0 0 0 0 0
384 381 0 0 0 0 0 0 0 0 0 104 5 0 0 0 0 0 0 0 0 0 0 0 0 0 0 0 0 0 0 0 0 0 0 0 0 0 0 0 0 0
15 213 0 0 0 0 0 140 148 0 0 0 0 0 0 0 0 0 0 0 0 0 0 0 0 0 0 0 0 0 0 0 0 0 0 0 0 0 0 0 0 0
0 0 0 0 0 0 0 0 0 0 9 108 0 0 0 0 0 0 0 0 0 0 0 0 0 0 0 0 0 0 0 0 0 0 0 0 0 0 0 0 0 0
268 0 220 182 9 145 127 0 0 18 182 84 0 0 0 0 0 0 0 0 0 0 0 0 0 0 0 0 0 0 0 0 0 0 0 0 0 0 0 0 0 0
383 86 209 300 275 312 0 0 0 33 142 83 0 0 0 0 0 0 0 0 0 0 0 0 0 0 0 0 0 0 0 0 0 0 0 0 0 0 0 0 0 0
3 213 181 224 285 76 0 0 11 126 122 77 0 0 0 0 0 0 0 0 0 0 0 0 0 0 0 0 0 0 0 0 0 0 0 0 0 0 0 0 0 0
160 194 214 200 90 1 215 17 71 141 140 74 0 0 0 0 0 0 0 0 0 0 0 0 0 0 0 0 0 0 0 0 0 0 0 0 0 0 0 0 0 0
289 234 132 121 30 0 272 8 173 174 117 42 0 0 0 0 0 0 0 0 0 0 0 0 0 0 0 0 0 0 0 0 0 0 0 0 0 0 0 0 0 0
239 167 23 0 0 0 70 103 188 156 88 0 0 1 0 0 0 0 0 0 0 0 0 0 0 0 0 0 0 0 0 0 0 0 0 0 0 0 0 0 0 0
0 0 0 0 0 77 127 150 181 198 148 70 91 135 25 0 0 0 0 0 0 0 0 0 0 0 0 0 0 0 0 0 0 0 0 0 0 0 0 0 0 0
0 77 0 0 14 228 0 0 0 210 201 140 198 237 178 252 269 0 0 0 0 0 0 0 0 0 0 0 0 0 0 0 0 0 0 0 0 0 0 0 0 0
0 0 0 0 41 197 4 120 3 163 267 203 171 168 210 196 294 327 386 280 0 0 0 0 0 0 0 0 0 0 0 0 0 0 0 0 0 0 0 0 0 0
93 177 170 174 78 197 0 205 326 86 0 113 195 188 322 298 310 336 404 516 583 223 0 0 0 0 0 0 0 0 0 0 0 0 0 0 0 0 0 0 0 0
26 24 5 27 0 35 0 0 0 0 0 0 163 170 331 512 501 487 487 528 613 626 399 0 0 0 4 0 0 0 0 0 0 0 0 0 0 0 0 0 0 0
0 0 0 0 0 0 0 0 0 0 43 0 0 0 53 68 495 576 569 553 583 685 720 641 376 64 58 0 0 0 0 0 0 0 0 0 0 0 33 334 367 393
0 0 0 0 0 0 0 0 0 0 0 0 88 141 189 243 194 242 306 382 461 564 774 812 781 667 532 467 342 302 0 0 362 590 553 406 340 423 411 523 597 605
1 0 0 0 0 0 0 0 0 0 0 0 0 0 0 0 0 0 119 146 223 516 711 838 898 911 856 793 707 645 625 613 572 524 622 764 850 786 754 472 564 726
0 0 0 0 0 0 0 0 0 0 0 0 0 0 0 0 0 0 0 0 0 71 457 655 779 864 915 924 950 951 895 818 735 653 580 519 527 462 270 583 529 494
0 0 0 0 0 0 0 0 0 0 0 0 0 0 0 0 0 0 0 0 0 0 0 214 512 714 799 959 1000 1026 1038 1031 1004 958 908 856 815 792 654 419 124 416
0 0 0 0 0 0 0 0 0 0 0 0 0 0 0 0 0 0 0 0 0 0 0 0 11 449 729 870 988 987 972 960 930 873 796 742 692 676 387 371 410 449

ECMWFNIL_con_mucape_045.txt.gz
CAPE
678 722 255 420 598 556 368 282 267 232 188 178 158 132 129 0 0 0 0 0 0 0 120 306 321 332 359 370 406 417 380 377 341 411 430 397 298 235 251 434 540 618
690 283 157 246 372 296 177 233 271 240 217 56 0 0 0 0 0 0 0 0 0 0 0 0 0 120 326 356 399 439 390 300 352 442 482 346 217 227 256 315 474 597
250 188 209 193 169 188 167 248 282 300 241 0 0 0 0 0 0 0 0 0 0 0 0 0 0 0 0 0 355 452 416 312 331 337 304 261 215 32 194 371 436 448
397 422 439 271 160 164 317 401 356 304 260 0 0 0 0 0 0 0 0 0 0 0 0 243 0 0 0 0 294 344 392 348 198 0 0 56 172 289 48 0 304 399
487 492 488 92 160 347 419 376 284 329 301 239 0 0 0 0 0 0 0 0 0 0 0 39 152 0 0 0 224 229 240 63 0 0 0 0 0 0 0 0 0 179
530 449 358 0 268 368 272 218 273 336 286 233 0 0 0 0 0 0 0 0 0 0 0 0 0 0 0 0 0 0 0 0 0 0 0 0 0 0 0 0 0 0
418 336 316 0 0 0 0 137 203 266 268 10 0 0 0 0 0 0 0 0 0 0 0 0 0 0 0 0 0 0 0 0 0 0 0 0 0 0 0 0 0 0
0 0 0 0 0 0 0 0 0 229 260 0 0 0 0 0 0 0 0 0 0 0 0 0 0 0 0 0 0 0 0 0 0 0 0 0 0 0 0 0 0 0
253 0 0 0 0 0 0 0 0 0 0 8 125 0 0 0 0 0 0 0 0 0 0 0 0 0 0 0 0 0 0 0 0 0 0 0 0 0 0 0 0 0
216 0 0 0 0 0 0 0 0 0 0 13 145 0 0 0 0 0 0 0 0 0 0 0 0 0 0 0 0 0 0 0 0 0 0 0 0 0 0 0 0 0
0 0 0 0 41 18 34 33 0 0 0 0 114 84 0 0 0 0 0 0 0 0 0 0 0 0 0 0 0 0 0 0 0 0 0 0 0 0 0 0 0 0
31 0 0 54 87 100 124 0 0 0 0 0 87 0 0 0 0 0 0 0 0 0 0 0 0 0 0 0 0 0 0 0 0 0 0 0 0 0 0 0 0 0
173 30 38 83 105 136 29 0 0 0 0 0 0 0 0 0 0 0 0 0 0 0 0 0 0 0 0 0 0 0 0 0 0 0 0 0 0 0 0 0 0 0
111 0 101 34 13 101 0 25 0 0 0 0 0 0 0 0 0 0 0 0 0 0 0 0 0 0 0 0 0 0 0 0 0 0 0 0 0 0 0 0 0 0
1 6 0 64 46 4 0 28 6 0 0 0 52 0 0 0 0 0 0 0 0 0 0 0 0 0 0 0 0 0 0 0 0 0 0 0 0 0 0 0 0 0
0 0 4 69 30 20 28 32 8 0 0 66 55 0 0 0 0 0 0 0 0 0 0 0 0 0 0 0 0 0 0 0 0 0 0 0 0 0 0 0 0 0
109 1 10 4 18 84 87 79 0 0 0 37 35 0 0 0 0 0 0 0 0 0 0 0 0 0 0 0 0 0 0 0 0 0 0 0 0 0 0 0 0 0
122 37 9 11 0 78 64 138 18 0 7 30 14 55 50 0 93 135 188 69 0 0 0 0 0 0 0 0 0 0 0 0 0 0 0 0 0 0 0 0 0 0
170 126 53 0 0 1 158 0 0 0 0 0 0 143 47 147 0 135 201 234 316 16 0 0 0 0 0 0 0 0 0 0 0 0 0 0 0 0 0 0 0 0
83 71 48 12 5 4 35 202 0 0 0 0 0 0 0 0 262 131 238 265 274 348 328 0 0 0 0 0 0 0 0 0 0 0 0 0 0 0 0 0 0 0
0 0 0 0 5 4 0 0 0 122 0 76 0 0 0 0 160 238 231 273 305 324 354 412 456 84 54 0 0 0 0 0 0 0 0 0 0 0 0 0 0 0
0 0 0 0 4 8 0 0 6 20 9 41 1 2 0 126 133 113 196 231 246 246 263 304 413 534 552 362 0 0 0 0 0 0 0 0 0 0 0 0 0 0
0 0 0 0 0 0 0 0 0 0 1 0 0 0 0 0 152 151 125 131 172 208 212 217 206 414 556 640 648 518 131 86 0 0 0 0 0 0 0 0 0 0
0 0 0 0 0 0 0 0 2 13 12 14 2 0 0 0 0 0 0 0 17 131 178 201 206 229 362 537 664 703 728 690 560 421 343 314 333 321 281 271 314 342
0 0 2 4 4 8 8 6 2 3 5 7 11 11 10 8 3 0 0 0 0 0 0 0 110 195 236 325 457 588 648 658 711 692 737 781 752 720 667 541 259 438
0 0 0 0 0 2 2 2 2 2 4 4 2 1 0 0 0 0 0 0 0 0 0 0 0 0 32 217 309 380 455 500 581 607 659 738 830 859 871 728 624 622

ECMWFNIL_con_mucape_048.txt.gz
CAPE
1501 1221 697 455 458 401 380 338 286 245 215 63 0 0 0 0 0 0 0 0 0 0 180 241 13 279 331 422 500 578 608 693 722 777 821 797 658 527 385 273 367 459
1537 1370 994 578 538 460 355 294 210 0 0 0 0 0 0 0 0 0 0 0 0 0 0 0 0 252 276 337 364 434 482 482 495 490 556 563 539 432 285 241 295 456
1556 1339 1011 636 608 565 425 282 192 0 0 0 0 0 0 0 0 0 0 0 0 0 0 0 0 0 234 256 296 352 353 344 317 325 380 452 421 335 216 240 312 509
1211 1038 784 531 564 592 436 264 52 0 0 0 0 0 0 0 0 0 0 0 0 0 0 0 0 0 0 58 244 351 379 324 290 328 371 352 267 182 192 242 316 498
758 645 305 285 369 426 211 0 0 0 0 0 0 0 0 0 0 0 0 0 0 0 0 0 0 0 0 0 0 89 321 354 271 233 182 198 223 201 132 238 370 459
482 76 262 294 198 187 0 0 0 0 0 0 0 0 0 0 0 0 0 0 0 0 0 0 0 0 0 0 0 0 43 128 0 0 0 0 29 160 199 117 337 461
298 367 424 310 163 11 74 314 334 0 0 0 0 0 0 0 0 0 0 0 0 0 0 0 0 0 0 0 0 0 0 0 0 0 0 0 0 0 45 94 129 317
449 437 442 231 0 7 324 334 0 0 0 0 0 0 0 0 0 0 0 0 0 0 0 0 0 0 0 0 0 0 0 0 0 0 0 0 0 0 0 0 119 153
530 502 401 0 0 265 154 0 0 0 0 0 0 0 0 0 0 0 0 0 0 0 0 0 0 0 8 0 0 0 0 0 0 0 0 0 0 0 0 0 0 113
602 505 320 0 0 0 0 0 0 0 0 0 0 0 0 0 0 0 0 0 0 0 0 0 0 0 0 0 0 0 0 0 0 0 0 0 0 0 0 0 0 47
589 429 267 0 0 0 0 0 0 0 0 0 0 0 0 0 0 0 0 0 0 0 0 0 0 0 0 0 0 0 0 0 0 0 0 0 0 0 0 0 0 24
515 404 278 100 0 0 0 0 0 0 0 0 0 0 0 0 0 0 0 0 0 0 0 0 0 0 0 0 0 0 0 0 0 0 0 0 0 0 0 0 0 0
248 314 284 112 0 0 0 0 0 0 0 0 0 0 0 0 0 0 0 0 0 0 0 0 0 0 0 0 0 0 0 0 0 0 0 0 0 0 0 0 0 0
0 171 208 122 29 34 37 14 0 0 0 0 0 0 0 0 0 0 0 0 0 0 0 0 0 0 0 0 0 0 0 0 0 0 0 0 0 0 0 0 0 0
69 200 151 67 30 6 4 0 0 0 0 0 0 0 0 0 0 0 0 0 0 0 0 0 0 0 0 0 0 0 0 0 0 0 0 0 0 0 0 0 0 0
98 71 42 0 0 0 0 10 1 0 4 0 0 0 0 0 0 0 0 0 0 0 0 0 0 0 0 0 0 0 0 0 0 0 0 0 0 0 0 0 0 0
81 1 2 0 1 10 16 4 10 12 16 9 0 0 0 0 0 0 0 0 0 0 0 0 0 0 0 0 0 0 0 0 0 0 0 0 0 0 0 0 0 0
30 1 1 0 4 0 0 6 11 19 25 27 18 0 0 0 0 0 0 0 0 0 0 0 0 0 0 0 0 0 0 0 0 0 0 0 0 0 0 0 0 0
48 0 0 0 0 0 2 0 0 15 21 24 23 0 0 0 0 0 0 0 0 7 8 8 0 0 0 0 0 0 0 0 0 0 0 0 0 0 0 0 0 0
21 41 8 0 7 7 2 4 6 9 7 4 0 0 0 0 0 0 0 0 0 136 162 231 151 64 65 0 0 0 0 0 0 0 0 0 0 0 0 0 0 0
68 85 27 14 9 22 37 86 90 47 0 0 0 0 0 0 0 91 16 0 48 80 124 160 196 197 172 163 166 118 0 0 0 0 0 0 0 0 0 0 0 0
8 20 20 24 3 6 6 9 87 101 10 0 0 0 0 0 0 0 84 104 100 94 92 96 116 191 262 266 288 290 281 199 44 0 0 0 0 0 0 0 0 0
1 4 10 26 14 7 6 13 40 90 109 77 0 0 0 0 0 0 0 54 93 114 124 98 92 98 116 183 275 347 370 407 414 387 217 57 0 0 0 0 0 0
0 0 0 0 1 2 6 0 0 0 0 3 0 0 0 2 1 0 46 90 112 109 99 91 78 68 70 79 89 183 309 412 473 483 520 511 510 415 255 0 0 0
0 0 0 0 0 0 1 2 5 9 11 18 13 10 0 0 8 6 0 0 0 14 68 66 0 45 63 116 143 148 160 202 312 462 521 546 573 581 559 552 576 578
0 0 0 0 0 0 0 0 0 0 0 0 3 2 1 0 0 0 0 0 0 0 0 0 0 0 0 0 0 0 0 6 16 143 214 385 538 557 501 464 408 312

ECMWFNIL_con_mucape_051.txt.gz
CAPE
1092 916 828 930 1101 953 931 1039 1205 1315 1204 1035 691 752 559 1152 357 356 294 339 531 589 686 923 904 1046 992 1074 1078 784 1152 1241 1183 1074 744 727 782 772 880 686 751 925
951 719 717 719 595 551 877 1093 1028 1215 1144 1146 1036 907 775 630 390 263 250 410 471 614 691 844 925 1013 1070 971 1158 1288 1204 1157 1336 711 1156 847 811 773 897 889 732 753
1058 740 604 508 563 666 784 842 928 1003 930 714 579 604 500 450 285 103 116 318 541 622 747 830 902 909 928 921 952 930 900 1028 961 883 992 1062 804 863 959 548 564 517
1295 1221 896 484 529 518 460 463 522 511 439 295 384 369 354 202 195 128 209 131 450 468 512 658 774 640 611 665 789 760 699 772 751 769 909 818 832 853 771 404 417 434
1393 1340 1186 748 361 348 402 536 447 414 465 539 306 196 179 140 108 71 119 216 360 313 313 254 264 358 344 453 536 610 385 426 109 426 836 903 652 736 625 439 484 665
1333 1162 1030 793 415 360 467 588 443 379 330 292 330 192 237 173 88 39 78 154 197 228 188 119 57 31 52 74 112 169 88 48 6 34 201 438 336 448 368 604 586 760
752 753 740 526 430 406 536 534 423 328 344 353 151 194 111 95 46 9 1 24 55 76 126 172 63 5 0 3 0 11 3 3 0 0 1 24 62 127 212 502 593 756
544 507 362 277 336 389 411 293 304 315 236 113 208 46 93 56 28 5 0 0 0 1 21 17 26 7 0 0 0 36 10 0 0 0 0 0 1 4 158 258 601 702
367 193 254 201 230 259 252 150 137 96 32 173 97 29 43 50 12 0 0 0 0 0 0 0 2 5 7 7 20 18 2 0 0 0 0 1 1 0 5 139 438 660
31 305 311 197 115 93 61 5 2 2 4 81 53 54 11 0 0 0 0 0 0 0 0 0 0 0 0 0 0 0 0 0 0 0 0 0 0 0 0 57 500 638
257 355 341 138 37 2 0 0 0 0 0 0 13 44 1 0 0 0 0 0 0 0 0 0 0 0 0 0 0 0 0 0 0 0 0 0 0 0 0 12 230 685
432 421 366 173 3 0 0 0 0 0 0 0 0 0 0 0 0 0 0 0 0 0 0 0 0 0 0 0 0 0 0 0 1 1 0 0 0 0 0 0 57 294
568 485 413 294 54 5 5 0 0 0 0 0 0 0 0 0 0 0 0 0 0 0 0 0 0 0 0 0 0 0 0 0 1 8 4 6 0 0 0 0 0 14
596 584 494 304 0 3 21 38 5 0 0 0 0 0 0 0 0 0 0 0 0 0 0 0 0 0 0 0 0 0 0 0 0 1 0 24 25 1 0 0 0 0
403 372 422 309 34 0 0 1 20 66 22 0 5 0 0 0 0 0 0 0 0 0 0 0 0 0 0 0 0 0 0 0 0 0 0 2 25 6 0 0 0 0
1 0 0 101 0 0 0 0 0 0 0 0 0 18 11 1 0 0 0 0 0 0 0 0 0 0 0 0 0 0 0 0 0 1 0 0 5 37 31 5 6 48
0 0 0 0 0 0 7 1 0 0 0 0 0 0 0 0 0 0 0 0 0 0 0 0 0 0 0 0 0 0 0 6 4 14 23 32 66 61 76 183 129 25
54 63 9 45 1 35 12 2 1 0 0 0 0 0 1 4 4 4 0 0 0 0 0 0 1 0 0 0 0 0 0 0 1 15 43 65 78 87 167 223 284 324
0 0 62 77 58 7 8 3 6 6 2 0 0 0 0 2 0 0 0 0 0 0 0 0 0 0 0 0 0 0 0 0 0 0 0 36 82 160 226 279 396 395
33 13 0 0 8 5 4 7 4 3 4 12 12 6 1 1 0 0 0 0 0 0 0 0 0 0 0 0 0 0 0 0 0 0 0 2 18 71 154 206 290 230
6 14 2 2 3 0 0 0 0 0 0 0 0 0 1 2 0 0 0 0 0 0 0 0 0 0 0 0 0 0 0 0 0 0 0 4 22 34 33 82 144 188
14 14 27 28 18 12 1 0 0 0 0 0 0 0 0 7 0 0 0 0 0 0 0 0 0 0 0 0 0 0 0 0 7 19 13 0 2 14 3 14 13 27
14 12 9 10 14 12 5 6 9 7 0 0 2 3 1 0 0 0 0 0 0 0 0 0 0 0 0 0 0 0 0 0 16 91 269 368 344 170 100 34 25 20
5 6 8 7 6 7 9 8 5 2 8 2 0 6 13 13 0 0 0 0 0 0 0 0 0 0 0 0 0 0 0 0 0 0 160 208 269 288 282 346 375 274
0 0 0 0 0 0 0 1 6 7 11 3 4 7 6 5 0 0 0 0 0 0 0 0 0 0 0 0 0 0 0 0 0 0 0 0 0 145 272 324 395 444
0 0 1 0 0 0 0 0 0 0 0 0 0 0 0 0 0 0 0 0 0 0 0 0 0 0 0 0 0 0 0 0 0 0 0 0 0 0 0 0 15 362

ECMWFNIL_con_mucape_054.txt.gz
CAPE
794 1333 1699 1450 1307 1168 1130 973 758 764 628 602 556 596 572 593 737 717 646 696 550 540 579 618 547 564 537 935 1712 1170 1167 1312 1201 1080 964 822 842 786 814 690 951 504
757 1241 1704 1761 1432 1257 1191 993 838 684 635 527 524 509 541 612 698 591 598 670 568 507 538 622 513 493 462 404 1225 1231 1330 1497 1514 1140 1110 1142 1084 977 862 851 952 516
812 1334 1655 1754 1603 1573 1263 946 765 726 676 774 610 513 591 612 647 645 686 588 424 505 506 443 385 263 254 319 602 680 953 1657 1590 1414 1278 1112 1246 1207 1120 1152 1049 984
871 1339 1560 1788 1771 1664 1333 1182 842 783 716 766 637 508 522 555 422 456 614 526 436 394 392 350 320 216 186 248 421 329 406 654 1131 1458 1526 1444 1416 1180 1336 1254 1152 1012
996 1216 1473 1762 1848 1691 1264 1131 879 822 731 609 612 570 416 527 430 306 348 435 481 423 373 343 282 245 202 197 231 261 368 400 925 987 853 1280 1184 1392 1426 1331 1262 1091
1015 1287 1520 1643 1641 1452 1074 727 736 801 809 649 642 479 449 362 286 201 251 285 276 312 316 332 295 233 202 229 168 200 208 195 468 558 397 364 490 1244 724 1270 1353 1264
913 1028 1169 1426 1231 1112 759 723 734 845 782 660 570 564 485 347 234 214 148 242 219 200 190 212 343 294 142 192 139 139 105 100 163 154 112 122 166 518 623 1438 1293 1250
875 926 1169 1260 1300 1039 714 669 732 783 735 617 764 613 472 334 272 211 103 141 165 152 211 129 240 198 149 168 121 224 216 69 69 78 66 86 115 104 324 1002 1510 1302
856 882 784 1360 1358 1094 753 580 640 694 752 784 753 525 387 366 278 203 123 48 35 31 52 153 143 164 159 196 173 140 126 143 63 59 93 87 65 34 77 637 1604 1524
756 823 818 1172 1347 934 841 694 708 694 695 767 528 438 308 307 137 45 6 4 20 52 171 232 162 157 234 161 100 68 74 84 26 33 68 45 10 1 18 129 1356 1569
886 1315 1399 1234 1135 1048 1142 998 847 667 617 601 477 317 247 47 2 5 2 0 6 0 4 45 65 53 65 66 67 35 26 71 44 6 25 15 9 0 18 123 534 1468
1377 1485 1542 1251 1169 1144 1056 916 733 644 549 448 238 157 0 0 0 0 0 0 0 0 0 0 0 0 0 0 0 0 3 71 66 30 0 2 2 0 0 138 379 1291
1066 1129 1141 1034 945 897 768 620 536 542 447 262 102 19 30 0 0 0 0 0 0 0 0 0 0 0 0 0 0 0 0 13 100 87 1 6 2 0 0 0 114 935
840 926 874 809 744 652 465 446 374 221 69 3 3 17 0 0 0 0 0 0 0 0 0 0 0 0 0 0 0 0 0 0 10 81 32 10 8 7 10 6 4 195
341 297 240 373 507 406 371 274 120 50 18 23 15 6 0 0 0 0 0 0 0 0 0 0 0 0 52 49 0 0 0 0 0 2 45 38 22 10 18 2 4 34
407 346 195 220 271 306 263 99 48 64 108 218 178 26 33 57 18 7 1 0 0 0 0 0 72 2 0 0 0 28 3 0 0 0 4 34 21 9 4 4 11 26
137 3 252 275 69 55 50 44 50 156 124 31 28 43 54 24 48 72 50 24 17 56 60 2 0 0 0 0 0 0 2 23 14 2 0 7 42 44 17 12 27 21
82 7 4 71 39 21 0 0 0 0 0 3 8 9 12 28 53 91 194 187 54 1 0 0 0 0 0 0 0 0 0 8 10 21 12 5 15 34 44 44 37 62
13 4 0 0 1 2 0 0 0 0 0 0 0 2 1 16 49 96 94 13 0 0 0 0 0 0 0 0 0 0 0 24 1 13 16 30 43 51 62 63 54 56
19 23 26 0 1 0 2 0 4 0 2 3 0 0 0 0 1 14 20 2 0 0 0 0 0 0 0 0 0 0 0 0 46 118 29 52 87 109 171 125 160 150
0 1 3 5 8 9 1 4 1 2 0 0 0 0 0 0 1 4 6 1 0 0 0 0 0 0 0 0 0 0 0 1 266 158 102 88 130 207 157 190 230 253
3 2 1 0 6 1 3 5 11 2 0 0 0 0 1 0 1 3 0 0 0 0 0 0 0 0 0 0 0 0 0 395 676 651 431 345 397 451 352 298 292 311
4 8 15 11 6 6 2 6 2 0 0 0 0 0 1 2 14 17 1 1 0 0 0 0 0 0 0 0 0 0 0 49 323 415 609 696 797 1080 823 710 757 620
8 8 6 5 6 12 22 3 0 1 0 0 0 4 3 0 5 6 3 2 2 0 0 0 0 0 0 0 0 0 0 0 0 22 203 350 605 945 838 986 944 194
4 7 11 11 0 17 8 0 0 2 0 1 0 0 4 5 6 1 0 2 3 1 1 0 0 0 0 0 0 0 0 0 0 0 0 1 11 79 154 269 689 477
0 1 0 0 3 0 0 0 0 0 0 2 2 0 0 1 2 2 1 0 0 1 2 0 0 0 0 1 2 1 0 0 0 0 0 0 0 0 0 24 60 199

ECMWFNIL_con_mucape_057.txt.gz
CAPE
1416 1310 1215 1355 848 514 405 659 594 965 628 589 622 674 704 707 810 708 655 516 508 490 450 478 508 975 1366 1425 1398 957 1054 1140 679 987 906 1235 849 972 1172 1033 983 724
1183 1053 1392 1126 1173 1101 885 1233 909 584 579 602 525 612 604 439 620 667 707 540 560 492 511 459 378 379 491 777 1469 1182 980 1052 1054 944 950 1246 1201 1490 1110 1058 661 828
1151 1171 1330 1525 1175 1196 1212 1142 965 704 608 502 600 546 562 571 481 455 574 628 434 424 460 404 308 288 263 232 1154 1203 1033 1036 944 1087 1274 864 1262 1168 1006 991 1046 1468
912 954 777 871 883 983 1180 756 697 618 619 673 506 455 502 546 455 478 658 474 454 482 453 350 285 230 206 271 712 709 777 980 1001 1144 1279 856 1160 1299 1124 1328 1297 1626
786 746 649 988 1214 1381 1047 839 700 746 820 718 592 516 500 421 422 366 549 462 384 412 422 381 282 238 234 253 279 368 413 801 1179 1388 1003 1257 1300 1299 1102 1199 1121 936
1166 798 800 707 1012 1337 1118 912 684 770 880 698 542 293 397 327 326 332 331 282 156 317 235 302 302 255 206 210 249 255 322 237 663 851 979 1214 1021 1045 1088 982 931 1082
1061 664 765 1168 775 1203 893 859 813 751 790 705 355 360 331 306 305 226 260 208 138 112 128 177 307 332 261 250 224 221 181 166 204 205 111 143 182 876 431 564 1194 1213
1063 868 597 534 770 943 637 725 692 707 739 497 468 390 271 332 266 243 239 191 200 138 161 140 199 170 165 176 136 202 196 123 141 76 69 92 138 135 300 1183 1169 1170
1323 1273 1128 766 728 656 632 651 746 944 553 658 572 346 328 276 203 248 200 198 234 205 182 131 110 104 139 157 192 167 147 80 85 71 91 120 118 108 80 824 1099 910
1489 1127 1244 783 753 550 558 486 705 748 900 884 669 404 361 415 292 194 120 158 147 84 132 177 109 76 100 125 88 130 105 84 55 100 118 98 58 36 14 208 841 851
1437 1354 1123 1050 577 639 698 593 947 962 890 861 660 534 485 349 103 139 14 29 76 35 90 130 86 87 88 93 92 95 81 66 17 21 72 55 44 26 11 64 797 1010
957 1188 1346 731 760 945 638 685 939 926 972 834 339 373 191 70 1 4 4 3 7 43 32 107 68 60 66 29 45 57 83 103 48 50 44 41 21 1 24 76 260 1054
686 552 1069 1182 1320 1146 925 832 889 868 821 531 263 110 8 1 0 0 0 0 0 0 0 0 0 0 2 0 7 0 12 100 99 67 61 53 48 22 38 76 200 1020
609 588 716 981 1345 1052 894 747 706 705 457 219 85 6 0 0 4 0 0 0 0 0 0 0 0 0 0 0 0 0 0 19 109 87 40 100 72 51 40 59 95 683
616 502 642 788 660 811 741 570 511 336 251 64 86 75 40 11 0 0 0 0 0 0 0 0 64 0 0 0 3 0 0 0 27 27 35 29 53 57 55 42 46 192
373 603 374 428 457 516 424 472 311 152 37 15 9 3 0 0 0 0 0 0 0 0 0 438 4 0 0 0 0 0 0 23 0 14 12 7 10 19 37 30 40 69
391 433 391 258 428 526 513 414 288 132 24 4 95 250 228 110 4 0 0 0 1 387 110 0 0 0 0 0 0 0 0 200 0 0 6 8 14 5 16 31 44 27
275 275 183 238 340 401 304 299 331 286 230 156 125 87 68 128 316 170 310 156 8 0 0 0 0 0 0 0 0 0 0 0 10 1 0 5 11 10 3 14 27 30
50 49 8 0 0 0 0 7 81 0 0 21 51 56 52 46 123 76 5 0 0 0 0 0 2 2 1 0 0 0 0 0 0 0 0 0 1 4 2 2 12 26
94 1 0 0 0 109 0 0 0 0 2 0 0 4 23 69 81 9 1 0 0 0 0 0 0 6 1 0 0 0 0 0 0 14 0 5 5 10 17 40 11 16
9 2 0 0 0 0 0 0 0 0 0 3 0 1 0 0 1 2 0 0 0 0 0 0 3 0 0 0 0 0 0 0 21 156 3 9 26 68 150 156 185 254
0 1 0 9 16 3 0 0 0 0 2 1 0 0 0 0 0 0 0 1 2 2 0 0 0 0 0 0 0 0 0 0 555 178 18 12 18 30 30 19 44 67
2 10 12 24 6 0 0 0 0 0 0 2 0 0 0 0 0 3 4 5 5 0 0 0 0 0 0 0 0 0 0 54 111 181 311 332 377 383 180 73 146 205
9 8 3 8 1 1 0 0 0 0 2 0 0 0 2 2 3 4 0 0 0 0 0 0 0 0 0 0 0 0 0 0 2 36 129 359 724 889 649 743 697 264
6 3 1 3 0 0 1 1 0 0 0 1 0 0 1 2 2 0 0 1 2 5 5 3 0 0 0 0 0 0 0 0 0 0 14 26 22 138 380 239 376 250
0 2 1 1 1 2 1 0 0 3 5 0 0 0 0 0 0 0 0 1 3 7 12 8 4 2 0 0 0 0 0 0 0 0 0 0 0 0 0 4 12 13

ECMWFNIL_con_mucape_060.txt.gz
CAPE
966 831 909 1085 990 822 878 920 744 615 454 630 587 676 892 1404 1270 1385 1317 1227 1062 1017 1009 1111 1350 1509 1520 1362 1502 980 1018 1223 1220 1271 1305 1214 1066 866 1270 1196 1204 1164
922 833 936 1114 842 543 526 509 369 437 456 587 910 1250 1163 1142 1134 1193 1078 1066 888 898 893 978 1034 1080 1155 1045 1487 1366 1235 1074 922 854 1353 1278 1147 1127 1269 1267 1058 827
930 1017 1122 1030 671 475 383 324 265 373 487 615 1026 1236 1127 1235 1186 1335 1081 871 641 831 927 888 827 761 837 1040 1499 1259 1288 1323 1147 1060 1067 990 1213 1119 1360 1197 849 783
1055 1197 1146 1012 619 424 432 388 564 637 814 1108 891 1069 946 830 1195 1127 1018 797 889 810 849 725 676 490 370 663 1159 1312 1228 1246 967 1138 1329 1225 1280 1207 1196 1099 1058 743
950 1205 1175 1291 1061 656 687 715 888 1013 922 816 1063 808 813 955 796 755 959 808 942 696 627 647 512 476 461 532 727 781 985 1178 1149 1399 1269 1287 1279 1206 1329 1271 1163 859
965 826 889 884 695 712 802 733 908 989 890 991 1029 775 801 754 732 766 708 547 644 576 592 545 534 372 578 709 654 768 752 759 1057 1056 992 1001 911 1054 997 1279 1238 1164
690 597 678 637 618 600 525 536 798 833 950 892 610 774 682 641 538 564 416 385 264 368 385 467 493 458 656 438 474 464 454 625 679 686 355 535 426 940 803 1099 979 810
754 564 626 422 476 409 193 659 792 901 926 536 723 612 512 494 489 451 401 244 197 163 270 229 288 317 358 468 334 442 442 348 433 344 140 232 229 500 524 762 1279 707
724 703 505 371 159 133 476 848 711 914 761 837 710 409 533 608 403 406 282 255 185 241 171 195 165 305 130 399 468 246 232 242 431 226 347 198 213 211 187 632 986 1065
547 505 247 177 62 190 413 686 910 852 766 773 494 376 465 593 380 301 288 321 291 229 230 115 181 54 117 139 140 178 219 114 38 271 224 230 230 150 80 473 960 1010
677 474 413 317 186 160 439 1004 1007 884 813 780 574 442 469 462 217 320 242 124 262 143 166 90 150 28 25 56 112 159 165 178 83 80 238 119 165 32 150 500 824 889
729 613 387 326 180 272 682 830 817 920 1054 627 433 480 450 255 152 94 82 56 50 109 92 99 80 51 50 19 37 34 91 390 100 282 82 116 0 45 68 512 816 896
541 366 170 212 310 388 522 884 943 798 611 601 470 293 153 119 89 86 68 26 48 107 80 50 29 0 42 39 28 3 14 90 126 166 50 215 4 60 144 280 694 775
270 117 119 40 124 501 822 758 516 431 304 286 221 123 66 48 39 21 3 4 4 0 3 2 0 0 0 0 0 4 22 15 87 95 215 48 184 184 113 232 657 543
384 194 211 233 499 381 529 722 572 318 265 130 98 65 74 36 38 13 22 1 0 70 47 0 0 0 0 0 0 0 0 27 115 99 104 218 10 114 42 161 391 632
160 182 279 487 851 625 690 614 569 460 239 103 79 105 60 44 25 2 0 0 47 0 0 0 0 0 0 0 0 0 0 0 44 63 36 164 84 116 52 66 400 398
282 232 277 383 452 450 458 399 184 123 92 126 256 274 204 6 3 146 9 2 0 0 0 0 0 0 0 0 0 0 0 0 0 4 44 105 5 100 278 62 115 7
275 419 344 263 338 428 353 137 73 88 110 143 174 226 271 143 3 0 0 0 0 0 0 0 0 0 0 0 0 0 0 0 0 0 17 4 10 25 61 85 74 0
120 193 239 176 206 184 98 0 0 2 3 17 34 40 43 5 0 0 0 0 0 0 0 0 0 0 0 0 0 0 0 0 0 0 0 2 0 52 66 222 90 0
27 55 149 180 164 43 0 0 0 0 10 8 5 13 10 0 0 0 0 0 0 0 0 0 0 0 0 0 0 0 0 0 0 0 112 103 114 243 296 259 389 128
22 0 28 105 138 119 69 0 0 0 0 0 0 0 0 0 0 0 0 1 0 0 0 0 0 0 0 0 3 2 1 0 0 232 210 30 10 65 129 235 188 316
96 0 0 0 0 57 63 49 0 0 0 0 0 0 0 0 0 1 0 0 0 0 0 0 0 0 0 0 0 1 4 0 125 350 136 52 26 4 19 26 58 174
61 2 0 0 0 22 39 18 21 0 3 0 0 0 0 0 2 3 0 0 4 2 0 0 0 0 0 0 0 0 0 0 0 7 121 258 230 313 118 0 0 251
3 6 19 15 23 8 1 5 0 2 1 0 0 1 1 3 2 0 2 4 6 6 7 1 0 0 0 0 0 0 0 0 0 0 22 1 98 322 208 0 2 118
1 1 2 8 3 0 6 8 4 0 0 0 0 2 7 4 2 5 6 4 6 7 4 2 9 0 0 0 0 0 0 0 0 0 0 0 0 0 97 0 0 102
1 0 0 1 0 3 0 0 1 1 2 9 5 4 3 5 3 2 2 6 4 4 6 5 1 0 0 0 0 0 0 0 0 0 0 0 0 0 0 0 0 0

ECMWFNIL_con_mucape_063.txt.gz
CAPE
925 771 898 753 620 498 459 390 330 315 134 259 456 388 499 663 870 642 663 550 606 497 588 927 853 801 839 841 1076 1065 1057 1075 1087 1074 1070 906 727 588 516 566 636 667
1058 913 802 709 666 558 442 385 287 266 267 75 41 357 561 752 859 673 635 577 471 462 713 919 957 868 898 829 761 913 945 988 993 976 1021 917 695 635 845 703 663 647
984 1035 874 868 767 645 475 377 408 357 299 130 321 521 654 733 726 622 555 374 432 471 576 741 875 881 949 914 786 778 825 909 998 1016 922 827 703 811 904 873 803 612
942 1015 925 903 831 702 520 459 464 251 232 265 440 583 680 581 533 408 352 445 261 352 381 425 577 623 591 840 925 873 710 674 721 842 900 773 835 784 1015 965 711 698
954 986 928 872 807 710 636 691 402 89 50 386 661 567 535 497 430 318 380 268 250 243 250 238 302 430 592 796 714 867 925 845 832 877 914 828 886 801 985 901 744 534
950 910 865 751 622 558 580 427 336 263 261 485 498 470 501 493 339 316 257 226 170 87 183 61 86 324 530 506 497 733 740 755 695 893 889 745 814 837 966 822 765 498
734 779 792 650 546 452 450 335 368 475 500 424 335 259 313 344 285 299 257 226 189 97 101 72 11 37 258 279 372 499 416 512 460 682 820 778 702 887 773 876 872 840
740 775 798 620 406 475 520 629 569 570 450 321 254 187 265 310 291 228 263 243 229 207 193 61 46 64 41 42 239 58 60 513 524 482 538 650 516 564 674 634 1018 969
700 645 801 505 464 560 708 659 465 364 301 253 221 144 205 294 220 152 186 27 24 200 108 23 35 18 21 50 26 54 77 364 350 413 358 232 305 505 633 806 751 752
569 588 587 527 447 562 530 408 301 326 249 220 120 140 157 184 152 105 21 1 5 174 20 7 1 0 14 26 12 29 18 25 28 19 1 2 150 151 216 573 412 439
562 446 488 564 466 425 503 372 314 286 221 132 128 142 157 89 90 71 41 18 21 4 0 0 0 0 0 1 7 18 36 0 2 1 0 0 21 0 214 541 591 389
616 415 438 328 281 428 487 430 354 230 132 116 143 125 107 77 74 73 18 1 1 0 0 0 0 0 0 0 0 0 3 28 2 0 0 0 0 53 439 564 567 440
517 336 330 211 281 373 420 467 455 278 161 167 129 126 96 78 70 82 80 0 0 0 0 0 0 0 0 0 0 0 0 0 0 0 0 0 0 304 464 480 438 447
448 356 220 64 350 602 480 487 385 249 206 198 179 149 71 1 0 0 0 0 0 0 0 0 0 0 0 0 0 0 0 0 0 0 0 0 78 357 496 504 494 461
482 265 80 158 465 555 439 428 346 244 220 214 168 53 0 0 0 0 0 0 0 0 0 0 0 0 0 0 0 0 0 0 0 0 0 0 42 260 361 397 430 457
280 172 61 30 409 377 463 393 360 232 177 150 111 0 0 0 0 0 0 0 0 0 0 0 0 0 0 0 0 0 0 0 0 0 0 22 0 152 241 181 290 344
274 150 108 59 206 13 372 341 128 154 88 93 1 0 0 0 0 0 0 0 0 0 0 0 0 0 0 0 0 0 0 0 0 0 0 0 0 0 150 262 90 195
231 79 46 97 112 137 105 151 71 76 79 33 0 0 0 0 0 0 0 0 0 0 0 0 0 0 0 0 0 0 0 0 0 0 0 0 0 3 11 113 0 0
86 66 66 117 131 94 60 80 54 16 5 0 0 0 0 0 0 0 0 0 0 0 0 0 0 0 0 0 0 0 0 0 0 0 0 0 0 19 59 20 0 0
54 59 109 126 88 64 93 47 44 33 56 0 0 0 0 0 0 0 0 0 0 0 0 0 0 0 0 0 0 0 0 0 0 0 6 0 4 18 8 0 0 0
41 62 51 117 156 114 48 56 43 71 73 0 0 0 0 0 0 0 0 0 0 0 0 0 0 0 0 0 0 0 0 3 6 1 20 0 0 24 18 15 0 0
22 32 37 33 32 62 27 15 62 76 59 16 0 0 0 0 0 0 0 0 0 0 0 0 0 0 0 0 0 0 2 8 10 4 70 31 3 34 25 21 34 27
33 67 11 50 61 81 13 7 49 0 0 0 0 0 0 0 0 0 0 0 2 2 0 0 0 0 0 0 0 0 1 3 8 9 93 0 116 98 109 69 22 0
50 61 14 0 3 25 53 68 6 0 0 0 0 0 0 0 0 0 2 3 3 1 0 0 0 0 0 0 0 0 6 6 6 24 110 100 107 114 102 84 101 80
29 26 2 2 36 0 49 70 35 0 0 0 0 0 0 1 5 7 7 9 5 0 0 0 0 0 0 0 0 3 5 0 0 7 81 89 77 62 77 17 20 84
12 10 19 18 3 11 14 2 0 0 0 0 0 0 1 6 11 14 14 13 1 0 0 0 0 0 0 0 0 0 0 0 1 36 0 3 32 0 1 0 0 0

ECMWFNIL_con_mucape_066.txt.gz
CAPE
1111 1045 1008 792 929 946 864 776 673 666 571 604 528 488 554 595 626 464 488 655 741 843 923 928 912 893 813 813 806 734 640 683 666 689 649 578 493 550 507 441 407 364
920 912 895 844 782 877 838 720 626 638 562 542 426 420 483 500 414 387 580 688 694 760 695 615 694 617 576 702 757 842 723 752 802 818 751 623 529 474 432 415 460 360
948 1002 919 926 896 950 937 753 620 601 526 400 387 384 395 428 402 481 606 746 742 756 711 742 776 668 753 843 850 870 926 917 882 857 820 687 607 435 347 17 366 390
922 1058 958 931 842 926 940 804 624 592 464 388 332 342 402 404 520 739 769 758 706 655 760 828 865 882 922 933 882 900 863 872 833 893 902 802 692 533 438 415 450 498
740 728 761 895 888 854 831 742 622 541 504 358 383 508 499 731 588 619 627 637 617 784 849 836 850 817 809 893 936 966 956 859 756 782 784 743 664 566 593 616 567 594
538 716 892 941 994 945 830 716 571 551 455 342 492 544 806 747 623 629 657 592 566 713 840 887 891 820 812 810 738 735 781 862 847 884 803 664 680 630 795 808 801 594
789 791 869 911 986 962 836 638 546 480 422 386 426 661 812 780 704 646 513 418 462 506 747 819 772 774 811 782 754 786 737 722 725 701 705 628 610 598 781 804 839 687
893 845 770 847 899 987 826 413 438 496 456 378 625 688 644 720 740 541 430 416 436 464 513 519 490 568 694 726 700 806 761 673 717 773 729 789 715 747 776 870 825 760
843 826 839 828 747 667 652 446 470 485 248 393 564 518 563 494 473 440 426 388 382 334 272 239 364 474 603 599 518 692 723 739 680 775 880 805 754 777 818 852 748 713
746 805 728 867 816 686 478 524 530 434 160 349 351 435 604 408 420 415 390 319 310 238 228 259 360 364 336 342 417 490 449 479 488 641 803 819 740 661 773 662 611 783
647 693 655 585 666 617 552 478 395 218 222 366 364 320 390 422 397 399 378 335 277 256 196 184 234 240 230 283 298 278 242 339 486 553 491 575 509 551 686 601 601 730
452 515 634 601 628 536 451 429 305 368 329 293 254 204 434 446 439 424 352 324 306 226 203 194 182 162 165 156 78 0 0 129 388 323 370 214 243 410 532 556 660 589
396 502 639 540 446 450 450 425 298 455 334 204 191 259 360 336 308 317 312 344 259 168 163 151 111 160 186 79 0 0 0 0 0 0 0 0 0 83 273 530 527 453
432 455 379 492 360 317 426 387 185 178 100 25 62 127 166 119 134 242 296 313 179 168 150 95 113 167 79 0 0 0 0 0 0 0 0 0 0 33 323 532 460 448
485 268 312 292 359 348 372 231 88 53 47 7 0 108 145 159 182 183 206 214 167 126 117 91 88 100 58 0 0 0 0 0 0 0 0 6 365 463 495 457 436 428
398 320 64 277 396 301 243 114 38 16 25 1 32 104 128 181 204 204 198 196 152 115 112 99 67 44 0 0 0 0 0 0 0 0 103 295 379 397 408 413 415 390
171 141 258 138 344 305 161 54 27 18 9 13 20 67 114 156 170 173 162 149 132 108 112 91 74 52 0 0 0 0 0 0 0 0 0 70 289 381 366 413 434 435
177 150 185 198 214 260 134 51 46 26 11 17 10 0 12 82 36 39 116 146 140 116 95 80 65 0 0 0 0 0 0 0 0 0 0 0 215 230 270 293 349 364
147 115 76 161 208 116 60 28 24 2 6 4 0 0 0 0 0 0 92 140 153 129 97 51 0 0 0 0 0 0 0 0 0 0 0 0 0 152 218 232 326 399
203 77 32 148 103 100 28 16 0 1 22 0 0 0 0 0 0 0 0 70 96 40 0 0 0 0 0 0 0 0 0 0 0 0 0 0 0 117 96 122 215 338
59 126 55 66 110 2 47 0 1 23 28 0 0 12 0 0 0 0 0 0 0 0 0 0 0 0 0 0 0 0 0 0 0 0 0 0 0 47 60 65 96 0
46 59 104 63 105 41 33 16 16 6 13 25 9 8 0 0 1 3 11 7 3 0 0 0 0 0 0 0 0 0 0 0 0 0 0 0 0 7 4 0 0 0
24 22 129 62 31 3 9 22 21 12 15 20 19 8 0 0 0 0 1 8 4 0 0 0 0 0 0 0 0 0 0 0 0 0 0 2 1 1 0 0 0 0
20 107 68 9 10 13 18 18 18 28 40 33 26 0 14 0 0 0 3 4 1 0 0 0 0 0 0 1 0 0 0 29 4 9 8 0 1 1 0 34 55 62
30 47 44 45 46 44 34 27 28 17 5 10 6 0 0 0 0 0 0 0 0 0 0 0 0 0 0 0 0 0 16 39 42 5 9 64 10 60 31 25 5 0
9 1 4 37 43 45 34 34 21 11 0 0 0 1 0 0 0 0 0 0 0 0 0 0 0 0 0 0 0 0 0 2 2 5 58 84 90 87 90 89 93 70

ECMWFNIL_con_mucape_069.txt.gz
CAPE
1008 991 927 868 908 860 830 779 644 680 720 644 564 446 535 482 549 647 790 834 835 760 688 654 457 719 885 839 874 831 691 558 499 642 721 635 518 436 445 473 473 442
876 940 886 734 780 840 812 870 741 700 652 667 678 611 485 613 559 589 830 825 650 517 501 551 472 705 950 901 823 800 686 581 487 635 715 609 521 426 412 403 428 409
770 934 921 677 496 499 801 1014 955 867 839 739 651 586 497 488 518 684 826 733 534 335 455 606 682 784 890 867 759 759 724 612 482 573 686 646 570 512 421 350 385 57
625 916 879 836 689 768 707 874 983 918 874 777 660 627 530 385 449 467 671 604 489 457 602 607 765 978 1003 955 860 802 754 655 567 635 715 657 622 557 447 478 478 376
620 670 598 636 776 730 658 575 798 787 793 770 718 622 567 532 394 470 590 526 488 565 594 837 874 959 897 834 731 766 736 715 616 656 647 666 658 584 503 457 444 388
616 621 465 449 575 592 538 705 777 754 801 779 695 637 575 442 361 496 550 499 573 610 588 696 554 672 653 616 630 723 770 734 729 756 767 762 707 634 585 454 388 347
685 626 463 367 488 602 613 702 711 784 827 722 651 641 602 426 368 462 524 511 601 608 512 497 446 757 684 668 824 869 830 815 861 828 750 739 707 678 606 488 440 446
530 681 649 529 518 606 624 681 770 784 746 652 646 606 547 407 409 480 494 518 608 520 466 560 740 782 804 887 920 921 890 846 857 724 724 738 643 628 545 583 649 685
641 582 595 556 519 432 632 741 771 758 642 520 605 509 447 384 442 536 586 650 647 634 653 819 854 843 812 785 889 836 838 817 789 800 795 754 641 617 610 641 740 786
716 616 551 552 548 536 530 652 742 726 713 519 537 494 414 354 436 610 533 636 646 574 741 826 869 853 820 817 827 757 740 733 745 768 717 633 609 593 607 631 703 796
748 699 638 636 487 418 480 583 682 773 641 453 442 370 369 429 565 675 583 581 297 208 760 865 842 753 731 791 747 728 750 732 668 642 688 706 711 693 683 740 774 832
473 522 560 509 372 511 552 608 657 724 596 416 349 341 356 424 637 540 555 164 147 402 593 568 465 485 579 660 694 633 675 716 716 707 724 751 778 762 715 716 740 749
355 309 248 245 230 307 399 440 556 650 538 402 256 251 381 551 530 477 159 98 204 376 288 248 308 357 400 416 394 415 433 404 415 483 534 612 690 715 671 616 660 615
183 186 200 180 46 19 102 348 414 508 506 434 205 196 524 366 360 143 82 139 307 300 225 222 238 248 209 192 228 231 203 114 132 330 429 434 354 376 394 440 501 474
130 105 99 84 12 0 80 225 425 485 440 357 195 274 377 265 164 69 98 206 260 232 174 152 146 132 112 91 16 0 0 0 0 36 220 118 0 0 0 51 313 367
102 91 61 0 0 33 82 106 335 458 368 238 150 283 264 152 91 119 191 334 236 174 153 122 87 108 125 0 0 0 0 0 0 0 0 0 0 0 0 0 12 370
88 83 42 0 3 45 96 253 283 281 259 207 115 52 101 67 91 165 285 286 215 125 98 66 100 134 68 0 0 0 0 0 0 0 0 0 0 0 0 218 300 281
9 9 37 21 18 5 77 92 330 245 228 206 64 64 50 36 148 56 236 195 89 85 80 0 43 34 0 0 0 0 0 0 0 0 0 0 5 229 0 129 152 299
26 15 9 12 7 7 20 15 222 167 133 75 26 0 27 96 161 158 239 93 82 77 62 0 0 0 0 0 0 0 0 0 0 0 0 0 27 145 126 262 248 260
14 7 13 8 0 4 20 0 98 147 32 29 31 25 48 20 179 207 132 92 71 57 60 14 0 0 0 0 0 0 0 0 0 0 0 0 0 0 0 176 94 241
10 0 0 3 3 3 56 99 50 19 28 38 24 44 31 75 132 119 90 74 69 59 57 0 0 0 0 0 0 0 0 0 0 0 0 0 0 59 20 2 228 276
12 7 0 11 15 22 46 46 27 19 14 6 0 62 46 125 101 75 72 92 85 90 56 0 0 0 0 0 0 0 0 0 0 0 0 0 0 0 0 0 0 95
12 10 24 19 17 6 85 97 15 20 15 11 48 95 78 86 66 50 59 75 94 107 104 92 0 0 0 0 0 0 0 0 0 0 0 0 0 0 0 13 0 0
4 13 7 20 13 6 0 9 21 2 30 39 73 82 66 50 45 36 46 63 84 85 82 0 0 0 0 0 0 0 0 0 0 0 0 0 0 0 1 5 4 0
0 9 14 6 8 17 18 16 23 20 18 30 39 43 43 32 24 25 9 0 0 0 0 0 0 0 0 0 0 0 0 0 0 1 0 2 5 4 7 29 19 12
0 2 2 4 16 26 24 9 17 36 32 45 43 36 36 38 34 38 10 0 6 11 10 7 5 1 0 0 0 0 0 0 0 0 0 2 6 8 7 4 3 62

ECMWFNIL_con_mucape_072.txt.gz
CAPE
897 914 782 684 713 858 925 933 810 708 601 505 333 319 688 493 394 478 577 552 615 673 743 815 896 790 732 624 582 682 769 742 530 754 699 598 560 559 516 472 449 428
816 897 822 913 855 939 973 962 827 711 643 565 366 172 323 426 390 279 304 428 656 609 622 754 853 835 678 496 430 636 702 610 603 732 716 661 627 603 542 515 496 458
734 736 690 798 844 895 909 840 721 651 624 520 510 485 479 471 483 403 434 403 540 522 490 670 805 770 708 527 461 605 641 729 701 623 643 621 641 647 618 539 477 469
581 595 592 695 768 816 841 748 624 613 589 475 365 425 593 687 613 576 562 519 536 570 524 661 848 834 722 654 436 501 601 761 731 673 582 517 615 694 644 475 414 418
123 273 517 716 782 776 688 579 543 514 611 640 642 608 634 659 609 533 542 586 576 548 448 521 576 479 490 520 490 603 482 516 642 608 527 510 611 668 597 506 448 385
519 494 515 622 692 702 696 718 779 752 689 606 718 654 556 629 656 541 561 515 500 409 357 484 518 452 448 540 534 656 442 437 789 721 570 496 572 638 616 569 475 420
576 600 546 556 577 551 535 760 865 749 593 565 530 574 452 607 679 656 600 499 372 317 410 544 538 518 552 631 651 574 395 540 754 768 641 566 600 680 622 582 493 462
644 641 701 684 544 584 595 579 631 643 700 718 706 552 577 700 698 654 604 472 360 374 424 416 494 552 621 716 644 257 362 499 608 666 669 627 621 692 673 602 538 479
830 720 710 738 676 577 565 623 604 586 610 638 670 641 666 680 665 606 574 452 384 436 510 443 426 567 632 643 363 416 256 438 668 612 669 712 745 730 681 621 560 494
561 732 800 798 729 663 585 553 596 582 579 569 656 674 670 610 615 584 552 423 381 459 539 557 524 516 458 433 492 473 486 441 693 699 812 798 727 679 628 606 544 526
469 478 517 646 757 782 683 603 513 424 422 473 640 699 611 538 568 506 480 407 399 509 547 538 404 358 383 455 482 488 625 624 727 773 840 748 716 743 639 562 561 595
424 511 515 458 472 526 577 516 442 414 370 446 564 596 564 535 520 453 396 395 481 544 506 445 332 499 547 623 584 640 574 655 682 797 782 791 785 719 636 584 609 638
233 372 447 426 393 387 383 415 433 409 373 404 413 422 502 519 500 438 402 390 507 592 570 512 618 578 576 494 589 502 593 659 618 685 753 773 734 667 651 650 645 696
69 88 112 177 209 225 247 252 275 291 328 340 342 361 450 495 484 412 396 390 517 515 482 474 368 329 436 562 589 705 724 738 652 718 672 659 694 744 744 760 723 718
2 5 45 87 115 122 134 188 212 248 258 244 280 318 362 394 452 376 380 461 588 586 493 260 261 311 443 550 693 758 789 642 602 673 671 673 670 712 752 756 736 680
1 1 5 28 68 94 85 35 94 108 58 92 225 271 323 467 290 329 388 574 625 438 194 170 238 375 508 465 554 637 622 494 486 393 405 436 505 478 458 436 441 418
1 1 1 10 47 68 69 61 41 48 63 4 150 223 325 408 168 254 432 591 394 120 99 225 281 246 287 317 308 273 314 299 199 101 135 305 332 226 140 9 0 0
1 1 1 19 41 52 52 46 47 53 67 88 5 29 251 260 133 364 525 428 93 51 165 296 243 208 218 183 155 157 164 131 46 0 21 136 128 72 0 0 0 0
1 0 0 7 18 25 26 37 34 38 68 84 62 129 216 254 266 404 433 167 52 81 196 221 200 173 113 135 86 79 69 0 0 0 0 0 0 0 0 0 0 0
0 1 1 2 12 3 7 23 24 26 53 69 98 211 303 158 361 346 171 63 100 203 231 176 151 95 122 95 56 64 65 0 1 0 0 0 72 158 174 126 0 0
0 0 1 2 1 1 3 6 9 4 13 26 60 182 109 244 346 289 99 157 303 266 203 134 76 95 141 76 65 70 75 87 8 0 80 143 202 232 183 160 25 25
0 0 2 7 20 10 1 1 6 1 2 6 38 92 143 158 181 121 98 122 181 252 143 86 52 124 109 71 62 78 93 104 103 118 138 152 153 183 182 158 160 171
0 0 0 0 6 16 2 0 3 1 8 19 62 89 100 96 93 54 48 35 119 70 59 0 52 85 86 66 0 0 0 0 54 98 99 114 113 127 144 154 160 185
0 0 2 2 0 2 1 0 0 1 14 29 43 61 64 76 33 18 23 0 79 16 68 34 20 63 71 50 68 15 0 0 0 0 13 76 84 27 18 114 84 41
0 2 12 18 5 1 0 0 0 0 11 15 19 50 54 16 13 6 100 1 34 10 0 0 20 68 77 33 0 0 0 0 0 0 0 0 0 0 0 0 23 0
0 1 16 30 18 0 0 0 0 0 1 8 12 9 31 19 28 33 37 51 10 0 0 0 14 29 0 0 0 0 0 0 0 0 0 0 0 0 0 32 55 56

ECMWFNIL_con_mucape_075.txt.gz
CAPE
910 887 928 990 932 722 678 713 844 927 878 837 754 663 604 452 278 237 261 344 394 474 614 548 453 490 524 462 409 413 465 495 493 558 626 549 449 490 478 467 564 679
713 808 912 1023 928 776 774 814 1041 1051 1100 915 878 748 585 441 275 217 278 306 339 375 439 410 451 434 521 553 530 475 478 521 638 582 697 627 430 418 405 486 706 750
351 616 813 855 1006 818 711 762 971 1006 847 837 791 725 554 393 318 273 302 350 365 374 413 483 475 522 546 610 726 632 502 503 625 559 593 663 520 300 379 562 902 920
400 433 414 532 691 675 780 932 767 678 742 728 706 656 523 390 396 424 453 458 412 379 350 320 396 519 573 612 697 773 704 618 503 375 369 440 517 390 415 509 632 845
495 460 418 346 486 574 737 812 695 584 577 580 554 510 462 479 435 446 463 459 417 436 456 428 408 502 468 476 595 689 594 442 313 328 431 488 414 357 378 472 442 578
496 508 494 437 384 542 568 475 472 555 568 639 658 544 569 577 542 408 383 395 366 399 466 508 476 468 479 467 511 646 596 508 398 406 483 490 448 355 339 394 491 458
445 549 541 416 360 289 318 474 413 482 610 663 719 715 591 519 519 474 394 366 416 459 517 563 586 543 479 489 535 640 620 610 463 405 497 537 384 378 298 392 461 498
29 373 550 594 447 424 439 390 438 587 537 520 582 607 544 547 532 461 387 408 487 529 523 522 547 524 464 446 532 468 424 462 405 443 530 401 306 262 319 382 505 704
2 192 234 368 579 565 481 475 553 554 699 573 570 506 498 613 609 455 452 515 586 608 523 446 411 383 341 413 502 473 405 415 445 473 454 335 320 199 216 332 555 779
4 13 133 281 185 415 649 596 547 499 560 537 574 551 527 565 550 475 489 564 609 610 546 420 345 324 391 460 492 496 479 523 570 560 420 337 396 314 266 454 788 898
4 4 12 94 166 274 300 417 553 610 543 441 430 524 532 449 408 393 482 533 609 586 520 414 356 376 390 398 382 460 532 648 649 470 360 343 425 473 476 594 1018 1049
3 3 2 3 34 166 258 324 335 363 398 419 411 406 416 405 357 390 418 444 517 553 472 382 344 390 454 435 428 497 583 599 451 332 336 412 476 500 381 549 1169 1260
2 3 4 4 5 113 232 264 319 350 382 403 414 402 364 346 354 350 390 354 435 526 450 420 368 370 512 516 496 470 438 440 364 296 368 460 317 420 532 759 1211 1274
3 3 3 3 4 5 74 193 167 224 292 340 363 373 348 310 298 293 283 315 440 469 424 385 349 437 524 482 400 387 434 444 509 498 454 422 348 354 361 585 986 1170
3 2 3 2 1 3 24 94 171 156 140 151 203 248 274 280 278 246 270 330 437 482 428 354 384 498 495 408 404 483 577 572 552 505 535 444 341 333 289 421 638 595
1 2 1 1 1 2 14 85 123 167 148 132 127 137 191 208 260 261 248 292 392 452 429 363 452 498 455 426 528 579 616 559 530 453 417 377 307 302 369 562 635 655
1 1 1 2 3 12 32 106 104 122 151 120 120 109 113 142 118 111 136 214 318 389 440 394 457 548 512 476 474 506 536 552 383 334 364 255 285 365 410 575 592 588
1 2 2 2 2 2 2 2 33 49 52 72 115 77 56 64 58 66 78 104 273 330 410 395 460 502 398 312 365 501 603 530 357 366 302 231 250 358 452 502 526 428
3 2 2 2 1 0 0 0 12 14 8 3 1 4 18 32 47 75 100 168 262 291 283 404 550 529 269 335 459 513 526 388 316 231 357 147 317 426 344 181 176 145
3 2 2 2 1 0 2 20 20 15 4 6 1 6 8 11 32 32 37 131 199 223 282 499 539 228 284 377 374 341 292 277 264 248 199 98 240 243 149 0 0 122
3 2 2 0 0 0 8 26 50 53 28 10 1 1 3 4 8 0 61 131 138 180 338 459 222 260 273 259 170 170 156 193 165 107 86 100 139 120 16 118 18 0
2 2 1 0 0 0 14 29 28 35 36 28 15 3 0 0 0 0 41 127 103 178 289 216 172 176 146 134 110 106 112 90 65 55 68 88 75 92 126 125 41 123
1 2 1 0 0 0 0 1 1 0 0 0 0 2 8 5 0 1 11 12 75 194 135 70 94 112 96 108 82 87 95 69 34 48 42 35 108 146 149 131 128 146
1 2 2 0 1 0 0 1 2 2 0 1 0 17 33 31 14 2 29 59 85 92 82 99 95 85 85 69 96 103 100 63 48 6 4 117 160 178 155 136 137 156
1 1 2 2 0 1 1 0 2 1 0 2 10 21 26 15 5 0 1 29 62 69 26 57 82 131 153 120 113 100 85 87 88 92 110 146 159 159 157 144 146 168
1 1 2 3 2 1 1 0 0 0 0 1 1 0 8 8 3 12 35 58 43 26 66 104 58 66 74 66 95 65 26 55 76 105 122 126 105 105 119 137 132 108

ECMWFNIL_con_mucape_078.txt.gz
CAPE
994 1213 1394 1494 1643 1637 1746 1503 1593 1486 1194 1425 1103 1191 1101 1086 1026 969 836 593 583 608 454 576 819 1220 1098 849 629 455 421 478 510 646 660 586 515 727 1188 1161 1024 828
817 890 1024 1270 1391 1430 1428 1417 1450 1553 1604 1656 1644 1518 1242 1180 1138 1095 925 694 656 624 597 649 746 978 980 1125 498 612 602 555 539 467 693 965 1010 1137 1232 1185 1112 979
524 736 920 1022 1177 1246 1424 1441 1428 1569 1641 1731 1886 1744 1517 1385 1321 1199 929 750 625 614 581 600 575 579 609 1095 1197 733 684 488 842 1068 569 645 657 998 1237 1056 1069 1277
294 464 734 819 900 963 1103 1201 1479 1422 1459 1566 1716 1683 1366 1220 1222 1063 919 703 691 672 682 631 612 480 434 575 613 685 467 524 699 934 870 773 946 382 1057 882 1062 1248
113 300 520 599 841 875 1059 1133 1184 1362 1432 1547 1384 1105 1175 1146 1150 1093 970 853 750 697 685 722 688 614 627 650 454 474 528 769 963 850 807 1107 544 729 754 932 1193 1505
72 173 410 548 642 905 961 1118 1009 1241 1339 1250 1457 869 655 1165 1019 1040 1027 962 811 707 672 807 730 782 795 619 411 465 451 448 654 491 456 452 449 925 830 962 1227 1290
14 111 338 420 593 635 934 1042 1189 1181 1032 1166 795 663 713 894 1145 1098 1150 1151 921 767 701 679 756 731 758 719 481 390 474 415 527 542 489 338 567 715 719 851 795 886
9 74 263 421 580 657 736 831 902 1104 827 556 587 638 814 638 1190 1244 1137 1092 938 815 746 665 636 684 686 490 450 396 385 465 438 717 508 774 802 654 636 608 569 708
9 16 50 163 373 663 661 616 748 872 726 985 1086 586 747 819 814 1047 1042 1066 978 961 912 831 737 526 481 502 680 497 480 561 602 582 646 723 792 644 392 360 457 592
6 6 8 19 97 273 459 646 654 632 605 734 760 786 855 910 844 817 896 895 902 902 914 982 871 782 513 488 515 660 737 823 692 732 710 832 577 438 491 450 575 796
6 6 8 8 8 18 154 346 628 687 652 663 636 728 804 854 939 867 797 908 919 852 976 1036 1010 827 667 598 478 672 752 699 725 634 591 400 525 643 548 447 687 948
4 4 5 6 6 8 9 51 225 500 562 596 598 682 810 859 858 886 662 787 810 748 912 948 817 576 816 607 538 597 786 878 912 961 844 462 647 833 621 498 768 955
4 4 5 5 6 7 6 17 143 376 500 507 528 574 602 729 830 846 722 725 639 806 896 1015 927 876 974 1009 951 904 986 1083 1071 528 561 583 831 742 721 595 859 1002
3 3 4 4 4 6 9 50 147 268 346 452 382 465 518 527 634 715 773 723 773 707 813 789 807 548 939 1004 1032 1029 974 978 993 812 594 917 900 654 634 600 842 1038
2 3 3 3 1 3 4 4 5 81 347 400 419 490 480 554 508 622 658 623 614 655 560 661 742 554 473 626 895 733 801 944 592 502 774 615 526 593 454 486 710 1077
1 2 2 2 4 2 3 4 1 2 38 139 149 149 274 406 489 367 571 485 543 518 455 423 456 480 462 485 481 882 926 787 861 840 780 606 449 340 308 314 543 695
1 2 1 0 2 3 5 2 2 2 0 3 4 5 32 145 186 403 432 565 679 502 378 611 561 395 438 386 402 376 353 902 710 609 697 685 459 297 325 312 348 394
0 0 0 0 2 1 2 3 3 2 0 0 0 2 2 3 4 49 184 316 423 389 449 539 315 361 384 357 320 347 406 817 772 796 779 442 300 329 378 344 292 248
0 1 0 0 0 0 1 1 1 2 2 1 1 2 5 30 20 8 2 1 26 122 325 388 430 100 348 316 393 384 396 568 1023 753 426 371 328 291 326 337 323 272
0 0 0 0 0 1 1 0 0 1 2 2 2 1 1 38 36 20 16 31 66 89 63 94 96 171 312 314 271 266 305 489 959 601 449 420 478 501 573 501 520 536
1 0 0 0 0 0 0 1 1 1 1 2 2 2 2 1 7 25 10 9 23 38 55 77 12 73 98 111 209 354 334 323 439 739 472 423 510 605 595 658 920 798
1 2 2 0 1 1 1 1 2 2 2 2 3 3 4 3 3 4 6 9 13 24 1 40 0 0 49 149 238 266 310 354 427 450 362 281 330 498 530 585 576 368
3 2 3 2 1 1 1 2 2 2 2 2 2 2 2 2 3 4 2 2 0 0 0 0 0 2 58 176 280 258 342 398 261 206 152 85 198 225 172 139 134 207
2 4 2 2 2 2 2 2 2 2 3 2 2 1 0 1 33 25 8 12 18 9 1 0 3 15 94 215 234 244 204 220 138 104 79 11 89 143 121 110 93 90
4 4 6 6 4 5 4 3 2 3 2 1 3 3 1 3 49 28 16 7 14 15 20 20 26 16 74 175 143 121 134 54 83 22 54 37 96 110 106 114 88 92
4 4 6 6 5 4 4 2 1 0 1 2 2 2 3 2 0 1 0 1 0 2 3 2 2 35 33 87 68 66 70 23 3 0 62 100 81 86 100 102 82 110

ECMWFNIL_con_mucape_081.txt.gz
CAPE
576 714 1016 1085 1215 1085 1488 1510 1069 1030 1299 1082 948 971 1144 1535 1372 1217 1457 1231 1100 1040 858 954 946 966 1034 1010 936 1008 995 1083 941 938 838 803 944 989 1015 832 707 786
332 440 586 866 1130 1229 1190 1364 1518 1500 1105 1041 1344 1355 1282 1121 1016 847 1102 1430 1045 918 850 832 806 868 970 1095 1040 900 847 1051 1037 810 822 1151 980 908 956 637 588 897
146 223 409 630 867 1140 1158 1262 1404 1462 1720 1813 1768 1578 1082 932 1023 900 700 807 992 976 802 726 786 865 956 1045 1038 913 880 940 993 1101 950 771 1040 468 995 707 448 400
8 48 189 364 574 824 1082 1136 1139 1223 1466 1414 1717 1619 1174 789 864 809 697 822 879 1046 966 798 774 844 872 880 744 854 828 806 828 1071 879 1027 1331 893 727 406 396 270
4 6 63 196 341 520 824 1105 1180 1183 789 930 1298 1264 984 840 744 766 639 586 648 625 564 1001 991 877 845 840 808 833 770 687 805 771 728 748 1013 892 636 401 158 155
6 6 12 100 243 427 669 919 1065 1152 1120 839 1036 1472 1190 1016 576 635 744 792 649 681 694 601 750 799 882 835 819 804 716 645 919 857 868 772 786 643 576 555 495 490
5 7 7 14 71 174 334 600 877 1039 1187 1392 1150 925 1386 1042 713 645 532 498 562 538 510 458 488 1058 927 848 664 711 716 688 832 754 719 921 941 1151 1256 1125 938 786
2 5 8 8 8 7 74 282 512 816 977 1108 1375 1473 1375 1302 1053 702 631 523 468 441 425 448 552 596 1195 700 650 671 669 596 707 603 628 649 924 1005 900 1029 587 567
2 0 2 5 5 8 9 9 84 311 568 913 1100 1217 1404 1400 1180 922 718 547 514 562 572 529 343 375 970 930 887 656 656 647 562 606 595 676 920 512 584 501 523 427
3 3 3 3 6 8 9 11 8 17 150 500 904 1003 1005 1218 1242 1061 710 656 506 519 499 455 577 511 884 852 863 840 875 794 703 613 881 804 772 674 391 518 607 577
4 6 7 8 8 10 10 10 9 15 77 278 576 873 954 949 1025 978 973 576 588 550 496 565 495 543 883 1119 951 885 899 864 725 443 442 777 895 679 477 363 679 737
4 5 5 7 7 7 7 7 10 7 12 167 416 621 799 850 890 865 864 919 822 607 505 512 742 608 531 611 630 908 922 819 728 478 683 476 455 467 566 931 635 573
7 5 6 6 7 7 6 8 8 6 3 11 12 228 502 714 783 790 812 547 778 850 596 562 605 633 513 766 1040 1039 1020 974 1163 451 479 454 480 665 1114 670 464 646
4 6 5 5 5 4 4 5 6 2 0 0 58 118 30 170 392 584 652 725 661 530 621 562 576 416 520 623 768 782 748 693 618 643 412 346 895 1068 750 461 497 554
6 4 6 5 5 5 3 1 0 0 0 0 0 15 75 11 0 61 212 356 506 612 429 591 555 274 648 690 675 812 581 454 630 532 501 868 756 454 528 527 332 420
4 4 2 4 5 2 2 0 1 0 1 0 0 0 0 0 0 6 1 23 197 242 574 795 738 312 452 611 498 491 633 846 522 420 361 364 514 468 314 377 394 607
4 3 4 4 4 5 4 1 0 1 2 2 5 3 2 1 1 1 1 1 9 11 192 175 542 262 288 401 300 214 320 481 426 367 353 471 448 438 386 474 400 372
3 3 5 4 5 4 3 2 1 1 1 3 4 5 5 5 3 2 3 2 3 2 6 18 43 97 211 115 0 260 252 295 348 447 534 554 311 356 436 419 411 574
3 5 4 5 6 7 6 4 2 2 2 2 3 6 6 6 8 4 4 5 4 2 2 2 4 0 0 4 129 67 0 252 318 268 284 437 298 361 484 579 355 558
3 5 4 4 5 5 6 6 5 3 2 2 2 3 4 4 5 4 4 4 4 3 3 4 4 0 0 41 0 0 0 0 248 265 291 410 444 593 591 282 349 792
4 6 6 6 6 6 6 5 5 4 3 1 2 1 2 4 3 3 4 5 3 3 2 3 3 1 3 30 5 0 0 0 158 281 322 351 483 506 479 297 316 547
5 6 7 6 6 5 7 5 6 4 4 2 2 0 1 2 2 2 3 2 3 2 2 2 3 0 3 7 17 0 0 0 2 123 216 263 526 648 626 438 653 604
6 8 5 7 5 4 3 6 7 4 4 2 2 1 1 1 0 1 2 2 2 1 1 3 4 1 0 0 1 20 10 1 119 168 330 444 485 462 374 374 296 266
8 6 7 6 7 5 6 7 5 6 4 2 2 1 1 2 0 1 1 2 1 2 2 3 4 13 8 0 0 16 33 2 2 52 219 295 340 362 281 240 372 393
8 8 7 8 6 10 10 6 6 4 3 4 3 2 2 2 2 2 1 1 2 2 1 3 3 1 0 0 0 9 8 12 5 5 99 200 221 209 210 271 198 277
13 13 13 12 9 9 10 10 8 5 6 4 3 2 2 3 2 1 2 3 2 3 2 1 2 3 0 0 0 13 14 27 79 33 1 96 98 90 87 184 213 199

ECMWFNIL_con_mucape_084.txt.gz
CAPE
39 25 76 127 245 410 663 1056 1176 1252 936 906 953 844 818 829 833 731 875 854 901 957 868 952 1001 1173 1148 824 744 863 1040 866 767 784 680 800 783 842 830 778 797 846
16 14 16 37 75 174 335 514 880 1056 994 1306 828 843 831 882 881 995 870 888 745 749 808 761 775 764 770 776 776 808 798 716 702 716 724 618 711 750 730 784 924 1009
11 12 14 17 33 114 228 371 476 874 1172 1231 952 951 1044 958 906 944 1105 825 768 693 686 688 675 671 676 636 695 717 774 888 850 921 739 774 704 657 805 835 892 910
12 13 12 11 12 14 45 181 369 493 844 1077 1044 1066 1232 909 876 880 989 916 794 744 745 667 564 585 590 682 712 706 721 850 925 872 822 660 564 631 735 710 654 693
12 10 9 8 8 6 2 2 11 120 372 787 1130 1057 976 1127 1027 880 853 1048 950 692 716 697 638 582 538 508 605 557 541 687 822 807 659 734 672 850 667 712 666 726
10 7 9 9 10 10 10 6 2 0 5 170 565 1182 1042 941 1067 1024 824 832 939 853 747 789 658 522 458 426 494 579 512 537 642 680 686 604 623 613 564 672 651 557
6 5 6 8 11 12 16 15 11 3 0 0 62 385 1095 1085 948 940 873 851 832 760 758 721 674 542 519 409 354 429 499 404 469 663 687 611 646 532 571 539 558 469
3 4 5 7 8 11 13 12 11 13 9 4 49 188 388 1054 1144 976 858 773 645 900 876 642 564 505 470 489 410 367 306 399 267 204 513 697 668 575 542 568 584 516
4 4 6 6 7 8 10 12 12 14 12 10 16 79 189 400 965 1176 1056 921 885 727 585 718 578 492 424 412 387 358 444 550 419 316 443 581 668 623 563 535 514 476
7 6 8 7 8 9 10 11 14 14 17 15 12 16 11 45 220 621 834 855 920 638 665 588 666 514 502 472 494 384 320 379 477 434 472 523 503 539 492 477 490 491
8 9 8 8 10 9 9 9 10 10 13 11 12 8 3 0 9 101 373 468 689 783 760 626 535 469 415 593 597 499 515 412 412 499 506 629 583 649 550 510 596 602
13 10 8 12 11 9 12 6 8 8 6 4 3 0 0 0 0 0 0 0 248 278 520 348 420 365 425 448 574 484 467 456 505 627 651 433 492 755 772 645 606 400
8 9 10 12 7 8 6 4 5 6 3 1 2 0 0 0 0 0 0 0 0 0 17 219 282 400 320 398 437 420 348 367 390 426 406 446 572 641 668 609 554 552
9 12 13 12 10 8 5 6 4 2 2 1 3 1 1 1 0 1 1 0 0 0 0 0 115 259 403 322 285 304 308 328 346 469 522 439 543 625 619 600 574 582
8 13 12 7 6 7 6 6 4 5 4 3 2 3 4 2 2 1 1 2 0 0 0 0 9 46 252 276 235 212 197 290 330 439 428 465 578 625 742 667 533 444
6 7 6 6 6 6 6 4 4 4 5 3 2 3 3 3 4 2 2 2 1 1 0 1 8 0 0 62 158 60 150 76 312 335 322 364 474 540 552 547 423 365
4 4 4 1 7 6 4 4 1 4 3 2 2 2 0 2 3 2 2 1 2 3 1 2 6 0 0 0 16 73 119 1 15 279 209 137 336 394 420 512 470 435
3 1 2 3 5 1 1 4 3 2 4 3 2 2 1 4 1 2 1 3 2 2 2 1 6 1 0 0 0 0 26 53 131 103 4 60 262 336 382 316 333 325
0 1 2 4 1 3 4 3 2 2 3 3 2 5 5 1 0 0 1 2 2 2 1 1 1 0 0 0 0 0 0 0 1 0 2 4 65 150 211 345 314 336
4 2 2 1 4 4 6 2 1 2 6 7 6 4 4 5 4 1 0 1 2 2 2 1 2 1 0 0 0 0 0 0 0 0 0 3 15 81 105 198 269 387
2 2 2 0 6 7 6 6 6 4 3 4 8 4 3 4 8 4 0 1 1 1 2 1 2 1 0 0 0 0 0 0 0 0 1 2 5 53 169 164 250 230
3 4 9 6 7 9 7 8 7 8 7 5 5 5 4 6 5 9 4 2 3 3 1 1 2 0 0 0 0 0 0 0 0 1 2 6 8 14 96 134 244 307
4 3 5 7 6 10 10 10 10 10 10 10 5 4 3 4 5 7 5 4 2 4 1 0 0 0 0 0 0 0 0 0 0 1 3 6 14 20 4 1 88 260
8 8 4 4 4 10 13 12 12 12 11 13 9 4 3 4 4 6 3 4 1 2 10 1 0 0 0 0 0 0 0 0 3 10 5 1 1 1 12 0 26 233
2 4 9 7 3 9 8 6 4 10 11 13 12 6 6 2 4 2 4 5 6 6 6 5 2 2 0 0 0 0 0 2 4 1 2 1 2 1 2 57 7 251
0 7 10 8 5 4 5 5 5 7 10 11 9 4 6 8 7 2 5 5 6 3 3 6 6 3 0 0 0 2 0 1 3 2 1 1 3 15 3 1 54 193

ECMWFNIL_con_mucape_087.txt.gz
CAPE
4 2 2 3 3 2 0 11 92 96 212 600 867 719 603 588 555 704 772 802 815 844 852 788 659 753 787 720 724 736 632 694 634 640 654 724 657 662 630 618 698 757
7 8 6 4 3 0 0 0 0 6 9 136 582 885 742 711 763 767 724 725 771 835 874 840 781 602 516 458 821 752 694 661 652 631 483 506 594 533 579 497 551 641
7 7 10 10 9 4 0 0 0 0 2 0 143 310 390 772 850 800 763 753 728 771 798 812 766 560 376 378 624 603 533 656 703 612 501 435 423 404 420 542 579 537
3 2 3 9 13 11 6 0 0 0 0 0 0 121 150 210 671 797 751 751 705 674 708 710 717 646 608 506 429 523 576 595 627 600 586 610 546 638 542 522 753 717
6 6 5 5 7 11 11 8 1 0 0 0 0 0 44 85 127 520 691 736 663 516 654 639 705 691 619 520 462 428 470 537 573 578 567 556 573 619 602 514 520 706
1 1 1 0 1 2 4 5 10 10 5 4 5 0 0 3 57 155 354 612 647 554 491 569 566 655 684 638 551 522 490 525 504 512 557 550 513 547 512 522 625 580
0 0 0 0 0 0 1 2 6 7 13 17 12 6 3 2 8 78 191 380 429 385 487 523 562 560 672 659 566 495 409 384 407 405 423 490 464 457 414 408 400 446
0 0 0 0 0 0 4 4 4 8 12 14 10 12 12 4 0 9 56 134 207 191 365 446 438 511 552 505 507 534 484 436 454 398 339 333 353 354 443 519 553 520
0 0 0 0 0 3 2 3 8 6 7 3 0 0 1 0 0 0 2 20 93 153 192 356 405 397 385 351 394 464 444 409 410 422 446 407 342 360 370 373 475 479
0 0 0 0 1 0 0 1 6 0 1 1 2 0 0 0 0 0 0 0 0 0 160 274 341 68 354 345 322 6 255 333 336 436 377 369 402 357 346 357 391 418
0 0 0 0 0 0 0 2 0 0 1 4 4 4 4 3 1 1 0 0 0 0 0 0 5 0 120 298 251 136 273 274 250 290 291 270 283 313 328 352 421 487
0 0 0 0 0 0 2 2 3 4 3 4 6 6 8 8 7 5 6 2 0 0 0 0 0 0 0 32 124 68 180 41 1 1 5 138 256 320 340 350 419 495
0 0 2 1 2 3 4 5 6 7 8 7 7 6 8 7 7 4 5 4 3 1 0 0 1 0 0 0 21 79 169 1 1 2 2 170 136 160 148 188 331 405
4 4 6 6 4 3 3 2 3 7 10 10 10 9 7 6 7 4 3 3 2 2 2 1 3 0 0 0 0 1 12 96 113 8 4 2 185 101 144 207 283 420
5 6 6 4 4 2 0 0 1 6 8 9 8 10 12 8 7 4 0 0 0 2 2 4 7 0 2 2 1 1 1 1 13 89 1 4 4 220 73 174 224 314
8 7 7 6 3 3 0 0 0 0 2 4 5 4 6 10 5 3 1 0 2 0 1 4 6 4 4 0 0 2 1 1 1 1 1 2 4 4 6 39 72 238
8 6 5 5 8 8 8 3 0 0 0 2 5 0 0 9 8 2 2 2 2 2 2 3 4 5 0 0 0 0 1 1 1 1 0 0 2 4 6 18 46 62
9 9 5 4 9 10 10 9 5 1 0 0 2 0 0 0 6 5 2 2 4 3 2 3 4 3 0 0 0 0 0 1 0 0 1 0 1 3 4 7 52 105
8 7 2 3 9 10 9 8 6 5 4 3 1 0 0 1 7 2 2 2 4 3 2 2 3 1 0 0 0 0 0 0 0 0 0 0 1 2 4 5 17 69
6 4 2 2 6 6 6 5 6 6 7 4 1 0 0 1 2 3 2 2 3 3 3 3 3 0 0 0 0 0 0 0 0 0 0 0 0 0 4 13 20 32
2 2 1 0 0 0 0 0 1 0 1 5 4 2 3 4 2 1 2 1 1 1 2 2 2 0 0 0 0 0 0 0 0 3 2 1 1 2 5 8 10 15
0 0 0 0 0 0 0 0 0 0 0 0 1 3 6 3 0 0 0 0 0 0 0 0 0 0 0 0 0 0 0 1 3 4 3 3 3 4 2 2 3 3
0 0 0 0 0 0 0 0 0 0 0 1 0 1 2 3 1 0 0 0 0 0 0 0 0 0 0 0 0 0 0 1 2 4 3 2 2 2 2 1 2 4
0 0 0 0 0 0 0 0 0 0 1 3 3 2 0 1 2 0 0 0 0 0 1 0 0 0 0 0 0 0 0 0 1 2 2 1 1 0 0 0 1 2
0 0 0 0 0 0 0 0 0 0 0 0 0 0 0 0 1 2 0 1 1 0 0 0 0 0 0 0 0 0 0 0 1 2 2 1 1 0 0 0 0 0
0 0 0 0 0 0 0 0 0 0 0 0 0 0 0 0 0 0 1 1 2 1 0 0 0 0 0 0 0 0 0 0 0 1 1 0 0 0 0 0 0 0

ECMWFNIL_con_mucape_090.txt.gz
CAPE
0 0 0 0 0 0 0 4 13 46 75 135 188 181 205 279 293 289 366 594 615 562 558 518 550 588 626 560 476 435 412 496 598 642 571 566 513 487 397 305 450 546
0 0 0 0 0 0 0 0 1 0 2 32 88 100 132 140 174 164 188 267 376 489 541 509 267 444 500 511 443 375 386 270 159 378 494 433 490 403 366 326 389 438
0 0 0 0 0 0 0 0 0 0 1 2 3 20 76 71 61 85 111 173 243 272 356 464 432 384 426 486 456 403 379 382 376 396 380 329 376 446 504 470 356 355
0 0 0 0 0 0 0 0 0 0 0 0 0 2 6 14 6 25 60 104 119 107 164 252 312 356 378 437 443 472 398 366 357 342 330 322 390 428 465 456 316 126
0 0 0 0 0 0 0 0 0 0 0 0 0 0 0 1 4 4 12 30 4 25 50 272 287 194 302 323 365 433 449 399 410 414 425 381 414 448 353 361 378 395
0 0 0 0 0 0 2 1 0 0 0 0 0 0 0 0 0 4 4 7 14 8 53 125 17 220 310 385 345 274 119 156 293 429 475 390 389 394 375 384 400 422
0 0 0 0 1 1 0 0 0 0 0 0 0 0 0 0 0 0 1 2 2 5 7 22 50 116 197 305 357 295 276 273 231 141 208 362 408 445 420 385 366 364
0 0 0 0 0 0 0 2 2 4 4 2 1 0 0 0 0 0 0 0 0 0 1 2 4 7 41 136 202 210 196 192 209 253 285 24 248 334 449 364 404 407
0 0 0 0 0 0 2 8 7 7 8 4 5 4 2 2 0 0 0 0 0 0 0 2 1 1 2 6 17 52 108 138 178 218 231 258 271 216 284 388 396 346
0 0 0 0 0 0 1 5 9 10 12 7 6 5 3 3 3 4 3 1 0 0 0 2 0 0 0 0 0 1 11 22 29 37 99 184 256 269 185 277 358 388
0 0 0 0 0 0 0 2 6 8 10 11 8 7 5 4 1 1 2 1 2 0 0 1 0 0 0 0 0 0 1 2 6 18 31 75 148 166 74 29 214 318
0 0 0 0 0 0 0 0 1 3 6 8 10 7 5 0 0 0 2 0 0 0 1 0 0 0 0 1 1 1 0 0 1 0 1 4 52 110 104 19 5 188
3 2 2 0 0 0 0 0 0 2 4 2 3 8 4 0 0 0 0 0 1 0 1 1 4 1 0 1 1 1 0 1 0 0 0 0 1 2 3 2 4 42
3 4 3 4 1 0 0 0 0 0 0 0 0 0 6 0 0 1 1 1 2 2 2 4 3 2 1 1 1 0 1 0 0 0 0 0 1 0 1 2 2 5
2 4 4 2 3 2 0 0 0 0 0 0 0 0 5 2 2 1 1 1 0 1 0 2 2 2 2 2 0 0 0 0 0 1 0 0 0 0 1 1 2 4
2 3 2 1 0 4 3 0 0 0 0 0 0 0 0 2 1 2 1 0 0 0 1 4 2 1 2 0 0 1 0 0 2 1 0 0 0 0 0 0 1 4
0 0 0 0 0 0 0 0 0 0 0 0 0 0 0 0 0 0 0 0 1 2 1 2 2 1 0 0 0 0 0 0 0 0 0 0 0 0 0 0 1 2
0 0 0 0 0 0 0 0 0 0 0 0 0 0 0 0 0 0 0 0 0 0 1 2 0 0 0 0 0 0 0 0 0 0 1 2 1 0 0 0 1 1
0 0 0 0 0 0 0 0 0 0 0 0 0 0 0 0 0 0 0 0 0 0 0 0 0 0 0 0 0 0 0 0 0 0 2 4 4 5 6 9 9 7
0 0 0 0 0 0 0 0 0 0 0 0 0 0 0 0 0 0 0 0 0 0 0 0 0 0 0 0 0 0 0 0 0 0 1 1 1 2 3 6 7 6
0 0 0 0 0 0 0 0 0 0 0 0 0 0 0 0 0 0 0 0 0 0 0 0 0 0 0 0 0 0 0 0 0 0 0 0 1 1 2 2 2 2
0 0 0 0 0 0 0 0 0 0 0 0 0 0 0 0 0 0 0 0 0 0 0 0 0 0 0 0 0 0 0 0 0 0 0 0 1 1 1 1 1 2
0 0 0 0 0 0 0 0 0 0 0 0 0 0 0 0 0 0 0 0 0 0 0 0 0 0 0 0 0 0 0 0 0 0 0 0 0 1 1 1 0 2
0 0 0 0 0 0 0 0 0 0 0 0 0 0 0 0 0 0 0 0 0 0 0 0 0 0 0 0 0 0 0 0 0 0 0 1 0 0 0 0 0 3
0 0 0 0 0 0 0 0 0 0 0 0 0 0 0 0 0 0 0 0 0 0 0 0 0 0 0 0 0 0 0 0 0 1 1 1 1 0 0 0 0 2
0 0 0 0 0 0 0 0 0 0 0 0 0 0 0 0 0 0 0 0 0 0 0 0 0 0 0 0 0 0 0 0 0 1 1 0 1 1 1 0 0 0

ECMWFNIL_con_mucape_093.txt.gz
CAPE
0 0 0 0 0 0 0 0 0 0 0 1 2 4 12 28 22 32 76 109 106 137 226 276 193 198 219 290 358 381 362 328 275 188 102 52 71 81 112 100 98 109
0 0 0 0 0 0 0 0 0 0 0 0 0 2 2 8 21 14 18 19 25 46 76 132 9 4 13 42 77 211 284 293 272 195 81 82 95 118 151 137 126 138
0 0 0 0 0 0 0 0 0 0 0 0 0 1 3 2 4 6 8 9 10 25 48 60 69 111 137 167 199 88 36 18 14 24 34 86 158 148 122 119 125 131
0 0 0 0 0 0 0 0 0 0 0 0 0 0 0 2 1 3 4 4 7 8 10 12 23 51 119 186 200 152 116 2 41 47 4 25 59 87 104 174 202 200
0 0 0 0 0 0 0 0 0 0 0 0 0 0 0 0 0 0 3 4 4 4 4 6 7 9 36 86 131 177 181 139 34 68 88 106 59 83 163 186 251 256
0 0 0 0 0 0 0 0 0 0 0 0 0 0 0 0 0 0 0 0 0 2 3 4 4 4 2 2 9 31 90 174 179 132 71 1 1 77 112 169 197 247
0 0 0 0 0 0 0 2 6 6 4 2 0 0 0 0 0 0 0 0 0 0 0 0 0 0 1 0 0 0 1 25 63 83 49 39 26 33 61 126 153 234
0 0 0 0 0 0 1 4 8 9 6 3 1 0 1 1 3 3 0 0 0 0 0 0 0 0 0 0 0 0 0 1 1 3 8 18 32 34 24 19 32 37
0 0 0 0 0 0 2 4 6 6 9 5 1 0 0 0 0 3 2 1 0 0 0 0 0 0 0 0 2 2 1 1 0 0 0 2 3 5 4 5 8 26
0 0 0 0 0 0 2 2 2 2 4 5 1 0 0 0 0 1 1 0 0 0 0 2 1 2 0 1 1 1 1 1 0 0 0 0 0 0 1 3 6 8
0 0 0 0 0 0 0 0 0 0 0 0 3 0 0 0 0 0 2 1 2 1 2 3 2 2 1 1 0 1 1 0 0 0 1 1 0 0 2 1 2 2
0 0 0 0 0 0 0 0 0 0 0 0 2 0 0 0 0 0 2 2 1 3 3 3 2 2 1 1 0 1 1 0 0 0 1 2 2 1 0 0 1 1
0 0 0 0 0 0 0 0 0 0 0 0 0 0 0 0 1 1 2 1 2 1 2 2 1 1 0 0 0 0 0 0 0 0 1 1 3 2 1 1 0 0
0 0 0 0 0 0 0 0 0 0 0 0 0 0 0 0 0 0 0 1 2 3 2 3 2 1 0 0 0 0 1 0 0 0 0 1 0 0 1 2 2 1
0 0 0 0 0 0 0 0 0 0 0 0 0 0 0 0 0 0 0 0 0 0 0 2 2 0 1 1 1 0 0 0 0 0 1 0 0 0 1 1 1 0
0 0 0 0 0 0 0 0 0 0 0 0 0 0 0 0 0 0 0 0 0 0 0 0 0 0 1 0 0 2 0 0 0 0 0 0 2 3 2 1 2 4
0 0 0 0 0 0 0 0 0 0 0 0 0 0 0 0 0 0 0 0 0 0 0 0 0 0 0 0 0 0 1 0 0 0 1 1 2 2 2 1 1 1
0 0 0 0 0 0 0 0 0 0 0 0 0 0 0 0 0 0 0 0 0 0 0 0 0 0 0 0 0 0 0 0 0 1 1 1 2 1 1 1 1 2
0 0 0 0 0 0 0 0 0 0 0 0 0 0 0 0 0 0 0 0 0 0 0 0 0 0 0 0 0 0 0 0 0 0 0 1 2 1 2 2 2 4
0 0 0 0 0 0 0 0 0 0 0 0 0 0 0 0 0 0 0 0 0 0 0 0 0 0 0 0 0 0 0 0 0 0 0 1 1 2 2 2 2 4
0 0 0 0 0 0 0 0 0 0 0 0 0 0 0 0 0 0 0 0 0 0 0 0 0 0 0 0 0 0 0 0 0 0 0 0 0 1 1 1 2 2
0 0 0 0 0 0 0 0 0 0 0 0 0 0 0 0 0 0 0 0 0 0 0 0 0 0 0 0 0 0 0 0 0 0 0 0 0 0 1 0 0 1
0 0 0 0 0 0 0 0 0 0 0 0 0 0 0 0 0 0 0 0 0 0 0 0 0 0 0 0 0 0 0 0 0 0 0 0 0 0 0 0 0 2
0 0 0 0 0 0 0 0 0 0 0 0 0 0 0 0 0 0 0 0 0 0 0 0 0 0 0 0 0 0 0 0 1 1 1 1 0 0 0 0 0 5
0 0 0 0 0 0 0 0 0 0 0 0 0 0 0 0 0 0 0 0 0 0 0 0 0 0 0 0 0 0 0 0 1 1 1 1 0 0 0 0 0 1
0 0 0 0 0 0 0 0 0 0 0 0 0 0 0 0 0 0 0 0 0 0 0 0 0 0 0 0 0 0 0 0 0 1 1 1 0 2 1 0 0 0

ECMWFNIL_con_mucape_096.txt.gz
CAPE
384 341 0 0 0 0 0 0 0 0 0 0 0 0 0 0 2 5 3 4 5 4 6 7 9 12 15 17 15 37 79 92 74 32 41 87 114 158 135 167 147 127
102 0 0 0 0 0 0 0 0 0 0 0 0 0 0 0 0 0 1 2 2 1 3 4 7 10 11 13 11 18 23 20 19 16 4 62 106 140 168 211 224 213
0 0 0 0 0 0 0 0 0 0 0 0 0 0 0 0 0 0 0 0 1 2 1 3 5 5 5 6 4 3 7 19 19 24 52 63 59 70 83 14 132 184
0 0 0 0 0 0 0 0 0 0 0 0 0 0 0 0 0 0 0 0 0 1 0 1 0 1 0 0 1 2 2 4 5 7 10 24 50 52 5 6 28 65
0 0 0 0 0 0 0 0 0 0 0 0 0 0 0 0 0 0 0 0 0 1 0 0 0 0 0 0 0 2 2 3 2 2 1 1 4 21 42 14 7 8
0 0 0 0 0 0 0 2 3 3 0 0 0 0 2 4 2 1 0 0 0 1 0 0 0 0 0 1 1 2 2 2 1 1 0 0 1 1 2 4 3 5
0 0 0 0 0 0 0 0 4 8 2 0 0 0 0 2 3 2 1 2 0 1 2 1 1 1 2 1 1 0 0 1 1 0 0 0 0 0 1 1 2 1
0 0 0 0 0 0 0 0 0 0 6 0 0 0 0 0 1 3 4 3 2 2 2 2 1 1 0 1 0 1 0 2 2 0 0 0 0 0 0 0 1 1
0 0 0 0 0 0 0 0 0 0 4 0 0 0 0 2 2 2 3 5 4 3 2 2 1 0 1 1 1 1 1 1 1 0 0 0 1 1 2 2 1 1
0 0 0 0 0 0 0 0 0 0 1 0 0 0 1 1 3 4 5 4 3 4 4 2 0 1 0 1 0 1 1 1 0 0 0 0 1 2 1 1 2 2
0 0 0 0 0 0 0 0 0 0 0 0 0 0 0 0 1 5 3 2 2 2 2 1 1 1 0 0 0 0 0 1 1 1 1 0 0 1 2 1 1 1
0 0 0 0 0 0 0 0 0 0 0 0 0 0 0 0 0 0 2 0 0 0 2 1 0 0 0 0 0 0 0 0 0 1 1 1 0 0 0 1 1 1
0 0 0 0 0 0 0 0 0 0 0 0 0 0 0 0 0 0 0 0 0 0 0 0 0 0 0 0 0 0 0 0 1 1 1 1 2 2 1 0 1 1
0 0 0 0 0 0 0 0 0 0 0 0 0 0 0 0 0 0 0 0 0 0 0 0 0 0 0 0 0 1 0 0 0 1 1 2 2 2 3 2 2 2
0 0 0 0 0 0 0 0 0 0 0 0 0 0 0 0 0 0 0 0 0 0 0 0 0 0 0 1 1 0 0 0 0 0 1 2 2 1 0 1 2 3
0 0 0 0 0 0 0 0 0 0 0 0 0 0 0 0 0 0 0 0 0 0 0 0 0 0 1 0 0 1 0 1 0 1 1 2 2 1 1 0 1 1
0 0 0 0 0 0 0 0 0 0 0 0 0 0 0 0 0 0 0 0 0 0 0 0 0 0 0 0 0 0 1 0 1 1 2 1 1 2 1 2 1 1
0 0 0 0 0 0 0 0 0 0 0 0 0 0 0 0 0 0 0 0 0 0 0 0 0 0 0 0 0 0 0 0 0 1 1 1 1 1 1 2 2 2
0 0 0 0 0 0 0 0 0 0 0 0 0 0 0 0 0 0 0 0 0 0 0 0 0 0 0 0 0 0 0 0 0 0 1 1 1 1 1 1 2 2
0 0 0 0 0 0 0 0 0 0 0 0 0 0 0 0 0 0 0 0 0 0 0 0 0 0 0 0 0 0 0 0 0 0 0 0 1 1 1 1 2 2
0 0 0 0 0 0 0 0 0 0 0 0 0 0 0 0 0 0 0 0 0 0 0 0 0 0 0 0 0 0 0 0 0 0 0 0 0 1 1 2 2 2
0 0 0 0 0 0 0 0 0 0 0 0 0 0 0 0 0 0 0 0 0 0 0 0 0 0 0 0 0 0 0 0 0 0 0 1 0 1 1 2 2 2
0 0 0 0 0 0 0 0 0 0 0 0 0 0 0 0 0 0 0 0 0 0 0 0 0 0 0 0 0 0 0 0 0 0 0 0 1 1 2 2 2 3
0 0 0 0 0 0 0 0 0 0 0 0 0 0 0 0 0 0 0 0 0 0 0 0 0 0 0 0 0 0 0 0 0 0 0 1 1 1 2 2 2 4
0 0 0 0 0 0 0 0 0 0 0 0 0 0 0 0 0 0 0 0 0 0 0 0 0 0 0 0 0 0 0 0 0 0 1 1 1 0 2 1 1 2
0 0 0 0 0 0 0 0 0 0 0 0 0 0 0 0 0 0 0 0 0 0 0 0 0 0 0 0 0 0 0 0 0 2 2 1 1 2 2 1 1 1

ECMWFNIL_con_mucape_099.txt.gz
CAPE
319 312 325 254 0 0 0 0 0 0 1 1 1 1 2 2 1 1 1 4 3 0 0 0 1 0 0 0 0 2 5 2 3 2 2 6 8 5 20 44 78 118
248 194 0 0 0 0 0 0 0 0 2 2 2 2 2 2 2 1 1 3 2 1 0 0 1 0 0 0 0 1 0 1 2 2 2 2 5 5 4 9 21 17
0 1 1 2 2 2 2 1 1 1 0 2 3 4 4 4 3 3 3 4 3 3 0 0 0 0 0 1 1 1 1 1 1 0 1 2 3 4 3 4 4 6
0 2 2 4 4 3 3 3 0 0 0 1 2 4 5 5 5 5 4 5 4 2 1 0 0 0 0 0 0 0 1 1 1 2 2 1 2 2 2 3 3 2
0 1 2 2 4 4 4 4 2 0 0 1 2 4 4 3 4 3 4 3 3 2 0 0 0 0 0 0 0 0 0 0 1 1 1 1 2 3 2 2 2 2
0 0 0 1 2 2 3 6 2 2 1 2 2 3 4 3 5 2 2 2 2 0 0 0 0 0 0 0 0 0 0 0 0 1 1 2 2 2 2 2 2 2
0 0 0 0 1 2 3 6 2 2 1 2 2 2 3 2 2 2 2 2 0 0 0 0 0 0 0 0 0 0 0 0 1 0 0 0 1 1 2 2 2 2
0 0 0 0 0 0 1 1 0 0 0 0 1 2 2 2 2 2 1 0 0 0 0 0 0 0 0 0 0 0 0 0 1 1 1 2 2 2 2 4 3 3
0 0 0 0 0 0 0 0 0 0 0 0 0 0 1 0 0 0 0 0 0 0 0 0 0 0 0 0 0 0 0 0 0 1 1 1 1 1 2 4 4 5
0 0 0 0 0 0 0 0 0 0 0 0 0 0 0 0 0 0 0 0 0 0 0 0 0 0 0 0 0 0 0 0 0 0 0 1 1 2 2 3 4 5
0 0 1 1 0 0 0 0 0 0 0 0 0 0 0 0 0 0 0 0 0 0 0 0 0 0 0 0 0 0 0 0 0 0 1 1 2 2 4 4 6 6
2 1 1 1 1 0 0 0 0 0 0 0 0 0 0 0 0 0 0 0 0 0 0 0 0 0 0 0 0 0 0 0 0 0 1 1 2 2 4 4 5 4
1 1 0 0 0 0 0 0 0 0 0 0 0 0 0 0 0 0 0 0 0 0 0 0 0 0 0 0 0 0 0 0 0 0 0 1 1 1 3 5 5 4
0 0 0 0 0 0 0 0 0 0 0 0 0 0 0 0 0 0 0 0 0 0 0 0 0 0 0 0 0 0 0 0 0 0 1 0 1 0 1 2 4 4
0 0 0 0 0 0 0 0 0 0 0 0 0 0 0 0 0 0 0 0 0 0 0 0 0 0 0 1 0 0 0 0 1 1 1 1 1 0 0 2 4 3
0 0 0 0 0 0 0 0 0 0 0 0 0 0 0 0 0 0 0 0 0 0 0 0 0 1 1 0 0 0 0 0 0 1 2 2 2 1 2 3 5 7
0 0 0 0 0 0 0 0 0 0 0 0 0 0 0 0 0 0 0 0 0 0 0 0 0 0 0 0 0 0 1 0 0 0 0 1 2 4 3 5 6 4
0 0 0 0 0 0 0 0 0 0 0 0 0 0 0 0 0 0 0 0 0 0 0 0 0 0 0 0 0 0 0 0 0 0 0 0 1 2 3 6 8 8
0 0 0 0 0 0 0 0 0 0 0 0 0 0 0 0 0 0 0 0 0 0 0 0 0 0 0 0 0 0 0 0 0 0 0 0 0 1 2 2 3 4
0 0 0 0 0 0 0 0 0 0 0 0 0 0 0 0 0 0 0 0 0 0 0 0 0 0 0 0 0 0 0 0 0 0 0 0 1 2 3 2 2 3
0 0 0 0 0 0 0 0 0 0 0 0 0 0 0 0 0 0 0 0 0 0 0 0 0 0 0 0 0 0 0 0 0 0 0 0 1 3 3 2 2 2
0 0 0 0 0 0 0 0 0 0 0 0 0 0 0 0 0 0 0 0 0 0 0 0 0 0 0 0 0 0 0 0 0 0 0 0 1 2 2 2 2 2
0 0 0 0 0 0 0 0 0 0 0 0 0 0 0 0 0 0 0 0 0 0 1 0 0 0 0 0 0 0 0 0 0 0 0 0 1 3 2 3 3 3
0 0 0 0 0 0 0 0 0 0 0 0 0 0 0 0 0 0 0 0 0 0 2 1 0 0 0 0 0 0 0 0 0 0 0 0 1 1 0 2 4 3
0 0 0 0 0 0 0 0 0 0 0 0 0 0 0 0 0 0 0 0 0 0 1 1 0 0 0 0 0 0 0 0 0 0 0 0 1 1 2 2 2 2
0 0 0 0 0 0 0 0 0 0 0 0 0 0 0 0 0 0 0 0 0 0 0 0 0 0 0 0 0 0 0 0 0 0 0 0 0 0 0 3 2 2

ECMWFNIL_con_mucape_102.txt.gz
CAPE
485 489 477 404 292 171 5 4 5 5 5 5 5 5 6 7 6 8 8 8 5 3 3 0 0 0 0 0 0 0 0 0 0 0 1 2 2 5 7 7 5 3
542 504 404 211 94 4 5 6 6 4 6 6 4 5 6 5 6 5 5 4 2 0 0 0 0 0 0 0 0 0 0 0 0 0 1 1 2 3 5 6 6 8
360 335 177 7 6 6 6 5 6 7 4 4 5 5 5 4 3 4 3 1 0 0 0 0 0 0 0 0 0 0 0 0 0 0 0 1 3 2 4 4 4 5
162 10 10 11 10 6 6 4 4 5 5 4 4 4 4 4 2 2 0 0 0 0 0 0 0 0 0 0 0 0 0 0 0 1 0 0 2 2 4 5 5 5
7 7 8 7 8 7 5 4 4 4 4 3 3 3 2 2 2 0 0 0 0 0 0 0 0 0 0 0 0 0 0 0 0 0 0 0 2 3 5 5 6 5
4 4 5 6 7 5 4 4 2 4 4 3 4 2 2 0 0 0 0 0 0 0 0 0 0 0 0 0 0 0 0 0 0 0 0 0 1 3 3 5 6 7
5 6 6 4 3 5 2 2 2 3 3 3 2 0 0 0 0 0 0 0 0 0 0 0 0 0 0 0 0 0 0 0 0 0 0 0 0 2 3 6 6 7
7 4 3 4 5 3 2 1 1 1 0 0 0 0 0 0 0 0 0 0 0 0 0 0 0 0 0 0 0 0 0 0 0 0 0 0 0 0 1 3 6 6
4 4 4 5 5 4 1 0 0 0 0 0 0 0 0 0 0 0 0 0 0 0 0 0 0 0 0 0 0 0 0 0 0 0 0 0 0 0 0 1 3 4
4 4 4 4 1 0 0 0 0 0 0 0 0 0 0 0 0 0 0 0 0 0 0 0 0 0 0 0 0 0 0 0 0 0 0 0 0 0 0 1 2 4
6 4 3 1 0 0 0 0 0 0 0 0 0 0 0 0 0 0 0 0 0 0 0 0 0 0 0 0 0 0 0 0 0 0 0 0 0 0 0 1 2 4
3 4 0 0 0 0 0 0 0 0 0 0 0 0 0 0 0 0 0 0 0 0 0 0 0 0 0 0 0 0 0 0 0 0 0 0 0 0 0 0 4 4
0 0 0 0 0 0 0 0 0 0 0 0 0 0 0 0 0 0 0 0 0 0 0 0 0 0 0 0 0 0 0 0 0 0 0 0 0 0 0 0 2 5
0 0 0 0 0 0 0 0 0 0 0 0 0 0 0 0 0 0 0 0 0 0 0 0 0 0 0 0 0 0 0 0 0 0 0 0 0 0 1 2 3 7
0 0 0 0 0 0 0 0 0 0 0 0 0 0 0 0 0 0 0 0 0 0 0 0 0 0 0 0 0 0 0 0 0 0 0 0 0 0 2 2 4 7
0 0 0 0 0 0 0 0 0 0 0 0 0 0 0 0 0 0 0 0 0 0 0 0 0 0 0 0 0 0 0 0 2 0 0 0 0 0 2 5 7 6
0 0 0 0 0 0 0 0 0 0 0 0 0 0 0 0 0 0 0 0 0 0 0 0 0 0 0 0 0 0 0 0 0 0 2 0 0 0 2 3 6 5
0 0 0 0 0 0 0 0 0 0 0 0 0 0 0 0 0 0 0 0 0 0 0 0 0 0 0 0 0 0 0 0 0 0 0 0 0 2 4 4 3 6
0 0 0 0 0 0 0 0 0 0 0 0 0 0 0 0 0 0 0 0 0 0 0 0 0 0 0 0 0 0 0 0 0 0 0 0 0 2 5 5 6 7
0 0 0 0 0 0 0 0 0 0 0 0 0 0 0 0 0 0 0 0 0 0 0 0 0 0 0 0 0 0 0 0 0 0 0 0 3 4 6 5 6 12
0 0 0 0 0 0 0 0 0 0 0 0 0 0 0 0 0 0 2 0 0 0 0 0 0 0 0 0 0 0 0 0 0 0 0 1 2 1 7 0 0 6
0 0 0 0 0 0 0 0 0 0 0 0 0 0 0 0 0 0 0 0 0 0 0 1 0 0 0 0 0 0 0 0 0 0 0 0 0 3 3 5 4 1
0 0 0 0 0 0 0 0 0 0 0 0 0 0 0 0 0 0 0 0 0 0 0 0 0 0 0 0 0 0 0 0 0 0 0 0 0 2 3 5 6 0
0 0 0 0 0 0 0 0 0 0 0 0 0 0 0 0 0 0 0 0 0 0 0 0 0 0 0 0 0 0 0 0 0 0 0 0 0 0 2 3 3 2
0 0 0 0 0 0 0 0 0 0 0 0 0 0 0 0 0 0 0 0 0 0 0 0 0 0 0 0 0 0 0 0 0 0 0 0 0 0 3 0 2 4
0 0 0 0 0 0 0 0 0 0 0 0 0 0 0 0 0 0 0 0 0 0 0 0 0 0 0 0 0 0 0 0 0 0 0 0 0 0 0 3 0 3

ECMWFNIL_con_mucape_105.txt.gz
CAPE
5 4 5 6 62 22 272 6 5 5 6 6 6 5 5 6 5 6 3 2 3 1 0 0 0 0 0 0 0 0 0 0 0 0 0 0 2 4 6 6 6 9
6 4 6 6 286 304 110 6 6 6 4 5 6 5 5 5 4 4 4 1 2 0 0 0 0 0 0 0 0 0 0 0 0 0 0 0 0 2 5 4 6 9
6 7 6 226 155 4 6 5 7 6 4 4 7 7 6 4 4 0 2 0 0 0 0 0 0 0 0 0 0 0 0 0 0 0 0 0 1 1 5 9 10 7
9 7 7 7 6 4 4 4 5 4 6 4 4 3 4 4 3 0 0 0 0 0 0 0 0 0 0 0 0 0 0 0 0 0 0 0 0 0 3 5 8 6
6 7 7 5 4 4 4 4 3 4 4 4 2 4 2 0 0 0 0 0 0 0 0 0 0 0 0 0 0 0 0 0 0 0 0 1 0 0 0 2 6 7
5 6 2 4 4 3 2 2 0 2 2 0 0 0 0 0 0 0 0 0 0 0 0 0 0 0 0 0 0 0 0 0 0 0 0 0 0 0 2 2 2 1
4 6 3 3 3 2 2 2 2 0 0 0 0 0 0 0 0 0 0 0 0 0 0 0 0 0 0 0 0 0 0 0 0 0 0 0 0 0 0 0 0 0
4 4 2 2 4 2 0 0 0 0 0 0 0 0 0 0 0 0 0 0 0 0 0 0 0 0 0 0 0 0 0 0 0 0 0 0 0 0 0 0 4 0
3 2 4 3 0 0 0 1 1 0 0 0 0 0 0 0 0 0 0 0 0 0 0 0 0 0 0 0 0 0 0 0 0 0 0 0 0 0 0 0 0 0
3 2 2 0 0 0 0 0 0 0 0 0 0 0 0 0 0 0 0 0 0 0 0 0 0 0 0 0 0 0 0 0 0 0 0 0 0 0 0 0 0 0
1 1 0 0 0 0 0 0 0 0 0 0 0 0 0 0 0 0 0 0 0 0 0 0 0 0 0 0 0 0 0 0 0 0 0 0 0 0 0 0 0 0
0 0 0 1 0 0 0 0 0 0 0 0 0 0 0 0 0 0 0 0 0 0 0 0 0 0 0 0 0 0 0 0 0 0 0 0 0 0 0 0 1 6
0 1 0 0 0 0 0 0 0 0 0 0 0 0 0 0 0 0 0 0 0 0 0 0 0 0 0 0 0 0 0 0 0 0 0 0 0 0 0 0 2 4
0 0 0 0 0 0 0 0 0 0 0 0 0 0 0 0 0 0 0 0 0 0 0 0 0 0 0 0 0 0 0 0 0 0 0 0 0 0 0 0 1 2
0 0 0 0 0 0 0 0 0 0 0 0 0 0 0 0 0 0 0 0 0 0 0 0 0 0 0 0 0 0 0 0 1 0 0 0 0 0 0 0 0 1
0 0 0 0 0 0 0 0 0 0 0 0 0 0 0 0 0 0 0 0 0 0 0 0 0 0 0 0 0 0 0 0 1 0 2 0 1 0 0 1 0 1
0 0 0 0 0 0 0 0 0 0 0 0 0 0 0 0 0 0 0 0 0 0 0 0 0 0 0 0 0 0 0 0 0 0 0 0 0 0 0 0 0 1
0 0 0 0 0 0 0 0 0 0 0 0 0 0 0 0 0 0 0 0 0 0 0 0 0 0 0 0 0 0 0 0 0 0 0 0 0 0 0 1 0 1
0 0 0 0 0 0 0 0 0 0 0 0 0 0 0 0 0 0 1 0 0 0 0 0 0 0 0 0 0 0 0 0 0 0 0 0 0 0 0 1 2 1
0 0 0 0 0 0 0 0 0 0 0 0 0 0 0 0 0 0 0 0 0 0 0 0 0 0 0 0 0 0 0 0 0 0 0 0 0 0 0 1 2 2
0 0 0 0 0 0 0 0 0 0 0 0 0 0 0 0 0 0 0 0 0 1 0 0 0 0 0 0 0 0 0 0 0 0 0 0 1 0 0 0 4 2
0 0 0 0 0 0 0 0 0 0 0 0 0 0 0 0 0 0 0 0 0 0 0 0 0 0 0 0 0 0 0 0 0 0 0 0 0 0 0 0 0 0
0 0 0 0 0 0 0 0 0 0 0 0 0 0 0 0 0 0 0 0 0 1 0 0 0 0 0 0 0 0 0 0 0 0 0 0 0 0 0 0 5 0
0 0 0 0 0 0 0 0 0 0 0 0 0 0 0 0 0 0 0 0 0 0 0 0 0 0 0 0 0 0 0 0 0 0 0 0 0 0 0 0 3 0
0 0 0 0 0 0 0 0 0 0 0 0 0 0 0 0 0 0 0 0 0 0 0 0 0 0 0 0 0 0 0 0 0 0 0 0 0 0 0 0 0 3
0 0 0 0 0 0 0 0 0 0 0 0 0 0 0 0 0 0 0 0 0 0 0 0 0 0 0 0 0 0 0 0 0 0 0 0 0 0 0 0 0 0

ECMWFNIL_con_mucape_108.txt.gz
CAPE
0 0 1 0 0 45 144 1 1 0 7 9 5 4 5 5 5 4 2 0 0 0 0 0 0 0 0 0 0 0 0 0 0 0 0 3 2 1 4 4 5 5
1 4 4 7 7 4 6 5 4 5 10 10 7 5 4 4 1 0 0 0 0 0 0 0 0 0 0 0 0 0 2 0 0 0 0 0 1 1 2 5 5 6
1 4 9 10 11 9 8 11 10 10 8 7 11 7 3 3 0 0 0 0 0 0 0 0 0 0 0 0 0 0 0 0 0 0 3 1 2 1 1 1 2 2
9 11 12 12 10 9 8 11 12 11 9 6 2 2 3 0 0 0 0 0 0 0 0 0 0 0 0 0 0 0 0 0 0 0 1 0 0 0 2 2 2 4
9 8 9 9 9 9 8 5 7 8 4 4 7 1 0 0 0 0 0 0 0 0 0 0 0 0 0 0 0 0 0 0 0 0 0 0 0 0 1 2 2 1
7 1 2 4 8 9 5 2 0 3 2 0 0 1 0 0 0 0 0 0 0 0 0 0 0 0 0 0 0 0 0 0 0 0 0 0 0 0 0 1 0 0
4 4 3 3 2 2 3 2 2 3 0 0 0 0 0 0 0 0 0 0 0 0 0 0 0 0 0 0 0 0 0 0 0 0 0 0 0 0 0 0 0 0
6 3 3 4 3 3 5 0 1 2 0 0 0 0 0 0 0 0 0 0 0 0 0 0 0 0 0 0 0 0 0 0 0 0 0 0 0 0 0 0 0 0
4 2 3 3 2 1 0 0 0 0 0 0 0 0 0 0 0 0 0 0 0 0 0 0 0 0 0 0 0 0 0 0 0 0 0 0 0 0 0 0 0 0
1 1 1 2 3 1 0 0 0 0 0 0 0 0 0 0 0 0 0 0 0 0 0 0 0 0 0 0 0 0 0 0 0 0 0 0 0 0 0 0 0 0
1 0 1 2 1 0 0 0 0 0 0 0 0 0 0 0 0 0 0 0 0 0 0 0 0 0 0 0 0 0 0 0 0 0 1 0 1 0 0 0 0 2
2 2 2 0 0 0 0 0 0 0 0 0 0 0 0 0 0 0 0 0 0 0 0 0 0 0 0 0 0 0 0 0 0 1 1 0 0 0 0 0 0 1
3 0 0 0 0 0 0 0 0 0 0 0 0 0 0 0 0 0 0 0 0 0 0 0 0 0 0 0 0 0 0 0 2 0 2 0 0 0 0 0 0 1
0 0 0 0 0 0 0 0 0 0 0 0 0 0 0 0 0 0 0 0 0 0 0 0 0 0 0 0 0 0 0 0 0 0 1 0 0 0 0 0 0 0
0 0 0 0 0 0 0 0 0 0 0 0 0 0 0 0 0 0 0 0 0 0 0 0 0 0 0 0 0 0 0 0 0 3 0 0 0 0 0 0 0 0
0 0 0 0 0 0 0 0 0 0 0 0 0 0 0 0 0 0 0 0 0 0 0 0 0 0 0 0 0 0 0 0 0 2 0 1 0 1 0 0 0 0
0 0 0 0 0 0 0 0 0 0 0 0 0 0 0 0 0 0 0 0 0 0 0 0 0 0 0 0 0 0 0 0 0 1 0 1 0 0 0 0 0 0
0 0 0 0 0 0 0 0 0 0 0 0 0 0 0 0 0 0 0 0 0 0 0 0 0 0 0 0 0 0 0 0 0 1 2 0 0 0 0 0 0 0
0 0 0 0 0 0 0 0 0 0 0 0 0 0 0 0 0 1 1 0 0 0 0 0 0 0 0 0 0 0 0 0 0 2 0 0 0 1 0 0 0 0
0 0 0 0 0 0 0 0 0 0 0 0 0 0 0 0 0 0 1 1 0 0 0 0 0 0 0 0 0 0 0 0 0 3 3 1 0 0 1 0 0 0
0 0 0 0 0 0 0 0 0 0 0 0 0 0 0 0 0 0 1 1 0 0 0 0 0 0 0 0 0 0 0 0 0 5 0 2 0 0 0 0 0 0
0 0 0 0 0 0 0 0 0 0 0 0 0 0 0 0 0 0 0 1 1 0 0 0 0 0 0 0 0 0 0 0 0 0 0 2 0 0 0 0 0 0
0 0 0 0 0 0 0 0 0 0 0 0 0 0 0 0 0 0 0 0 0 0 0 0 0 0 0 0 0 0 0 0 0 0 0 0 0 0 0 0 0 0
0 0 0 0 0 0 0 0 0 0 0 0 0 0 0 0 0 0 0 0 0 0 0 0 0 0 0 0 0 0 0 0 0 0 0 0 0 0 0 0 0 0
0 0 0 0 0 0 0 0 0 0 0 0 0 0 0 0 0 0 0 0 0 0 0 0 0 0 0 0 0 0 0 0 0 0 0 0 0 0 0 0 0 0
0 0 0 0 0 0 0 0 0 0 0 0 0 0 0 0 0 0 0 0 0 0 0 0 0 0 0 0 0 0 0 0 0 0 0 0 0 0 0 0 0 0

ECMWFNIL_con_mucape_111.txt.gz
CAPE
0 3 33 5 3 2 2 0 1 0 0 0 0 0 0 0 0 0 0 0 0 0 0 0 0 0 0 0 0 0 0 0 0 0 0 0 0 0 0 0 0 0
32 17 7 2 2 2 1 0 1 0 0 0 0 0 0 0 0 0 0 0 0 0 0 0 0 0 0 0 0 0 0 0 0 0 0 0 0 0 0 0 0 0
0 0 0 0 0 0 0 0 0 0 0 0 0 0 0 0 0 0 0 0 0 0 0 0 0 0 0 0 0 0 0 0 0 0 0 0 0 0 0 0 0 0
0 0 0 0 0 0 0 0 0 0 0 0 0 0 0 0 0 0 0 0 0 0 0 0 0 0 0 0 0 0 0 0 0 0 0 0 0 0 0 0 0 0
0 0 0 0 0 0 0 0 0 0 0 0 0 0 0 0 0 0 0 0 0 0 0 0 0 0 0 0 0 0 0 0 0 0 0 0 0 0 0 0 0 0
0 1 1 0 0 0 0 0 0 0 0 0 0 0 0 0 0 0 0 0 0 0 0 0 0 0 0 0 0 0 0 0 0 0 0 0 0 0 0 0 0 0
0 1 0 0 0 0 0 0 0 0 0 0 0 0 0 0 0 0 0 0 0 0 0 0 0 0 0 0 0 0 0 0 0 0 0 0 0 0 0 0 0 0
0 0 0 0 0 0 0 0 0 0 0 0 0 0 0 0 0 0 0 0 0 0 0 0 0 0 0 0 0 0 0 0 0 0 0 0 0 0 0 0 0 0
0 0 0 0 0 0 0 0 0 0 0 0 0 0 0 0 0 0 0 0 0 0 0 0 0 0 0 0 0 0 0 0 0 0 0 0 0 0 0 0 0 0
0 0 0 0 0 0 0 0 0 0 0 0 0 0 0 0 0 0 0 0 0 0 0 0 0 0 0 0 0 0 0 0 0 0 0 0 0 0 0 0 0 0
0 0 0 0 0 0 0 0 0 0 0 0 0 0 0 0 0 0 0 0 0 0 0 0 0 0 0 0 0 0 0 0 0 0 0 0 0 0 0 0 0 0
0 0 0 0 0 0 0 0 0 0 0 0 0 0 0 0 0 0 0 0 0 0 0 0 0 0 0 0 0 0 0 0 0 0 0 0 0 0 0 0 0 0
0 0 0 0 0 0 0 0 0 0 0 0 0 0 0 0 0 0 0 0 0 0 0 0 0 0 0 0 0 0 0 0 0 0 0 0 0 0 0 0 0 0
0 0 0 0 0 0 0 0 0 0 0 0 0 0 0 0 0 0 0 0 0 0 0 0 0 0 0 0 0 0 0 0 0 0 0 0 0 0 0 0 0 0
0 0 0 0 0 0 0 0 0 0 0 0 0 0 0 0 0 0 0 0 0 0 0 0 0 0 0 0 0 0 0 0 0 0 0 0 0 0 0 0 0 0
0 0 0 0 0 0 0 0 0 0 0 0 0 0 0 0 0 0 0 0 0 0 0 0 0 0 0 0 0 0 0 0 0 0 0 0 0 0 0 0 0 0
0 0 0 0 0 0 0 0 0 0 0 0 0 0 0 0 0 0 0 0 0 0 0 0 0 0 0 0 0 0 0 0 0 0 0 0 0 0 0 0 0 0
0 0 0 0 0 0 0 0 0 0 0 0 0 0 0 0 0 0 0 0 0 0 0 0 0 0 0 0 0 0 0 0 0 0 0 0 0 0 0 0 0 0
0 0 0 0 0 0 0 0 0 0 0 0 0 0 0 0 0 0 0 0 0 0 0 0 0 0 0 0 0 0 0 0 0 0 0 0 0 0 0 0 0 0
0 0 0 0 0 0 0 0 0 0 0 0 0 0 0 0 0 0 0 0 0 0 0 0 0 0 0 0 0 0 0 0 0 0 0 0 0 0 0 0 0 0
0 0 0 0 0 0 0 0 0 0 0 0 0 0 0 0 0 0 0 0 0 0 0 0 0 0 0 0 0 0 0 0 0 0 0 0 0 0 0 0 0 0
0 0 0 0 0 0 0 0 0 0 0 0 0 0 0 0 0 0 0 0 0 0 0 0 0 0 0 0 0 0 0 0 0 0 0 0 0 0 0 0 0 0
0 0 0 0 0 0 0 0 0 0 0 0 0 0 0 0 0 0 0 0 0 0 0 0 0 0 0 0 0 0 0 0 0 0 0 0 0 0 0 0 0 0
0 0 0 0 0 0 0 0 0 0 0 0 0 0 0 0 0 0 0 0 0 0 0 0 0 0 0 0 0 0 0 0 0 0 0 0 0 0 0 0 0 0
0 0 0 0 0 0 0 0 0 0 0 0 0 0 0 0 0 0 0 0 0 0 0 0 0 0 0 0 0 0 0 0 0 0 0 0 0 0 0 0 0 0
0 0 0 0 0 0 0 0 0 0 0 0 0 0 0 0 0 0 0 0 0 0 0 0 0 0 0 0 0 0 0 0 0 0 0 0 0 0 0 0 0 0

ECMWFNIL_con_mucape_114.txt.gz
CAPE
454 404 390 376 380 367 305 119 0 0 0 0 0 0 0 0 0 0 0 0 0 0 0 0 0 0 0 0 0 0 0 0 0 0 0 0 0 0 0 0 0 0
439 410 386 344 294 96 0 0 0 0 0 0 0 0 0 0 0 0 0 0 0 0 0 0 0 0 0 0 0 0 0 0 0 0 0 0 0 0 0 0 0 0
372 332 280 194 0 0 0 0 0 0 0 0 0 0 0 0 0 0 0 0 0 0 0 0 0 0 0 0 0 0 0 0 0 0 0 0 0 0 0 0 0 0
250 223 179 0 103 24 0 0 0 0 0 0 0 0 0 0 0 0 0 0 0 0 0 0 0 0 0 0 0 0 0 0 0 0 0 0 0 0 0 0 0 0
144 91 115 160 185 179 0 0 0 0 0 0 0 0 0 0 0 0 0 0 0 0 0 0 0 0 0 0 0 0 0 0 0 0 0 0 0 0 0 0 0 0
5 2 0 16 1 0 0 0 0 0 0 0 0 0 0 0 0 0 0 0 0 0 0 0 0 0 0 0 0 0 0 0 0 0 0 0 0 0 0 0 0 0
0 0 0 0 0 0 0 0 0 0 0 0 0 0 0 0 0 0 0 0 0 0 0 0 0 0 0 0 0 0 0 0 0 0 0 0 0 0 0 0 0 0
121 0 0 0 0 0 0 0 0 0 0 0 0 0 0 0 0 0 0 0 0 0 0 0 0 0 0 0 0 0 0 0 0 0 0 0 0 0 0 0 0 0
160 159 0 0 0 0 0 0 0 0 0 0 0 0 0 0 0 0 0 0 0 0 0 0 0 0 0 0 0 0 0 0 0 0 0 0 0 0 0 0 0 0
150 127 36 80 0 0 0 0 0 0 0 0 0 0 0 0 0 0 0 0 0 0 0 0 0 0 0 0 0 0 0 0 0 0 0 0 0 0 0 0 0 0
132 39 58 72 0 0 0 0 0 0 0 0 0 0 0 0 0 0 0 0 0 0 0 0 0 0 0 0 0 0 0 0 0 0 0 0 0 0 0 0 0 0
97 62 52 26 0 0 0 0 0 0 0 0 0 0 0 0 0 0 0 0 0 0 0 0 0 0 0 0 0 0 0 0 0 0 0 0 0 0 0 0 0 0
0 0 0 0 0 0 0 0 0 0 0 0 0 0 0 0 0 0 0 0 0 0 0 0 0 0 0 0 0 0 0 0 0 0 0 0 0 0 0 0 0 0
0 0 0 0 0 0 0 0 0 0 0 0 0 0 0 0 0 0 0 0 0 0 0 0 0 0 0 0 0 0 0 0 0 0 0 0 0 0 0 0 0 0
0 0 0 0 0 0 0 0 0 0 0 0 0 0 0 0 0 0 0 0 0 0 0 0 0 0 0 0 0 0 0 0 0 0 0 0 0 0 0 0 0 0
74 133 0 0 0 0 0 0 0 0 0 0 0 0 0 0 0 0 0 0 0 0 0 0 0 0 0 0 0 0 0 0 0 0 0 0 0 0 0 0 0 0
262 189 144 112 0 0 0 0 0 0 0 0 0 0 0 0 0 0 0 0 0 0 0 0 0 0 0 0 0 0 0 0 0 0 0 0 0 0 0 0 0 0
297 241 189 66 0 0 0 0 0 0 0 0 0 0 0 0 0 0 0 0 0 0 0 0 0 0 0 0 0 0 0 0 0 0 0 0 0 0 0 0 0 0
283 262 134 0 0 0 0 0 0 0 0 0 0 0 0 0 0 0 0 0 0 0 0 0 0 0 0 0 0 0 0 0 0 0 0 0 0 0 0 0 0 0
255 167 30 0 0 0 0 0 0 0 0 0 0 0 0 0 0 0 0 0 0 0 0 0 0 0 0 0 0 0 0 0 0 0 0 0 0 0 0 0 0 0
180 4 0 0 0 0 0 0 0 0 0 0 0 0 0 0 0 0 0 0 0 0 0 0 0 0 0 0 0 0 0 0 0 0 0 0 0 0 0 0 0 0
20 0 0 0 0 0 0 0 0 0 0 0 0 0 0 0 0 0 0 0 0 0 0 0 0 0 0 0 0 0 0 0 0 0 0 0 0 0 0 0 0 0
0 0 0 0 0 0 0 0 0 0 0 0 0 0 0 0 0 0 0 0 0 0 0 0 0 0 0 0 0 0 0 0 0 0 0 0 0 0 0 0 0 0
0 0 0 0 0 0 0 0 0 0 0 0 0 0 0 0 0 0 0 0 0 0 0 0 0 0 0 0 0 0 0 0 0 0 0 0 0 0 0 0 0 0
0 0 0 0 0 0 0 0 0 0 0 0 0 0 0 0 0 0 0 0 0 0 0 0 0 0 0 0 0 0 0 0 0 0 0 0 0 0 0 0 0 0
0 0 0 0 0 0 0 0 0 0 0 0 0 0 0 0 0 0 0 0 0 0 0 0 0 0 0 0 0 0 0 0 0 0 0 0 0 0 0 0 0 0

ECMWFNIL_con_mucape_117.txt.gz
CAPE
796 726 702 689 634 648 627 508 384 329 349 291 47 0 0 0 0 0 0 0 0 0 0 0 0 0 0 0 0 0 0 0 0 0 0 0 0 0 0 0 0 0
835 797 754 773 709 581 441 335 358 356 278 56 0 0 0 0 0 0 0 0 0 0 0 0 0 0 0 0 0 0 0 0 0 0 0 0 0 0 0 0 0 0
743 691 650 656 552 418 391 419 336 256 56 0 25 164 149 125 0 0 0 0 0 0 0 0 0 0 0 0 0 0 0 0 0 0 0 0 0 0 0 0 0 0
632 566 470 426 413 432 375 293 219 152 0 0 170 183 154 28 0 0 0 0 0 0 0 0 0 0 0 0 0 0 0 0 0 0 0 0 0 0 0 0 0 0
524 490 411 347 315 282 257 210 219 200 159 116 176 151 7 0 0 0 0 0 0 0 0 0 0 0 0 0 0 0 0 0 0 0 0 0 0 0 0 0 0 0
389 327 272 253 215 198 188 134 26 22 16 140 143 7 0 0 0 0 0 0 0 0 0 0 0 0 0 0 0 0 0 0 0 0 0 0 0 0 0 0 0 0
333 250 189 180 185 156 12 2 1 0 114 69 0 0 0 0 0 0 0 0 0 0 0 0 0 0 0 0 0 0 0 0 0 0 0 0 0 0 0 0 0 0
166 142 126 8 2 1 3 0 0 0 0 0 0 0 0 0 0 0 0 0 0 0 0 0 0 0 0 0 0 0 0 0 0 0 0 0 0 0 0 0 0 0
0 63 101 109 108 107 81 56 15 0 0 0 0 0 0 0 0 0 0 0 0 0 0 0 0 0 0 0 0 0 0 0 0 0 0 0 0 0 0 0 0 0
133 137 157 157 149 138 102 55 53 45 0 0 0 0 0 0 0 0 0 0 0 0 0 0 0 0 0 0 0 0 0 0 0 0 0 0 0 0 0 0 0 0
190 188 191 176 154 112 90 49 52 49 49 20 0 0 0 0 0 0 0 0 0 0 0 0 0 0 0 0 0 0 0 0 0 0 0 0 0 0 0 0 0 0
218 221 212 202 154 103 85 51 50 48 53 0 0 0 0 0 0 0 0 0 0 0 0 0 0 0 0 0 0 0 0 0 0 0 0 0 0 0 0 0 0 0
217 221 225 224 158 107 60 48 43 42 0 0 0 0 0 0 0 0 0 0 0 0 0 0 0 0 0 0 0 0 0 0 0 0 0 0 0 0 0 0 0 0
176 200 214 174 125 51 0 0 0 0 0 0 0 0 0 0 0 0 0 0 0 0 0 0 0 0 0 0 0 0 0 0 0 0 0 0 0 0 0 0 0 0
0 0 16 69 60 0 0 0 0 0 0 0 0 0 0 0 0 0 0 0 0 0 0 0 0 0 0 0 0 0 0 0 0 0 0 0 0 0 0 0 0 0
0 0 20 118 0 0 0 0 0 0 0 0 0 0 0 0 0 0 0 0 0 0 0 0 0 0 0 0 0 0 0 0 0 0 0 0 0 0 0 0 0 0
0 0 53 8 140 0 0 0 0 0 0 0 0 0 0 0 0 0 0 0 0 0 0 0 0 0 0 0 0 0 0 0 0 0 0 0 0 0 0 0 0 0
12 117 210 0 86 72 0 0 0 0 0 0 0 0 0 0 0 0 0 0 0 0 0 0 0 0 0 0 0 0 0 0 0 0 0 0 0 0 0 0 0 0
85 183 231 179 62 152 0 0 0 0 0 0 0 0 0 0 0 0 0 0 0 0 0 0 0 0 0 0 0 0 0 0 0 0 0 0 0 0 0 0 0 0
187 166 170 214 187 0 0 0 0 0 0 0 0 0 0 0 0 0 0 0 0 0 0 0 0 0 0 0 0 0 0 0 0 0 0 0 0 0 0 0 0 0
139 258 260 246 109 22 0 0 0 0 0 0 0 0 0 0 0 0 0 0 0 0 0 0 0 0 0 0 0 0 0 0 0 0 0 0 0 0 0 0 0 0
79 0 9 2 0 0 0 0 0 0 0 0 0 0 0 0 0 0 0 0 0 0 0 0 0 0 0 0 0 0 0 0 0 0 0 0 0 0 0 0 0 0
92 12 0 0 0 0 0 0 0 0 0 0 0 0 0 0 0 0 0 0 0 0 0 0 0 0 0 0 0 0 0 0 0 0 0 0 0 0 0 0 0 0
159 55 0 0 0 0 0 0 0 0 0 0 0 0 0 0 0 0 0 0 0 0 0 0 0 0 0 0 0 0 0 0 0 0 0 0 0 0 0 0 0 0
50 10 0 0 0 0 0 0 0 0 0 0 0 0 0 0 0 0 0 0 0 0 0 0 0 0 0 0 0 0 0 0 0 0 0 0 0 0 0 0 0 0
16 9 0 0 0 0 0 0 0 0 0 0 0 0 0 0 0 0 0 0 0 0 0 0 0 0 0 0 0 0 0 0 0 0 0 0 0 0 0 0 0 0

ECMWFNIL_con_mucape_120.txt.gz
CAPE
639 574 567 637 583 488 410 356 384 380 390 336 224 259 226 0 0 0 0 23 0 0 0 0 0 0 0 0 0 0 0 0 0 0 0 0 0 0 0 0 0 0
650 515 589 718 584 486 438 388 404 400 320 231 282 306 26 0 83 136 118 20 0 0 0 0 0 0 0 0 0 0 0 0 0 0 0 0 0 0 0 0 0 0
723 605 704 700 612 560 549 512 405 323 280 325 319 181 0 147 167 139 0 0 0 0 0 0 0 0 0 0 0 0 0 0 0 0 0 0 0 0 0 0 0 0
688 718 745 667 641 607 566 529 433 300 243 195 147 119 83 149 152 28 0 0 0 0 0 0 0 0 0 0 0 0 0 0 0 0 0 0 0 0 0 0 0 0
774 705 636 658 594 598 563 475 346 204 179 185 166 141 6 134 116 0 0 0 0 0 0 0 0 0 0 0 0 0 0 0 0 0 0 0 0 0 0 0 0 0
746 682 649 596 626 572 479 352 222 134 144 136 24 6 102 116 16 0 0 0 0 0 0 0 0 0 0 0 0 0 0 0 0 0 0 0 0 0 0 0 0 0
710 740 665 594 549 467 336 214 99 16 0 0 0 114 95 1 0 0 0 0 0 0 0 0 0 0 0 0 0 0 0 0 0 0 0 0 0 0 0 0 0 0
680 611 518 463 382 320 213 103 30 0 0 0 0 0 0 0 0 0 0 0 0 0 0 0 0 0 0 0 0 0 0 0 0 0 0 0 0 0 0 0 0 0
546 500 446 347 262 169 90 31 1 0 0 0 0 0 0 0 0 0 0 0 0 0 0 0 0 0 0 0 0 0 0 0 0 0 0 0 0 0 0 0 0 0
405 363 288 210 117 41 95 0 0 0 0 0 0 0 0 0 0 0 0 0 0 0 0 0 0 0 0 0 0 0 0 0 0 0 0 0 0 0 0 0 0 0
186 91 89 122 141 136 87 1 1 0 0 0 0 0 0 0 0 0 0 0 0 0 0 0 0 0 0 0 0 0 0 0 0 0 0 0 0 0 0 0 0 0
83 135 159 166 177 171 164 136 91 0 0 0 0 0 0 0 0 0 0 0 0 0 0 0 0 0 0 0 0 0 0 0 0 0 0 0 0 0 0 0 0 0
188 210 226 231 232 221 216 199 134 34 0 0 0 0 0 0 0 0 0 0 0 0 0 0 0 0 0 0 0 0 0 0 0 0 0 0 0 0 0 0 0 0
274 168 271 262 261 251 243 236 171 0 0 0 0 0 0 0 0 0 0 0 0 0 0 0 0 0 0 0 0 0 0 0 0 0 0 0 0 0 0 0 0 0
243 274 257 229 255 239 250 226 173 0 0 0 0 0 0 0 0 0 0 0 0 0 0 0 0 0 0 0 0 0 0 0 0 0 0 0 0 0 0 0 0 0
292 267 256 238 193 112 165 89 0 0 0 0 0 0 0 0 0 0 0 0 0 0 0 0 0 0 0 0 0 0 0 0 0 0 0 0 0 0 0 0 0 0
289 300 270 153 0 0 0 0 0 0 0 0 0 0 0 0 0 0 0 0 0 0 0 0 0 0 0 0 0 0 0 0 0 0 0 0 0 0 0 0 0 0
342 288 127 0 0 0 0 0 0 0 0 0 0 0 0 0 0 0 0 0 0 0 0 0 0 0 0 0 0 0 0 0 0 0 0 0 0 0 0 0 0 0
351 262 0 0 0 0 0 0 0 0 29 5 0 0 0 0 0 0 0 0 0 0 0 0 0 0 0 0 0 0 0 0 0 0 0 0 0 0 0 0 0 0
355 97 30 6 0 0 0 4 15 9 3 0 0 0 0 0 0 0 0 0 0 0 0 0 0 0 0 0 0 0 0 0 0 0 0 0 0 0 0 0 0 0
82 90 76 46 8 0 16 46 8 0 0 0 0 0 0 0 0 0 0 0 0 0 0 0 0 0 0 0 0 0 0 0 0 0 0 0 0 0 0 0 0 0
95 86 100 42 40 0 1 0 0 0 0 0 0 0 0 0 0 0 0 0 0 0 0 0 0 0 0 0 0 0 0 0 0 0 0 0 0 0 0 0 0 0
56 50 46 18 30 0 0 0 0 0 0 0 0 0 0 0 0 0 0 0 0 0 0 0 0 0 0 0 0 0 0 0 0 0 0 0 0 0 0 0 0 0
39 39 37 46 14 4 0 0 0 0 0 0 0 0 0 0 0 0 0 0 0 0 0 0 0 0 0 0 0 0 0 0 0 0 0 0 0 0 0 0 0 0
88 51 29 6 1 0 0 0 0 0 0 0 0 0 0 0 0 0 0 0 0 0 0 0 0 0 0 0 0 0 0 0 0 0 0 0 0 0 0 0 0 0
66 63 10 0 0 0 0 0 0 0 0 0 0 0 0 0 0 0 0 0 0 0 0 0 0 0 0 0 0 0 0 0 0 0 0 0 0 0 0 0 0 0